[[{"header":{"parameterUnit":"m.s-1","parameterCategory":1,"la1":31.0,"la2":29.5877,"lo1":-88.7671,"lo2":-86.6584,"dy":0.0162,"dx":0.0185,"nx":115,"ny":88,"refTime":"2023-02-25T06:00:00:Z","depth":0,"parameterNumber":2,"parameterNumberName":"U-component_of_WINDS"},"data":[0.0,0.0,0.0,0.0,0.0,0.0,0.0,0.0,0.0,0.0,0.0,0.0,0.0,0.0,0.0,0.0,0.0,0.0,0.0,0.0,0.0,0.0,0.0,0.0,0.0,0.0,0.0,0.0,0.0,0.0,0.0,0.0,0.0,0.0,0.0,0.0,0.0,0.0,0.0,0.0,0.0,0.0,0.0,0.0,0.0,0.0,0.0,0.0,0.0,0.0,0.0,0.0,0.0,0.0,0.0,0.0,0.0,0.0,0.0,0.0,0.0,0.0,0.0,0.0,0.0,0.0,0.0,0.0,0.0,0.0,0.0,0.0,0.0,0.0,0.0,0.0,0.0,0.0,0.0,0.0,0.0,0.0,0.0,0.0,0.0,0.0,0.0,0.0,0.0,0.0,0.0,0.0,0.0,0.0,0.0,0.0,0.0,0.0,0.0,0.0,0.0,0.0,0.0,0.0,0.0,0.0,0.0,0.0,0.0,0.0,0.0,0.0,0.0,0.0,0.0,0.0,0.0,0.0,0.0,0.0,0.0,0.0,0.0,0.0,0.0,0.0,0.0,0.0,0.0,0.0,0.0,0.0,0.0,0.0,0.0,0.0,0.0,0.0,0.0,0.0,0.0,0.0,0.0,0.0,0.0,0.0,0.0,0.0,0.0,0.0,0.0,0.0,0.0,0.0,0.0,0.0,0.0,0.0,0.0,0.0,0.0,0.0,0.0,0.0,0.0,0.0,0.0,0.0,0.0,0.0,0.0,0.0,0.0,0.0,0.0,0.0,0.0,0.0,0.0,0.0,0.0,0.0,0.0,0.0,0.0,0.0,0.0,0.0,0.0,0.0,0.0,0.0,0.0,0.0,0.0,0.0,0.0,0.0,0.0,0.0,0.0,0.0,0.0,0.0,0.0,0.0,0.0,0.0,0.0,0.0,0.0,0.0,0.0,0.0,0.0,0.0,0.0,0.0,0.0,0.0,0.0,0.0,0.0,0.0,0.0,0.0,0.0,0.0,0.0,0.0,0.0,0.0,0.0,0.0,0.0,0.0,0.0,0.0,0.0,0.0,0.0,0.0,0.0,0.0,0.0,0.0,0.0,0.0,0.0,0.0,0.0,0.0,0.0,0.0,0.0,0.0,0.0,0.0,0.0,0.0,0.0,0.0,0.0,0.0,0.0,0.0,0.0,0.0,0.0,0.0,0.0,0.0,0.0,0.0,0.0,0.0,0.0,0.0,0.0,0.0,0.0,0.0,0.0,0.0,0.0,0.0,0.0,0.0,0.0,0.0,0.0,0.0,0.0,0.0,0.0,0.0,0.0,0.0,0.0,0.0,0.0,0.0,0.0,0.0,0.0,0.0,0.0,0.0,0.0,0.0,0.0,0.0,0.0,0.0,0.0,0.0,0.0,0.0,0.0,0.0,0.0,0.0,0.0,0.0,0.0,0.0,0.0,0.0,0.0,0.0,0.0,0.0,0.0,0.0,0.0,0.0,0.0,0.0,0.0,0.0,0.0,0.0,0.0,0.0,0.0,0.0,0.0,0.0,0.0,0.0,0.0,0.0,0.0,0.0,0.0,0.0,0.0,0.0,0.0,0.0,0.0,0.0,0.0,0.0,0.0,0.0,0.0,0.0,0.0,0.0,0.0,0.0,0.0,0.0,0.0,0.0,0.0,0.0,0.0,0.0,0.0,0.0,0.0,0.0,0.0,0.0,0.0,0.0,0.0,0.0,0.0,0.0,0.0,0.0,0.0,0.0,0.0,0.0,0.0,0.0,0.0,0.0,0.0,0.0,0.0,0.0,0.0,0.0,0.0,0.0,0.0,0.0,0.0,0.0,0.0,0.0,0.0,0.0,0.0,0.0,0.0,0.0,0.0,0.0,0.0,0.0,0.0,0.0,0.0,0.0,0.0,0.0,0.0,0.0,0.0,0.0,0.0,0.0,0.0,0.0,0.0,0.0,0.0,0.0,0.0,0.0,0.0,0.0,0.0,0.0,0.0,0.0,0.0,0.0,0.0,0.0,0.0,0.0,0.0,0.0,0.0,0.0,0.0,0.0,0.0,0.0,0.0,0.0,0.0,0.0,0.0,0.0,0.0,0.0,0.0,0.0,0.0,0.0,0.0,0.0,0.0,0.0,0.0,0.0,0.0,0.0,0.0,0.0,0.0,0.0,0.0,0.0,0.0,0.0,0.0,0.0,0.0,0.0,0.0,0.0,0.0,0.0,0.0,0.0,0.0,0.0,0.0,0.0,0.0,0.0,0.0,0.0,0.0,0.0,0.0,0.0,0.0,0.0,0.0,0.0,0.0,0.0,0.0,0.0,0.0,0.0,0.0,0.0,0.0,0.0,0.0,0.0,0.0,0.0,0.0,0.0,0.0,0.0,0.0,0.0,0.0,0.0,0.0,0.0,0.0,0.0,0.0,0.0,0.0,0.0,0.0,0.0,0.0,0.0,0.0,0.0,0.0,0.0,0.0,0.0,0.0,0.0,0.0,0.0,0.0,0.0,0.0,0.0,0.0,0.0,0.0,0.0,0.0,0.0,0.0,0.0,0.0,0.0,0.0,0.0,0.0,0.0,0.0,0.0,0.0,0.0,0.0,0.0,0.0,0.0,0.0,0.0,0.0,0.0,0.0,0.0,0.0,0.0,0.0,0.0,0.0,0.0,0.0,0.0,0.0,0.0,0.0,0.0,0.0,0.0,0.0,0.0,0.0,0.0,0.0,0.0,0.0,0.0,0.0,0.0,0.0,0.0,0.0,0.0,0.0,0.0,0.0,0.0,0.0,0.0,0.0,0.0,0.0,0.0,0.0,0.0,0.0,0.0,0.0,0.0,0.0,0.0,0.0,0.0,0.0,0.0,0.0,0.0,0.0,0.0,0.0,0.0,0.0,0.0,0.0,0.0,0.0,0.0,0.0,0.0,0.0,0.0,0.0,0.0,0.0,0.0,0.0,0.0,0.0,0.0,0.0,0.0,0.0,0.0,0.0,0.0,0.0,0.0,0.0,0.0,0.0,0.0,0.0,0.0,0.0,0.0,0.0,0.0,0.0,0.0,0.0,0.0,0.0,0.0,0.0,0.0,0.0,0.0,0.0,0.0,0.0,0.0,0.0,0.0,0.0,0.0,0.0,0.0,0.0,0.0,0.0,0.0,0.0,0.0,0.0,0.0,0.0,0.0,0.0,0.0,0.0,0.0,0.0,0.0,0.0,0.0,0.0,0.0,0.0,0.0,0.0,0.0,0.0,0.0,0.0,0.0,0.0,0.0,0.0,0.0,0.0,0.0,0.0,0.0,0.0,0.0,0.0,0.0,0.0,0.0,0.0,0.0,0.0,0.0,0.0,0.0,0.0,0.0,0.0,0.0,0.0,0.0,0.0,0.0,0.0,0.0,0.0,0.0,0.0,0.0,0.0,0.0,0.0,0.0,0.0,0.0,0.0,0.0,0.0,0.0,0.0,0.0,0.0,0.0,0.0,0.0,0.0,0.0,0.0,0.0,0.0,0.0,0.0,0.0,0.0,0.0,0.0,0.0,0.0,0.0,0.0,0.0,0.0,0.0,0.0,0.0,0.0,0.0,0.0,0.0,0.0,0.0,0.0,0.0,0.0,0.0,0.0,0.0,0.0,0.0,0.0,0.0,0.0,0.0,0.0,0.0,0.0,0.0,0.0,0.0,0.0,0.0,0.0,0.0,0.0,0.0,0.0,0.0,0.0,0.0,0.0,0.0,0.0,0.0,0.0,0.0,0.0,0.0,0.0,0.0,0.0,0.0,0.0,0.0,0.0,0.0,0.0,0.0,0.0,0.0,0.0,0.0,0.0,0.0,0.0,0.0,0.0,0.0,0.0,0.0,0.0,0.0,0.0,0.0,0.0,0.0,0.0,0.0,0.0,0.0,0.0,0.0,0.0,0.0,0.0,0.0,0.0,0.0,0.0,0.0,0.0,0.0,0.0,0.0,0.0,0.0,0.0,0.0,0.0,0.0,0.0,0.0,0.0,0.0,0.0,0.0,0.0,0.0,0.0,0.0,0.0,0.0,0.0,0.0,0.0,0.0,0.0,0.0,0.0,0.0,0.0,0.0,0.0,0.0,0.0,0.0,0.0,0.0,0.0,0.0,0.0,0.0,0.0,0.0,0.0,0.0,0.0,0.0,0.0,0.0,0.0,0.0,0.0,0.0,0.0,0.0,0.0,0.0,0.0,0.0,0.0,0.0,0.0,0.0,0.0,0.0,0.0,0.0,0.0,0.0,0.0,0.0,0.0,0.0,0.0,0.0,-2.3238,0.0,0.0,0.0,0.0,0.0,0.0,0.0,0.0,0.0,0.0,0.0,0.0,0.0,0.0,0.0,0.0,0.0,0.0,0.0,0.0,0.0,0.0,0.0,0.0,0.0,0.0,0.0,0.0,0.0,0.0,0.0,0.0,0.0,0.0,0.0,0.0,0.0,0.0,0.0,0.0,0.0,0.0,0.0,0.0,0.0,0.0,0.0,0.0,0.0,0.0,0.0,0.0,0.0,0.0,0.0,0.0,0.0,0.0,0.0,0.0,0.0,0.0,0.0,0.0,0.0,0.0,0.0,0.0,0.0,0.0,0.0,0.0,0.0,0.0,0.0,0.0,0.0,0.0,0.0,0.0,0.0,0.0,0.0,0.0,0.0,0.0,0.0,0.0,0.0,0.0,0.0,0.0,0.0,0.0,0.0,0.0,0.0,0.0,0.0,0.0,0.0,0.0,0.0,0.0,0.0,0.0,0.0,0.0,0.0,0.0,-2.1497,-2.3147,-2.1331,-2.1371,-2.3566,0.0,0.0,0.0,0.0,0.0,0.0,0.0,0.0,0.0,0.0,0.0,0.0,0.0,0.0,0.0,0.0,0.0,0.0,0.0,0.0,0.0,0.0,0.0,0.0,0.0,0.0,0.0,0.0,0.0,0.0,0.0,0.0,0.0,0.0,0.0,0.0,0.0,0.0,0.0,0.0,0.0,0.0,0.0,0.0,0.0,0.0,0.0,0.0,0.0,0.0,0.0,0.0,0.0,0.0,0.0,0.0,0.0,0.0,0.0,0.0,0.0,0.0,0.0,0.0,0.0,0.0,0.0,0.0,0.0,0.0,0.0,0.0,0.0,0.0,0.0,0.0,0.0,0.0,0.0,0.0,0.0,0.0,0.0,0.0,0.0,0.0,0.0,0.0,0.0,0.0,0.0,0.0,0.0,0.0,0.0,0.0,0.0,0.0,0.0,0.0,0.0,0.0,0.0,0.0,0.0,0.0,0.0,0.0,0.0,0.0,0.0,0.0,-2.1717,-2.1716,-2.3819,0.0,0.0,0.0,0.0,0.0,0.0,0.0,0.0,0.0,0.0,0.0,0.0,0.0,0.0,0.0,0.0,0.0,0.0,0.0,0.0,0.0,0.0,0.0,0.0,0.0,0.0,0.0,0.0,0.0,0.0,0.0,0.0,0.0,0.0,0.0,0.0,0.0,0.0,0.0,0.0,0.0,0.0,0.0,0.0,0.0,0.0,0.0,0.0,0.0,0.0,0.0,0.0,0.0,0.0,0.0,0.0,0.0,0.0,0.0,0.0,0.0,0.0,0.0,0.0,0.0,0.0,0.0,0.0,0.0,0.0,0.0,0.0,0.0,0.0,0.0,0.0,0.0,0.0,0.0,0.0,0.0,0.0,0.0,0.0,0.0,0.0,0.0,0.0,0.0,0.0,0.0,0.0,0.0,0.0,0.0,0.0,0.0,0.0,0.0,0.0,0.0,0.0,0.0,0.0,0.0,0.0,0.0,0.0,0.0,0.0,-2.307,-2.3236,-2.4257,0.0,-2.4761,0.0,0.0,0.0,0.0,0.0,0.0,0.0,0.0,0.0,0.0,0.0,0.0,0.0,0.0,0.0,0.0,0.0,0.0,0.0,0.0,0.0,0.0,0.0,0.0,0.0,0.0,0.0,0.0,0.0,0.0,0.0,0.0,0.0,0.0,0.0,0.0,0.0,0.0,0.0,0.0,0.0,0.0,0.0,0.0,0.0,0.0,0.0,0.0,0.0,0.0,0.0,0.0,0.0,0.0,0.0,0.0,0.0,0.0,0.0,0.0,0.0,0.0,0.0,0.0,0.0,0.0,0.0,0.0,0.0,0.0,0.0,0.0,0.0,0.0,0.0,0.0,0.0,0.0,0.0,0.0,0.0,0.0,0.0,0.0,0.0,0.0,0.0,0.0,0.0,0.0,0.0,0.0,0.0,0.0,0.0,0.0,0.0,0.0,0.0,0.0,0.0,0.0,0.0,0.0,0.0,0.0,0.0,0.0,0.0,0.0,-2.2979,-2.3189,-2.3786,-2.4033,0.0,0.0,0.0,0.0,0.0,0.0,0.0,0.0,0.0,0.0,0.0,0.0,0.0,0.0,0.0,0.0,0.0,0.0,0.0,0.0,0.0,0.0,0.0,0.0,0.0,0.0,0.0,0.0,0.0,0.0,0.0,0.0,0.0,0.0,0.0,0.0,0.0,0.0,0.0,0.0,0.0,0.0,0.0,0.0,0.0,0.0,0.0,0.0,0.0,0.0,0.0,0.0,0.0,0.0,0.0,0.0,0.0,0.0,0.0,0.0,0.0,0.0,0.0,0.0,0.0,0.0,0.0,0.0,0.0,0.0,0.0,0.0,0.0,0.0,0.0,0.0,0.0,0.0,0.0,0.0,0.0,0.0,0.0,0.0,0.0,0.0,0.0,0.0,0.0,0.0,0.0,0.0,0.0,0.0,0.0,0.0,0.0,0.0,0.0,0.0,0.0,0.0,0.0,0.0,0.0,0.0,0.0,0.0,0.0,0.0,-2.2546,-2.3028,-2.3608,-2.3453,-2.3389,-2.3513,0.0,0.0,0.0,0.0,0.0,0.0,0.0,0.0,0.0,0.0,0.0,0.0,0.0,0.0,0.0,0.0,0.0,0.0,0.0,0.0,0.0,0.0,0.0,0.0,0.0,0.0,0.0,0.0,0.0,0.0,0.0,0.0,0.0,0.0,0.0,0.0,0.0,0.0,0.0,0.0,0.0,0.0,0.0,0.0,0.0,0.0,0.0,0.0,0.0,0.0,0.0,0.0,0.0,0.0,0.0,0.0,0.0,0.0,0.0,0.0,0.0,0.0,0.0,0.0,0.0,0.0,0.0,0.0,0.0,0.0,0.0,0.0,0.0,0.0,0.0,0.0,0.0,0.0,0.0,0.0,0.0,0.0,0.0,0.0,0.0,0.0,0.0,0.0,0.0,0.0,0.0,0.0,0.0,0.0,0.0,0.0,0.0,0.0,0.0,0.0,0.0,0.0,0.0,0.0,0.0,0.0,0.0,0.0,-2.2293,-2.2546,-2.3355,-2.4694,-2.405,-2.3903,0.0,0.0,0.0,0.0,0.0,0.0,0.0,0.0,0.0,0.0,0.0,0.0,0.0,0.0,0.0,0.0,0.0,0.0,0.0,0.0,0.0,0.0,0.0,0.0,0.0,0.0,0.0,0.0,0.0,0.0,0.0,0.0,0.0,0.0,0.0,0.0,0.0,0.0,0.0,0.0,0.0,0.0,0.0,0.0,0.0,0.0,0.0,0.0,0.0,0.0,0.0,0.0,0.0,0.0,0.0,0.0,0.0,0.0,0.0,0.0,0.0,0.0,0.0,0.0,0.0,0.0,0.0,0.0,0.0,0.0,0.0,0.0,0.0,0.0,0.0,0.0,0.0,0.0,0.0,0.0,0.0,0.0,0.0,0.0,0.0,0.0,0.0,0.0,0.0,0.0,0.0,0.0,0.0,0.0,0.0,0.0,0.0,0.0,0.0,0.0,0.0,0.0,0.0,0.0,0.0,0.0,0.0,0.0,0.0,-2.1627,-2.2069,-2.2788,-2.3743,-2.3732,-2.367,0.0,0.0,0.0,0.0,0.0,0.0,0.0,0.0,0.0,0.0,0.0,0.0,0.0,0.0,0.0,0.0,0.0,0.0,0.0,0.0,0.0,0.0,0.0,0.0,0.0,0.0,0.0,0.0,0.0,0.0,0.0,0.0,0.0,0.0,0.0,0.0,0.0,0.0,0.0,0.0,0.0,0.0,0.0,0.0,0.0,0.0,0.0,0.0,0.0,0.0,0.0,0.0,0.0,0.0,0.0,0.0,0.0,0.0,0.0,0.0,0.0,0.0,0.0,0.0,0.0,0.0,0.0,0.0,0.0,0.0,0.0,0.0,0.0,0.0,0.0,0.0,0.0,0.0,0.0,0.0,0.0,0.0,0.0,0.0,0.0,0.0,0.0,0.0,0.0,0.0,0.0,0.0,0.0,0.0,0.0,0.0,0.0,0.0,0.0,0.0,0.0,0.0,0.0,0.0,0.0,0.0,0.0,0.0,0.0,-2.0865,0.0,-2.1728,-2.2473,-2.2932,-2.3146,0.0,0.0,0.0,0.0,0.0,0.0,0.0,0.0,0.0,0.0,0.0,0.0,0.0,0.0,0.0,0.0,0.0,0.0,0.0,0.0,0.0,0.0,0.0,0.0,0.0,0.0,0.0,0.0,0.0,0.0,0.0,0.0,0.0,0.0,0.0,0.0,0.0,0.0,0.0,0.0,0.0,0.0,0.0,0.0,0.0,0.0,0.0,0.0,0.0,0.0,0.0,0.0,0.0,0.0,0.0,0.0,0.0,0.0,0.0,0.0,0.0,0.0,0.0,0.0,0.0,0.0,0.0,0.0,0.0,0.0,0.0,0.0,0.0,0.0,0.0,0.0,0.0,0.0,0.0,0.0,0.0,0.0,0.0,0.0,0.0,0.0,0.0,0.0,0.0,0.0,0.0,0.0,0.0,0.0,0.0,0.0,0.0,0.0,0.0,0.0,0.0,0.0,0.0,0.0,0.0,0.0,0.0,0.0,-2.1488,-2.0111,-1.9865,-2.0203,-2.1028,-2.1688,-2.2352,0.0,0.0,0.0,0.0,0.0,0.0,0.0,0.0,0.0,0.0,0.0,0.0,0.0,0.0,0.0,0.0,0.0,0.0,0.0,0.0,0.0,0.0,0.0,0.0,0.0,0.0,0.0,0.0,0.0,0.0,0.0,0.0,0.0,0.0,0.0,0.0,0.0,0.0,0.0,0.0,0.0,0.0,0.0,0.0,0.0,0.0,0.0,0.0,0.0,0.0,0.0,0.0,0.0,0.0,0.0,0.0,0.0,0.0,0.0,0.0,0.0,0.0,0.0,0.0,0.0,0.0,0.0,0.0,0.0,0.0,0.0,0.0,0.0,0.0,0.0,0.0,0.0,0.0,0.0,0.0,0.0,0.0,0.0,0.0,0.0,0.0,0.0,0.0,0.0,0.0,0.0,0.0,0.0,0.0,0.0,0.0,0.0,0.0,0.0,0.0,0.0,0.0,0.0,0.0,0.0,0.0,0.0,0.0,0.0,-2.1026,-1.9063,-1.936,-2.1989,-2.111,-2.1141,0.0,0.0,0.0,0.0,0.0,0.0,0.0,0.0,0.0,0.0,0.0,0.0,0.0,0.0,0.0,0.0,0.0,0.0,0.0,0.0,0.0,0.0,0.0,0.0,0.0,0.0,0.0,0.0,0.0,0.0,0.0,0.0,0.0,0.0,0.0,0.0,0.0,0.0,0.0,0.0,0.0,0.0,0.0,0.0,0.0,0.0,0.0,0.0,0.0,0.0,0.0,0.0,0.0,0.0,0.0,0.0,0.0,0.0,0.0,0.0,0.0,0.0,0.0,0.0,0.0,0.0,0.0,0.0,0.0,0.0,0.0,0.0,0.0,0.0,0.0,0.0,0.0,0.0,0.0,0.0,0.0,0.0,0.0,0.0,0.0,0.0,0.0,0.0,0.0,0.0,0.0,0.0,0.0,0.0,0.0,0.0,0.0,0.0,0.0,0.0,0.0,0.0,0.0,0.0,0.0,0.0,0.0,0.0,0.0,-2.0025,-1.7684,-1.7458,-1.9787,-1.9714,-2.003,-2.0848,0.0,0.0,0.0,0.0,0.0,0.0,0.0,0.0,0.0,0.0,0.0,0.0,0.0,0.0,0.0,0.0,0.0,0.0,0.0,0.0,0.0,0.0,0.0,0.0,0.0,0.0,0.0,0.0,0.0,0.0,0.0,0.0,0.0,0.0,0.0,0.0,0.0,0.0,0.0,0.0,0.0,0.0,0.0,0.0,0.0,0.0,0.0,0.0,0.0,0.0,0.0,0.0,0.0,0.0,0.0,0.0,0.0,0.0,0.0,0.0,0.0,0.0,0.0,0.0,0.0,0.0,0.0,0.0,0.0,0.0,0.0,0.0,0.0,0.0,0.0,0.0,0.0,0.0,0.0,0.0,0.0,0.0,0.0,0.0,0.0,0.0,0.0,0.0,0.0,0.0,0.0,0.0,0.0,0.0,0.0,0.0,0.0,0.0,0.0,0.0,0.0,0.0,0.0,0.0,0.0,0.0,0.0,0.0,-1.7781,-1.5913,-1.507,-1.5381,-1.7884,-1.9087,0.0,0.0,0.0,0.0,0.0,0.0,0.0,0.0,0.0,0.0,0.0,0.0,0.0,0.0,0.0,0.0,0.0,0.0,0.0,0.0,0.0,0.0,0.0,0.0,0.0,0.0,0.0,0.0,0.0,0.0,0.0,0.0,0.0,0.0,0.0,0.0,0.0,0.0,0.0,0.0,0.0,0.0,0.0,0.0,0.0,0.0,0.0,0.0,0.0,0.0,0.0,0.0,0.0,0.0,0.0,0.0,0.0,0.0,0.0,0.0,0.0,0.0,0.0,0.0,0.0,0.0,0.0,0.0,0.0,0.0,0.0,0.0,0.0,0.0,0.0,0.0,0.0,0.0,0.0,0.0,0.0,0.0,0.0,0.0,0.0,0.0,0.0,0.0,0.0,0.0,0.0,0.0,0.0,0.0,0.0,0.0,0.0,0.0,0.0,0.0,0.0,0.0,0.0,0.0,0.0,0.0,0.0,0.0,0.0,-1.6337,-1.5501,-1.5954,-1.7795,-1.8097,-1.8382,0.0,0.0,0.0,0.0,0.0,0.0,0.0,0.0,0.0,0.0,0.0,0.0,0.0,0.0,0.0,0.0,0.0,0.0,0.0,0.0,0.0,0.0,0.0,0.0,0.0,0.0,0.0,0.0,0.0,0.0,0.0,0.0,0.0,0.0,0.0,0.0,0.0,0.0,0.0,0.0,0.0,0.0,0.0,0.0,0.0,0.0,0.0,0.0,0.0,0.0,0.0,0.0,0.0,0.0,0.0,0.0,0.0,0.0,0.0,0.0,0.0,0.0,0.0,0.0,0.0,0.0,0.0,0.0,0.0,0.0,0.0,0.0,0.0,0.0,0.0,0.0,0.0,0.0,0.0,0.0,0.0,0.0,0.0,0.0,0.0,0.0,0.0,0.0,0.0,0.0,0.0,0.0,0.0,0.0,0.0,0.0,0.0,0.0,0.0,0.0,0.0,0.0,0.0,0.0,0.0,0.0,0.0,0.0,-1.6376,-1.5209,-1.5604,-1.6436,-1.7723,-1.7916,-1.7806,0.0,0.0,0.0,0.0,0.0,0.0,0.0,0.0,0.0,0.0,0.0,0.0,0.0,0.0,0.0,0.0,0.0,0.0,0.0,0.0,0.0,0.0,0.0,0.0,0.0,0.0,0.0,0.0,0.0,0.0,0.0,0.0,0.0,0.0,0.0,0.0,0.0,0.0,0.0,0.0,0.0,0.0,0.0,0.0,0.0,0.0,0.0,0.0,0.0,0.0,0.0,0.0,0.0,0.0,0.0,0.0,0.0,0.0,0.0,0.0,0.0,0.0,0.0,0.0,0.0,0.0,0.0,0.0,0.0,0.0,0.0,0.0,0.0,0.0,0.0,0.0,0.0,0.0,0.0,0.0,0.0,0.0,0.0,0.0,0.0,0.0,0.0,0.0,0.0,0.0,0.0,0.0,0.0,0.0,0.0,0.0,0.0,0.0,0.0,0.0,0.0,0.0,0.0,0.0,0.0,0.0,0.0,0.0,-1.5672,-1.4272,-1.5765,-1.6483,-1.6262,-1.7519,-1.7425,0.0,0.0,0.0,0.0,0.0,0.0,0.0,0.0,0.0,0.0,0.0,0.0,0.0,0.0,0.0,0.0,0.0,0.0,0.0,0.0,0.0,0.0,0.0,0.0,0.0,0.0,0.0,0.0,0.0,0.0,0.0,0.0,0.0,0.0,0.0,0.0,0.0,0.0,0.0,0.0,0.0,0.0,0.0,0.0,0.0,0.0,0.0,0.0,0.0,0.0,0.0,0.0,0.0,0.0,0.0,0.0,0.0,0.0,0.0,0.0,0.0,0.0,0.0,0.0,0.0,0.0,0.0,0.0,0.0,0.0,0.0,0.0,0.0,0.0,0.0,0.0,0.0,0.0,0.0,0.0,0.0,0.0,0.0,0.0,0.0,0.0,0.0,0.0,0.0,0.0,0.0,0.0,0.0,0.0,0.0,0.0,0.0,0.0,0.0,0.0,0.0,0.0,0.0,0.0,0.0,0.0,0.0,0.0,-1.4021,-1.3719,-1.4651,-1.5505,-1.6254,-1.7338,-1.7683,0.0,0.0,0.0,0.0,0.0,0.0,0.0,0.0,0.0,0.0,0.0,0.0,0.0,0.0,0.0,0.0,0.0,0.0,0.0,0.0,0.0,0.0,0.0,0.0,0.0,0.0,0.0,0.0,0.0,0.0,0.0,0.0,0.0,0.0,0.0,0.0,0.0,0.0,0.0,0.0,0.0,0.0,0.0,0.0,0.0,0.0,0.0,0.0,-0.974,0.0,0.0,0.0,0.0,0.0,0.0,0.0,0.0,0.0,0.0,0.0,0.0,0.0,0.0,0.0,0.0,0.0,0.0,0.0,0.0,0.0,0.0,0.0,0.0,0.0,0.0,0.0,0.0,0.0,0.0,0.0,0.0,0.0,0.0,0.0,0.0,0.0,0.0,0.0,0.0,0.0,0.0,0.0,0.0,0.0,0.0,0.0,0.0,0.0,0.0,0.0,0.0,0.0,0.0,0.0,0.0,0.0,0.0,0.0,-1.3401,-1.3212,-1.406,-1.4931,-1.579,-1.5862,-1.6424,0.0,0.0,0.0,0.0,0.0,0.0,0.0,0.0,0.0,0.0,0.0,0.0,0.0,0.0,0.0,0.0,0.0,0.0,0.0,0.0,0.0,0.0,0.0,0.0,0.0,0.0,0.0,0.0,0.0,0.0,0.0,0.0,0.0,0.0,0.0,0.0,0.0,0.0,0.0,0.0,0.0,0.0,0.0,0.0,0.0,0.0,0.0,0.0,0.0,0.0,0.0,0.0,0.0,0.0,0.0,0.0,0.0,0.0,0.0,0.0,0.0,0.0,0.0,0.0,0.0,0.0,0.0,0.0,0.0,0.0,0.0,0.0,0.0,0.0,0.0,0.0,0.0,0.0,0.0,0.0,0.0,0.0,0.0,0.0,0.0,0.0,0.0,0.0,0.0,0.0,0.0,0.0,0.0,0.0,0.0,0.0,0.0,0.0,0.0,0.0,0.0,0.0,0.0,0.0,0.0,0.0,0.0,-1.3104,-1.2985,-1.2515,-1.3444,-1.4303,-1.4947,-1.4,-1.4756,-1.7408,0.0,0.0,0.0,0.0,0.0,0.0,0.0,0.0,0.0,0.0,0.0,0.0,0.0,0.0,0.0,0.0,0.0,0.0,0.0,0.0,0.0,0.0,0.0,0.0,0.0,0.0,0.0,0.0,0.0,0.0,0.0,0.0,0.0,0.0,0.0,0.0,0.0,0.0,-0.6821,-0.7477,0.0,0.0,0.0,0.0,0.0,0.0,0.0,0.0,-0.9866,0.0,0.0,0.0,0.0,0.0,0.0,0.0,0.0,0.0,0.0,0.0,0.0,0.0,0.0,0.0,0.0,0.0,0.0,0.0,0.0,0.0,0.0,0.0,0.0,0.0,0.0,0.0,0.0,0.0,0.0,0.0,0.0,0.0,0.0,0.0,0.0,0.0,0.0,0.0,0.0,0.0,0.0,0.0,0.0,0.0,0.0,0.0,0.0,0.0,0.0,0.0,0.0,0.0,0.0,0.0,0.0,-1.1549,-1.1828,-1.1615,-1.0912,-1.1988,-1.2882,-1.3586,-1.2847,-1.4,-1.7073,0.0,0.0,0.0,0.0,0.0,0.0,0.0,0.0,0.0,0.0,0.0,0.0,0.0,0.0,0.0,0.0,0.0,0.0,0.0,0.0,0.0,0.0,0.0,0.0,0.0,0.0,0.0,0.0,0.0,0.0,0.0,0.0,0.0,0.0,0.0,0.0,0.0,0.0,0.0,-0.6924,-0.7402,0.0,0.0,0.0,0.0,0.0,0.0,0.0,0.0,-0.9667,0.0,0.0,0.0,0.0,0.0,0.0,0.0,0.0,0.0,0.0,0.0,0.0,0.0,0.0,0.0,0.0,0.0,0.0,0.0,0.0,0.0,0.0,0.0,0.0,0.0,0.0,0.0,0.0,0.0,0.0,0.0,0.0,0.0,0.0,0.0,0.0,0.0,0.0,0.0,0.0,0.0,0.0,0.0,0.0,0.0,0.0,0.0,0.0,0.0,0.0,0.0,0.0,0.0,0.0,0.0,-1.2055,-1.1263,-1.0865,-1.0944,-1.1625,-1.2323,-1.2992,-1.2353,-1.3467,0.0,0.0,0.0,0.0,0.0,0.0,0.0,0.0,0.0,0.0,0.0,0.0,0.0,0.0,0.0,0.0,0.0,0.0,0.0,0.0,0.0,0.0,0.0,0.0,0.0,0.0,0.0,0.0,0.0,0.0,0.0,0.0,0.0,0.0,0.0,0.0,0.0,0.0,0.0,0.0,-0.678,-0.7012,-0.6463,0.0,0.0,0.0,0.0,0.0,0.0,-0.962,-0.9837,0.0,0.0,0.0,0.0,0.0,0.0,0.0,0.0,0.0,0.0,0.0,0.0,0.0,0.0,0.0,0.0,0.0,0.0,0.0,0.0,0.0,0.0,0.0,0.0,0.0,0.0,0.0,0.0,0.0,0.0,0.0,0.0,0.0,0.0,0.0,0.0,0.0,0.0,0.0,0.0,0.0,0.0,0.0,0.0,0.0,0.0,0.0,0.0,0.0,0.0,0.0,0.0,0.0,0.0,0.0,-1.2558,-1.1237,-1.0666,-1.1042,-1.1542,-1.2066,-1.2576,-1.2008,-1.2975,0.0,0.0,0.0,0.0,0.0,0.0,0.0,0.0,0.0,0.0,0.0,0.0,0.0,0.0,0.0,0.0,0.0,0.0,0.0,0.0,0.0,0.0,0.0,0.0,0.0,0.0,0.0,0.0,0.0,0.0,0.0,0.0,0.0,0.0,0.0,0.0,0.0,0.0,0.0,0.0,0.0,-0.6766,-0.6594,-0.7288,0.0,0.0,0.0,0.0,-0.9306,-0.9883,0.0,0.0,0.0,0.0,0.0,0.0,0.0,0.0,0.0,0.0,0.0,0.0,0.0,0.0,0.0,0.0,0.0,0.0,0.0,0.0,0.0,0.0,0.0,0.0,0.0,0.0,0.0,0.0,0.0,0.0,0.0,0.0,0.0,0.0,0.0,0.0,0.0,0.0,0.0,0.0,0.0,0.0,0.0,0.0,0.0,0.0,0.0,0.0,0.0,0.0,0.0,0.0,0.0,0.0,0.0,0.0,-1.183,-1.2068,-1.1525,-1.0275,-1.122,-1.1835,-1.191,-1.1556,-1.2546,0.0,0.0,0.0,0.0,0.0,0.0,0.0,0.0,0.0,0.0,0.0,0.0,0.0,0.0,0.0,0.0,0.0,0.0,0.0,0.0,0.0,0.0,0.0,0.0,0.0,0.0,0.0,0.0,0.0,0.0,0.0,0.0,0.0,0.0,0.0,0.0,0.0,0.0,0.0,0.0,0.0,-0.7005,-0.7402,-0.8136,-0.8494,0.0,0.0,0.0,-0.8837,-0.9646,0.0,0.0,0.0,0.0,0.0,0.0,0.0,0.0,0.0,0.0,0.0,0.0,0.0,0.0,0.0,0.0,0.0,0.0,0.0,0.0,0.0,0.0,0.0,0.0,0.0,0.0,0.0,0.0,0.0,0.0,0.0,0.0,0.0,0.0,0.0,0.0,0.0,0.0,0.0,0.0,0.0,0.0,0.0,0.0,0.0,0.0,0.0,0.0,0.0,0.0,0.0,0.0,0.0,0.0,0.0,-1.3245,-1.2504,-1.1712,-1.0957,-1.0265,-1.0917,-1.1279,-1.1279,-1.1141,-1.2068,0.0,0.0,0.0,0.0,0.0,0.0,0.0,0.0,0.0,0.0,0.0,0.0,0.0,0.0,0.0,0.0,0.0,0.0,0.0,0.0,0.0,0.0,0.0,0.0,0.0,0.0,0.0,0.0,0.0,0.0,0.0,0.0,0.0,0.0,0.0,0.0,0.0,0.0,0.0,0.0,0.0,0.0,-0.7796,-0.8662,0.0,0.0,0.0,-1.0173,-0.9949,0.0,0.0,0.0,0.0,0.0,0.0,0.0,0.0,0.0,0.0,0.0,0.0,0.0,0.0,0.0,0.0,0.0,0.0,0.0,0.0,0.0,0.0,0.0,0.0,0.0,0.0,0.0,0.0,0.0,0.0,0.0,0.0,0.0,0.0,0.0,0.0,0.0,0.0,0.0,0.0,0.0,0.0,0.0,0.0,0.0,0.0,0.0,0.0,0.0,0.0,0.0,0.0,0.0,0.0,0.0,0.0,0.0,-1.316,-1.135,-1.0396,-1.0421,-1.0739,-1.0897,-1.0897,-1.0825,0.0,0.0,0.0,0.0,0.0,0.0,0.0,0.0,0.0,0.0,0.0,0.0,0.0,0.0,0.0,0.0,0.0,0.0,0.0,0.0,0.0,0.0,0.0,0.0,0.0,0.0,0.0,-1.1026,0.0,0.0,0.0,0.0,0.0,0.0,0.0,0.0,0.0,0.0,0.0,0.0,0.0,0.0,-0.8067,-0.8109,-0.9133,-0.9653,0.0,0.0,-1.0974,-1.0698,-1.0775,-1.0857,0.0,0.0,0.0,0.0,0.0,0.0,0.0,0.0,0.0,0.0,0.0,0.0,0.0,0.0,0.0,0.0,0.0,0.0,0.0,0.0,0.0,0.0,0.0,0.0,0.0,0.0,0.0,0.0,0.0,0.0,0.0,0.0,0.0,0.0,0.0,0.0,0.0,0.0,0.0,0.0,0.0,0.0,0.0,0.0,0.0,0.0,0.0,0.0,0.0,0.0,0.0,0.0,0.0,0.0,0.0,-1.3123,-1.135,-1.0396,-1.0396,-1.0715,-1.0897,-1.0897,-1.0605,-1.1439,0.0,0.0,0.0,0.0,0.0,0.0,0.0,0.0,0.0,0.0,0.0,0.0,0.0,0.0,0.0,0.0,0.0,0.0,0.0,0.0,0.0,0.0,0.0,0.0,0.0,0.0,0.0,0.0,0.0,0.0,0.0,0.0,0.0,0.0,0.0,0.0,0.0,0.0,0.0,0.0,0.0,-0.8472,-0.8488,-0.95,-1.0069,0.0,0.0,-1.1257,-1.0282,-1.0529,-1.0785,-1.0642,0.0,0.0,0.0,0.0,0.0,0.0,0.0,0.0,0.0,0.0,0.0,0.0,0.0,0.0,0.0,0.0,0.0,0.0,0.0,0.0,0.0,0.0,0.0,0.0,0.0,0.0,0.0,0.0,0.0,0.0,0.0,0.0,0.0,0.0,0.0,0.0,0.0,0.0,0.0,0.0,0.0,0.0,0.0,0.0,0.0,0.0,0.0,0.0,0.0,0.0,0.0,0.0,0.0,-1.321,-1.3173,-1.1165,-1.0097,-1.011,-1.0223,-1.0286,-1.0273,-1.0173,-1.08,0.0,0.0,0.0,0.0,0.0,0.0,0.0,0.0,0.0,0.0,0.0,0.0,0.0,0.0,0.0,0.0,0.0,0.0,0.0,0.0,0.0,0.0,0.0,0.0,0.0,0.0,0.0,0.0,-0.9596,-0.8968,-0.9099,0.0,0.0,0.0,0.0,0.0,0.0,0.0,0.0,0.0,0.0,-0.9684,-0.9417,-1.0004,0.0,0.0,-1.0525,-1.0906,-1.0245,-1.0314,-1.0342,-1.0132,-0.9415,0.0,0.0,0.0,0.0,0.0,0.0,0.0,0.0,0.0,0.0,0.0,0.0,0.0,0.0,0.0,0.0,0.0,0.0,0.0,0.0,0.0,0.0,0.0,0.0,0.0,0.0,0.0,0.0,0.0,0.0,0.0,0.0,0.0,0.0,0.0,0.0,0.0,0.0,0.0,0.0,0.0,0.0,0.0,0.0,0.0,0.0,0.0,0.0,0.0,0.0,0.0,0.0,-1.3396,-1.3198,-1.1169,-1.0069,-0.9918,-0.988,-0.988,-0.9905,-1.0056,-1.0684,0.0,0.0,0.0,0.0,0.0,0.0,0.0,0.0,0.0,0.0,0.0,0.0,0.0,0.0,0.0,0.0,0.0,0.0,0.0,0.0,0.0,0.0,0.0,0.0,0.0,0.0,0.0,0.0,-0.8928,-0.8258,-0.856,0.0,0.0,0.0,0.0,0.0,0.0,0.0,0.0,0.0,0.0,-0.9811,-0.946,-0.9821,-1.0198,-1.0285,-1.0454,-1.0565,-1.0511,-1.0188,-0.979,-0.9365,0.0,0.0,0.0,0.0,0.0,0.0,0.0,0.0,0.0,0.0,0.0,0.0,0.0,0.0,0.0,0.0,0.0,0.0,0.0,0.0,0.0,0.0,0.0,0.0,0.0,0.0,0.0,0.0,0.0,0.0,0.0,0.0,0.0,0.0,0.0,0.0,0.0,0.0,0.0,0.0,0.0,0.0,0.0,0.0,0.0,0.0,0.0,0.0,0.0,0.0,0.0,0.0,0.0,0.0,-1.3198,-1.1533,-1.0445,-0.9956,-0.9905,-0.9905,-0.9931,-1.0393,-1.1194,-1.2334,0.0,0.0,0.0,0.0,0.0,0.0,0.0,0.0,0.0,0.0,0.0,0.0,0.0,0.0,0.0,0.0,0.0,0.0,0.0,0.0,0.0,0.0,0.0,0.0,0.0,0.0,-1.0739,-0.9925,-0.9219,0.0,0.0,0.0,0.0,0.0,0.0,0.0,0.0,0.0,0.0,-0.8172,-0.8371,-0.8408,-0.8838,-0.967,-1.0935,-1.0612,-1.0398,-1.101,-1.0148,-0.9131,0.0,0.0,0.0,0.0,0.0,0.0,0.0,0.0,0.0,0.0,0.0,0.0,0.0,0.0,0.0,0.0,0.0,0.0,0.0,0.0,0.0,0.0,0.0,0.0,0.0,0.0,0.0,0.0,-1.6752,0.0,0.0,0.0,0.0,0.0,0.0,0.0,0.0,0.0,0.0,0.0,-1.4903,-1.4538,0.0,0.0,0.0,0.0,0.0,0.0,0.0,0.0,0.0,0.0,0.0,0.0,-1.3984,-1.3697,-1.1763,-1.0822,-1.0985,-1.0295,-1.0069,-1.0445,-1.0606,-1.1275,-1.2394,0.0,0.0,0.0,0.0,0.0,0.0,0.0,0.0,0.0,0.0,0.0,0.0,0.0,0.0,0.0,0.0,0.0,0.0,0.0,0.0,0.0,0.0,0.0,0.0,0.0,-0.9883,0.0,0.0,0.0,0.0,0.0,0.0,0.0,0.0,0.0,0.0,0.0,-0.9011,-0.8812,-0.9476,-0.9932,-0.9834,-0.9819,-1.0012,0.0,0.0,0.0,0.0,0.0,0.0,0.0,0.0,0.0,0.0,0.0,0.0,0.0,0.0,-0.767,-0.8646,-0.783,-0.6966,-0.6966,0.0,0.0,0.0,0.0,0.0,0.0,0.0,0.0,0.0,0.0,0.0,0.0,0.0,0.0,0.0,0.0,-1.659,0.0,0.0,0.0,0.0,0.0,0.0,0.0,0.0,-1.4878,-1.4525,-1.4287,-1.3935,-1.3997,0.0,-1.4714,-1.5004,0.0,0.0,0.0,0.0,0.0,0.0,0.0,0.0,-1.4198,-1.3758,-1.2153,-1.1412,-1.1538,-1.0677,-1.038,-1.0694,-1.0894,-1.137,-1.2199,-1.142,-1.1545,0.0,0.0,0.0,0.0,0.0,0.0,0.0,0.0,0.0,0.0,0.0,0.0,0.0,0.0,0.0,0.0,0.0,0.0,0.0,0.0,0.0,0.0,0.0,-0.955,0.0,0.0,0.0,0.0,0.0,0.0,0.0,0.0,0.0,-0.8804,-0.8952,-0.8997,-0.8955,-0.9424,-0.9798,-0.9829,0.0,0.0,0.0,0.0,0.0,0.0,0.0,-0.8699,-0.848,-0.8427,-0.8427,-0.8427,-0.8209,-0.83,-0.8831,0.0,0.0,-0.8705,-0.783,-0.702,-0.6966,-0.6146,-0.5694,-0.633,-0.6815,-0.7228,0.0,0.0,0.0,0.0,0.0,0.0,0.0,0.0,-1.5731,-1.6309,0.0,-1.6705,0.0,0.0,0.0,0.0,0.0,0.0,0.0,0.0,-1.44,-1.3833,-1.3273,-1.3235,-1.321,-1.3273,-1.4299,-1.4576,-1.4123,-1.4614,0.0,0.0,0.0,0.0,0.0,0.0,-1.4325,-1.3261,-1.2647,-1.2121,-1.1645,-1.1094,-1.0798,-1.0778,-1.127,-1.1591,-1.1726,-1.2042,-1.2217,-1.209,-1.2121,0.0,0.0,0.0,0.0,0.0,0.0,0.0,0.0,0.0,0.0,0.0,0.0,0.0,0.0,0.0,0.0,0.0,0.0,0.0,0.0,-1.021,0.0,0.0,0.0,0.0,0.0,0.0,0.0,0.0,0.0,0.0,-0.8804,-0.8608,-0.8383,-0.8454,0.0,0.0,0.0,0.0,-0.8781,-0.9666,-0.9256,-0.9008,-0.9666,-0.9211,-0.854,-0.7883,0.0,0.0,-0.7723,-0.8321,-0.8844,-0.9185,-0.8944,-0.8811,-0.8838,-0.8174,-0.761,-0.7563,-0.7046,-0.6796,-0.6877,-0.7331,-0.8071,-1.7684,0.0,0.0,0.0,0.0,-1.6586,-1.6417,-1.6816,-1.6439,-1.6456,-1.6697,-1.6599,0.0,0.0,0.0,0.0,0.0,0.0,-1.5982,-1.5482,-1.4928,-1.4387,-1.381,-1.3408,-1.321,-1.3223,-1.3523,-1.3609,-1.3483,-1.3622,-1.4375,-1.5668,0.0,0.0,0.0,0.0,-1.416,-1.3772,-1.2565,-1.1998,-1.2239,-1.1307,-1.1159,-1.1883,-1.1108,-1.1018,-1.1706,-1.0903,-1.0718,-1.1358,-1.1638,0.0,0.0,0.0,0.0,0.0,0.0,0.0,0.0,0.0,0.0,0.0,0.0,0.0,0.0,0.0,0.0,0.0,0.0,0.0,-1.0771,-1.0618,-1.0517,0.0,0.0,0.0,0.0,0.0,0.0,0.0,0.0,0.0,-0.8804,-0.8557,-0.8524,0.0,0.0,-0.9154,-0.9647,-0.9524,-0.946,-0.9755,0.0,0.0,0.0,-0.8956,-0.8752,-0.8533,-0.848,-0.848,-0.848,-0.8646,-0.8905,-0.913,-0.9005,-0.8891,-0.909,-0.7936,-0.6864,-0.649,-0.5918,-0.5489,-0.5512,-0.591,-0.6273,-1.7504,-1.72,-1.6954,-1.7158,-1.7557,-1.6731,-1.6471,-1.6656,-1.6309,-1.6321,-1.6497,-1.6283,-1.6308,-1.6534,-1.6534,0.0,0.0,0.0,-1.5894,-1.5341,-1.484,-1.4286,-1.3722,-1.3396,-1.321,-1.321,-1.3458,-1.3433,-1.321,-1.3446,-1.3939,-1.4703,0.0,0.0,-1.4728,-1.43,-1.3972,-1.3709,-1.261,-1.2256,-1.2743,-1.1907,-1.166,-1.2074,-1.1317,-1.1035,-1.1413,-1.0615,-1.0356,-1.0785,-1.1126,-1.1857,0.0,0.0,0.0,0.0,0.0,0.0,0.0,0.0,0.0,0.0,0.0,-1.1316,0.0,0.0,0.0,0.0,-1.0312,-1.0864,-1.1592,-1.1124,0.0,0.0,0.0,0.0,0.0,0.0,0.0,-0.8857,-0.8804,-0.8804,-0.8804,-0.8651,-0.8677,-0.9025,-0.9117,-0.927,-0.9649,0.0,-0.9413,-0.9413,-0.9061,-0.8804,-0.8804,-0.8804,-0.8804,-0.8804,-0.8804,-0.8804,-0.8804,-0.8804,-0.8911,-0.9125,-0.8951,-0.8958,-0.9426,-0.7956,-0.6421,-0.5987,-0.5331,-0.4908,-0.4918,-0.547,-0.5847,-1.7834,-1.7918,-1.8564,-1.8205,-1.7301,-1.729,-1.6697,-1.5768,-1.5797,-1.6074,-1.6429,-1.5982,-1.6045,-1.6522,-1.6534,0.0,0.0,-1.5994,-1.5545,-1.5016,-1.4462,-1.3934,-1.3336,-1.3336,-1.3298,-1.3286,-1.386,-1.3896,-1.3386,-1.3909,-1.389,-1.3366,-1.3877,-1.3828,-1.3356,-1.3815,-1.377,-1.321,-1.272,-1.272,-1.3116,-1.2676,-1.2238,-1.1828,-1.1749,-1.1513,-1.1056,-1.0972,-1.0753,-1.0361,-1.0713,-1.1601,-1.2989,0.0,0.0,0.0,0.0,0.0,0.0,0.0,0.0,0.0,0.0,0.0,0.0,0.0,0.0,0.0,-1.1065,0.0,-1.2676,-1.1592,0.0,0.0,0.0,-0.9569,-0.8956,-0.9413,-0.9569,-0.8857,0.0,0.0,0.0,0.0,-0.8804,-0.8804,-0.8804,-0.8818,-0.8838,-0.8831,-0.8804,-0.8857,-0.8804,-0.8804,-0.8804,-0.8804,-0.8804,-0.8804,-0.8804,-0.8804,-0.8804,-0.8804,-0.8925,-0.9137,-0.8944,-0.8978,-0.9552,-0.807,-0.6613,-0.6182,-0.5463,-0.4918,-0.4931,-0.5713,-0.6388,-1.8762,-1.917,-1.856,-1.7824,-1.7184,-1.727,-1.689,-1.6363,-1.6757,-1.6751,-1.6509,-1.6384,-1.6396,-1.6534,-1.6534,-1.6534,-1.6522,-1.6384,-1.6245,-1.6095,-1.5555,-1.5015,-1.45,-1.4488,-1.4299,-1.3946,-1.445,-1.4639,-1.4488,-1.4651,-1.4421,-1.3946,-1.4038,-1.3816,-1.3307,-1.3372,-1.337,-1.321,-1.272,-1.2544,-1.2685,-1.253,-1.2596,-1.2815,-1.2142,-1.1893,-1.2095,-1.1031,-1.0417,-1.0338,-1.102,-1.1711,-1.2238,-1.2576,0.0,0.0,0.0,0.0,0.0,0.0,0.0,0.0,0.0,-1.0965,-1.1316,0.0,-1.0771,0.0,-1.1616,-1.1665,-1.1325,-1.0973,0.0,0.0,-0.9909,-0.9762,-0.9562,-0.971,-0.9562,-0.8857,-0.8804,-0.8804,-0.8804,-0.8804,-0.8804,-0.8804,-0.8804,-0.8884,-0.9092,-0.8938,-0.8804,-0.8804,-0.8804,-0.8804,-0.8804,-0.8804,-0.8804,-0.8804,-0.8804,-0.8804,-0.8804,-0.8804,-0.8905,-0.9097,-0.8998,-0.9005,-0.9379,-0.8533,-0.7767,-0.7362,-0.6104,-0.4918,-0.4925,-0.5343,-0.5752,-1.9361,-1.9639,-1.9058,-1.8451,-1.7875,-1.7479,-1.7143,-1.6879,-1.716,-1.7105,-1.6837,-1.6595,-1.6534,-1.6534,-1.6534,-1.6534,-1.6534,-1.6534,-1.6384,-1.6132,-1.5844,-1.5404,-1.4916,-1.4903,-1.4752,-1.4475,-1.4765,-1.4903,-1.4903,-1.4903,-1.4646,-1.4125,-1.431,-1.4174,-1.3667,-1.363,-1.3709,-1.3961,-1.3458,-1.2962,-1.2508,-1.272,-1.3053,-1.3549,-1.2584,-1.2324,-1.2816,-1.1612,-1.0884,-1.0911,-1.1362,-1.1768,-1.2094,-1.24,-1.2686,0.0,0.0,0.0,0.0,0.0,0.0,0.0,0.0,0.0,0.0,0.0,-1.1534,0.0,0.0,0.0,-1.1316,-1.0956,-1.0517,-0.9865,-0.951,-0.9458,-0.9762,-0.951,-0.9465,-0.9666,-0.9159,-0.891,-0.9211,-0.8956,-0.8804,-0.8804,-0.8804,-0.8864,-0.8998,-0.8898,-0.8804,-0.8804,-0.8804,-0.8804,-0.8804,-0.8804,-0.8804,-0.8804,-0.8804,-0.8804,-0.8804,-0.8804,-0.8864,-0.8944,-0.8918,-0.8871,-0.903,-0.8645,-0.8134,-0.7834,-0.6978,-0.6214,-0.6174,-0.6332,-0.6535,-1.9705,-1.969,-1.9654,-1.9332,-1.8841,-1.7907,-1.7476,-1.7394,-1.7463,-1.7422,-1.7271,-1.6752,-1.6534,-1.6534,-1.6534,-1.6534,-1.6534,-1.6534,-1.6258,-1.5806,-1.5793,-1.5505,-1.5029,-1.5053,-1.5092,-1.5016,-1.5079,-1.5117,-1.5117,-1.5117,-1.4856,-1.4462,-1.4794,-1.4794,-1.445,-1.4361,-1.4488,-1.4903,-1.4437,-1.3729,-1.283,-1.321,-1.3672,-1.4124,-1.3085,-1.2787,-1.3324,-1.2225,-1.1634,-1.1756,-1.1782,-1.195,-1.2289,-1.2368,-1.2612,0.0,-1.2978,0.0,0.0,0.0,0.0,0.0,0.0,0.0,0.0,-1.1543,-1.2206,-1.2822,-1.2774,-1.2461,-1.1715,-1.1065,-1.0415,-0.9762,-0.9211,-0.9166,-0.971,-0.9361,-0.9465,-1.0568,-0.9614,-0.9106,-0.951,-0.9166,-0.8804,-0.8804,-0.8804,-0.8811,-0.8811,-0.8811,-0.8804,-0.8804,-0.8804,-0.8804,-0.8804,-0.8804,-0.8804,-0.8804,-0.8804,-0.8804,-0.8804,-0.8804,-0.8811,-0.8818,-0.8864,-0.8884,-0.8864,-0.8637,-0.8411,-0.834,-0.8165,-0.7949,-0.769,-0.7721,-0.8011,-1.9705,-1.9639,-1.9244,-1.8968,-1.8893,-1.8703,-1.8341,-1.7973,-1.8419,-1.8092,-1.7271,-1.6752,-1.6534,-1.6534,-1.6534,-1.6534,-1.6534,-1.6534,-1.6471,-1.6358,-1.6358,-1.6057,-1.558,-1.5994,-1.5982,-1.5593,-1.5994,-1.6208,-1.622,-1.622,-1.6153,-1.6056,-1.5715,-1.5715,0.0,0.0,0.0,0.0,-1.4815,-1.4664,-1.4487,-1.4525,-1.4651,-1.4714,-1.3649,0.0,-1.3764,-1.2404,-1.1721,-1.2026,-1.2546,0.0,0.0,0.0,0.0,0.0,0.0,0.0,0.0,0.0,0.0,0.0,-1.2666,-1.2403,-1.1724,-1.2246,-1.2725,-1.2881,-1.2344,-1.1724,-1.1065,-1.0364,-0.971,-0.9061,-0.9361,-0.9658,-0.9814,-1.0159,-1.0364,-1.0012,-0.9769,-0.9465,-0.9061,-0.8857,-0.8804,-0.8804,-0.8804,-0.8804,-0.8804,-0.8804,-0.8804,-0.8804,-0.8804,-0.8804,-0.8804,-0.8804,-0.8804,-0.8804,-0.8804,-0.8804,-0.8804,-0.8804,-0.8804,-0.8811,-0.8944,-0.909,-0.9097,-0.9407,-0.9675,-0.9661,-0.9852,-0.9568,-0.8037,-0.7863,-0.8027,-1.9705,0.0,-1.9406,-1.9281,0.0,-1.9295,-1.9132,-1.8855,-1.8612,-1.7907,-1.6921,-1.6595,-1.6534,-1.6534,-1.6534,-1.6534,-1.6522,-1.6795,-1.6752,-1.6509,-1.6765,-1.6599,-1.6107,-1.6384,-1.6371,-1.6107,-1.6396,-1.6534,-1.6534,-1.6534,-1.6534,-1.6509,-1.6233,-1.6245,-1.6454,-1.6233,-1.5831,-1.5318,-1.5318,-1.5141,-1.4916,-1.4903,-1.5041,-1.5266,0.0,0.0,0.0,0.0,0.0,0.0,0.0,0.0,0.0,0.0,0.0,-1.3372,-1.3065,-1.2891,-1.2891,-1.2891,-1.2891,-1.2891,-1.2891,-1.2715,-1.2353,-1.2666,-1.2891,-1.2881,-1.2559,-1.194,-1.0914,-1.0466,-0.9858,-0.9015,-0.9413,-0.9917,-1.0261,-1.0559,-1.0813,-1.0712,-1.0218,-0.9666,-0.9309,-0.9316,-0.9166,-0.891,-0.9106,-0.9166,-0.8857,-0.8804,-0.8804,-0.8804,-0.8804,-0.8804,-0.8804,-0.8804,-0.8804,-0.8804,-0.8804,-0.8804,-0.8804,-0.8804,-0.8804,-0.8824,-0.9045,-0.9143,-0.9112,-0.9606,-1.0074,-0.9987,-1.0254,-1.0312,-0.9274,-0.9225,-0.9262,-1.9705,-1.9705,-1.9705,-1.9705,-1.9705,-1.9705,-1.9639,-1.9493,0.0,0.0,0.0,-1.6667,-1.6595,-1.6509,-1.6595,-1.6637,-1.668,-1.7188,-1.7146,-1.6667,-1.7076,-1.6993,-1.6522,-1.6534,-1.6534,-1.6534,-1.6534,-1.6534,-1.6534,-1.6534,-1.6534,-1.6534,-1.6534,-1.6534,-1.6534,-1.6534,-1.6296,-1.5869,-1.5844,-1.5618,-1.523,-1.5166,-1.5379,-1.5831,-1.5235,-1.4939,-1.495,-1.4293,-1.3701,-1.3224,-1.3796,-1.4165,-1.4298,-1.4093,-1.3684,-1.3104,-1.2978,-1.2891,-1.2891,-1.2891,-1.2891,-1.2891,-1.2891,-1.2891,-1.2891,-1.2891,-1.2891,-1.2891,-1.2774,-1.2206,-1.1074,-1.0864,-1.0364,-0.9256,-0.9762,-1.0415,-1.0922,-1.1116,-1.1375,-1.1616,-1.0864,-1.0115,-1.0012,-0.9961,-0.9821,-0.9361,-0.9569,-0.9562,-0.8956,-0.8804,-0.8804,-0.8804,-0.8804,-0.8804,-0.8804,-0.8804,-0.8804,-0.8804,-0.8804,-0.8804,-0.8804,-0.8804,-0.8804,-0.8804,-0.9051,-0.9145,-0.9065,-0.9613,-1.0027,-0.9873,-1.0214,-1.0618,-1.0618,-1.0555,-1.0491,-1.9705,-1.9705,-1.9705,-1.9705,-1.9705,-1.9705,-1.9442,-1.9006,-1.8855,-1.8458,-1.7867,-1.7394,-1.6951,-1.6522,-1.6993,-1.7188,-1.7229,-1.7747,-1.7706,0.0,-1.7284,-1.7034,-1.6522,-1.6534,-1.6534,-1.6534,-1.6534,-1.6534,-1.6522,-1.6522,-1.6534,-1.6522,-1.6534,-1.6534,-1.6534,-1.6534,-1.6484,-1.6409,-1.6409,-1.6358,-1.6283,-1.6283,-1.6321,-1.6341,-1.5799,-1.5492,-1.5481,-1.488,-1.438,-1.4,-1.4846,-1.5277,-1.5143,-1.4765,-1.4283,-1.3684,-1.319,-1.2891,-1.2891,-1.2891,-1.2891,-1.2891,-1.2891,-1.2891,-1.2891,-1.2891,-1.2891,-1.2881,-1.2344,-1.1873,-1.1616,-1.1166,-1.0771,-1.0568,-1.1116,-1.1566,-1.1616,-1.2197,-1.2304,-1.1864,-1.1665,-1.1216,-1.0712,-1.0661,-1.0618,-1.0415,-1.0115,-0.9607,-0.9113,-0.8804,-0.8804,-0.8804,-0.8804,-0.8804,-0.8804,-0.8804,-0.8804,-0.8804,-0.8804,-0.8804,-0.8804,-0.8804,-0.8804,-0.8804,-0.8991,-0.9265,-0.9439,-0.984,-1.012,-1.0261,-1.051,-1.0618,-1.0618,-1.0618,-1.0618,-1.9705,-1.9705,-1.9705,-1.9705,-1.9705,-1.9705,-1.9566,-1.9332,-1.9332,-1.8855,-1.8092,-1.7867,-1.7585,-1.7394,-1.7626,-1.7706,-1.7747,-1.7973,-1.7787,-1.7312,-1.7312,-1.7047,-1.6522,-1.6534,-1.6534,-1.6534,-1.6534,-1.6637,-1.6866,-1.6637,-1.6637,-1.6909,-1.6637,-1.6534,-1.6534,-1.6534,-1.6534,-1.6534,-1.6534,-1.6534,-1.6534,-1.6534,-1.6534,-1.6534,-1.6238,-1.5908,-1.5632,-1.532,-1.505,-1.4778,-1.5306,-1.532,-1.4687,-1.4641,-1.4294,-1.3382,-1.3065,-1.2891,-1.2891,-1.2891,-1.2891,-1.2891,-1.2891,-1.2891,-1.2891,-1.2891,-1.2891,-1.2881,-1.2559,-1.2236,-1.1864,-1.1516,-1.1208,-1.0813,-1.1416,-1.1814,-1.1873,-1.2452,-1.2608,-1.1972,-1.1814,-1.1566,-1.0864,-1.1116,-1.1166,-1.0864,-1.0517,-1.021,-0.9917,-0.9865,-0.9614,-0.8962,-0.8804,-0.8804,-0.8804,-0.8804,-0.8804,-0.8804,-0.8804,-0.8804,-0.8804,-0.8804,-0.8804,-0.8824,-0.9045,-0.9137,-0.9265,-0.9719,-1.004,-1.0067,-1.0443,-1.0577,-1.0618,-1.0618,-1.0618,-2.0139,-2.0139,-2.0089,-1.9974,-1.9818,-1.9747,-1.9705,-1.9705,-1.969,-1.9244,-1.8496,-1.8341,-1.821,-1.8106,-1.8224,-1.8249,-1.8302,-1.8419,-1.8092,-1.7504,-1.7463,-1.716,-1.6577,-1.6635,-1.6647,-1.6559,-1.6764,-1.705,-1.7256,-1.6993,-1.6993,-1.7188,-1.6765,-1.6534,-1.6534,-1.6534,-1.6534,-1.6534,-1.6534,-1.6534,-1.6534,-1.6534,-1.6534,-1.6534,-1.6479,-1.6281,-1.5864,-1.5808,-1.5752,-1.5604,-1.574,-1.5386,-1.446,-1.4562,-1.4154,-1.3065,-1.2891,-1.2891,-1.2891,-1.2891,-1.2891,-1.2891,-1.2891,-1.2891,-1.2891,-1.2891,-1.2891,-1.2891,-1.2881,-1.2666,-1.2187,-1.208,-1.1859,-1.1479,-1.1769,-1.2126,-1.2249,-1.2626,-1.2725,-1.2129,-1.203,-1.1832,-1.1534,-1.1733,-1.1774,-1.1216,-1.1015,-1.1015,-1.0864,-1.0813,-1.0312,-0.9614,-0.9263,-0.9211,-0.9113,-0.9061,-0.9008,-0.8857,-0.8804,-0.8804,-0.8804,-0.8804,-0.8804,-0.8824,-0.8965,-0.9024,-0.8998,-0.9486,-0.9893,-0.9907,-1.0247,-1.0611,-1.0618,-1.0618,-1.0618,-2.1524,-2.1488,-2.1253,-2.0802,-2.027,-1.9884,-1.975,-1.9735,-1.9705,-1.9654,-1.9457,-1.9058,-1.8602,-1.8224,-1.8612,-1.8803,-1.8855,-1.9317,-1.8983,-1.808,-1.8013,-1.7463,-1.6665,-1.7061,-1.7024,-1.6716,-1.7562,-1.7794,-1.7514,-1.7774,-1.7733,-1.7271,-1.6752,-1.6547,-1.6547,-1.6547,-1.6534,-1.6534,-1.6534,-1.6534,-1.6534,-1.6534,-1.6534,-1.6534,-1.6534,-1.6479,-1.6392,-1.6423,-1.6423,-1.6411,-1.638,-1.6069,-1.5291,-1.4903,-1.4154,-1.3027,-1.2939,-1.2891,-1.2891,-1.2891,-1.29,-1.2891,-1.2891,-1.2891,-1.2891,-1.2891,-1.2891,-1.2891,-1.2891,-1.2832,-1.2774,-1.2783,-1.284,-1.2957,-1.2897,-1.2909,-1.319,-1.3056,-1.2881,-1.2822,-1.2725,-1.2774,-1.2569,-1.2666,-1.2452,-1.1823,-1.1715,-1.1575,-1.1166,-1.1023,-1.0973,-1.072,-1.061,-1.0312,-0.9917,-0.971,-0.951,-0.9008,-0.8804,-0.8857,-0.891,-0.8857,-0.8804,-0.8811,-0.8831,-0.8931,-0.909,-0.9506,-0.978,-0.9967,-1.0247,-1.0618,-1.0618,-1.0618,-1.0618,-2.2375,-2.2148,-2.2342,-2.2094,-2.1502,-2.1069,-2.0647,-2.0333,-2.0722,-2.0438,-1.9839,-2.0256,-2.0029,-1.9072,-1.9281,-1.9369,-1.9369,-1.9295,-1.9018,-1.8562,-1.8288,-1.7938,-1.7571,-1.7739,-1.7727,-1.7571,-1.8338,-1.8772,-1.8872,-1.9072,-1.8874,-1.8332,-1.7472,-1.7024,-1.7036,-1.7024,-1.6873,-1.6534,-1.6861,-1.6861,-1.6559,-1.6534,-1.6534,-1.6534,-1.6534,-1.6534,-1.6534,-1.6534,-1.6534,-1.6534,-1.6534,-1.6368,-1.6041,-1.5154,-1.4479,-1.3988,-1.3848,-1.361,-1.3292,-1.3252,-1.3252,-1.3252,-1.3018,-1.2891,-1.2891,-1.2891,-1.2891,-1.2891,-1.2891,-1.2891,-1.291,-1.3096,-1.332,-1.3457,-1.335,-1.333,-1.3467,-1.3135,-1.2891,-1.2891,-1.2891,-1.2891,-1.2891,-1.2891,-1.2774,-1.2501,-1.2442,-1.2255,-1.2049,-1.2049,-1.2049,-1.2049,-1.2049,-1.1543,-1.0669,-1.0364,-1.0218,-1.0012,-0.9614,-0.9413,-0.9361,-0.9008,-0.8811,-0.8804,-0.8857,-0.8891,-0.8931,-0.9225,-0.9512,-0.986,-1.0274,-1.0618,-1.0618,-1.0618,-1.0618,-2.3205,-2.2809,-2.2995,-2.2807,-2.2337,-2.1901,-2.1425,-2.1066,-2.15,-2.1141,-2.0393,-2.1276,-2.1171,-2.0318,-2.0243,-2.0243,-2.0191,-1.9824,-1.9577,-1.9447,-1.9124,-1.8747,-1.8482,-1.8639,-1.8614,-1.858,-1.9212,-1.986,-2.0288,-1.9988,-1.9683,-1.9231,-1.8332,-1.7771,-1.7634,-1.7644,-1.734,-1.6823,-1.7036,-1.6936,-1.6541,-1.6534,-1.6534,-1.6534,-1.6534,-1.6534,-1.6534,-1.6534,-1.6534,-1.6534,-1.6534,-1.6523,-1.649,-1.5527,-1.4789,-1.4501,-1.4302,-1.3988,-1.338,-1.333,-1.334,-1.3311,-1.3037,-1.2891,-1.29,-1.2988,-1.3057,-1.3076,-1.3154,-1.3223,-1.3096,-1.3437,-1.3711,-1.3828,-1.3779,-1.363,-1.3672,-1.3311,-1.3018,-1.291,-1.2891,-1.2891,-1.2891,-1.2891,-1.2881,-1.2881,-1.2881,-1.2891,-1.2891,-1.2832,-1.2832,-1.2891,-1.2881,-1.2353,-1.1316,-1.1065,-1.1065,-1.072,-1.032,-1.0064,-1.0012,-0.9517,-0.9316,-0.9562,-0.9263,-0.9299,-0.9678,-0.9775,-0.9946,-1.0272,-1.0615,-1.08,-1.0618,-1.0624,-1.0601,-2.4024,-2.3513,-2.293,-2.265,-2.2308,-2.1922,-2.171,-2.1665,-2.1769,-2.1665,-2.153,-2.1754,-2.1695,-2.1575,-2.159,-2.159,-2.156,-2.1461,-2.1211,-2.0822,-2.0781,-2.0145,-1.9158,-1.9608,-1.9634,-1.9423,-2.0288,-2.1052,-2.1543,-2.0543,-1.9901,-1.9899,-1.9297,-1.8754,-1.8312,-1.8202,-1.7935,-1.7339,-1.6898,-1.6584,-1.6534,-1.6534,-1.6534,-1.6534,-1.6534,-1.6534,-1.6534,-1.6534,-1.6534,-1.6534,-1.6534,-1.6523,-1.6465,-1.5929,-1.5084,-1.405,-1.3905,-1.3614,-1.3106,-1.2988,-1.2978,-1.2949,-1.2969,-1.29,-1.2969,-1.3271,-1.3518,-1.3477,-1.3818,-1.3887,-1.3674,-1.3929,-1.4258,-1.4561,-1.4326,-1.4077,-1.4048,-1.3691,-1.3311,-1.3008,-1.29,-1.2891,-1.2891,-1.2891,-1.2891,-1.2891,-1.2891,-1.2891,-1.2891,-1.2891,-1.2891,-1.2891,-1.2881,-1.2618,-1.1922,-1.1774,-1.1525,-1.1216,-1.1074,-1.0771,-1.0517,-1.0312,-1.032,-1.0269,-0.9969,-1.0051,-1.0645,-1.1038,-1.1347,-1.1539,-1.1426,-1.1399,-1.1233,-1.0814,-1.0692,-2.5598,-2.5035,-2.4141,-2.3733,-2.3613,-2.3141,-2.2697,-2.2428,-2.3236,-2.2847,-2.2069,-2.2996,-2.3116,-2.2353,-2.2742,-2.2473,-2.1739,-2.1695,-2.1828,-2.2033,-2.2061,-2.1815,-2.1479,-2.1629,-2.1615,-2.1506,-2.1829,-2.2337,-2.2768,-2.2076,-2.1678,-2.1414,-2.0324,-1.9574,-1.9261,-1.8596,-1.7956,-1.7433,-1.7162,-1.6898,-1.6559,-1.6534,-1.6534,-1.6534,-1.6534,-1.6534,-1.6534,-1.6534,-1.6534,-1.6534,-1.6534,-1.6516,-1.648,-1.6275,-1.5454,-1.4082,-1.4424,-1.4306,-1.3472,-1.3281,-1.3281,-1.3281,-1.3281,-1.3322,-1.335,-1.3652,-1.4054,-1.4479,-1.4502,-1.4641,-1.4915,-1.478,-1.4609,-1.4717,-1.4648,-1.4541,-1.4414,-1.3945,-1.3437,-1.3281,-1.3066,-1.2891,-1.29,-1.2891,-1.2891,-1.2891,-1.2891,-1.2891,-1.2891,-1.2891,-1.2891,-1.2891,-1.2881,-1.2822,-1.2608,-1.2501,-1.2353,-1.2138,-1.1891,-1.1575,-1.1316,-1.0813,-1.072,-1.0821,-1.0618,-1.0691,-1.1217,-1.1699,-1.2117,-1.237,-1.2285,-1.2258,-1.2089,-1.1944,-1.1475,-2.6124,-2.5775,-2.5098,-2.4774,-2.4732,-2.44,-2.4014,-2.3729,-2.4552,-2.4193,-2.3385,-2.4388,-2.4448,-2.3774,-2.4059,-2.3834,-2.2981,-2.2772,-2.2888,-2.3316,-2.3564,-2.3544,-2.335,-2.314,-2.3055,-2.3039,-2.2982,-2.3231,-2.3465,-2.3024,-2.2709,-2.256,-2.1416,-2.0631,-2.0218,-1.946,-1.8634,-1.7877,-1.7639,-1.7375,-1.6886,-1.6974,-1.7061,-1.7061,-1.7017,-1.6817,-1.6559,-1.6534,-1.6534,-1.6534,-1.6534,-1.6597,-1.676,-1.6785,-1.6053,-1.4675,-1.4785,-1.458,-1.3491,-1.3311,-1.3391,-1.3591,-1.3761,-1.3892,-1.4114,-1.4676,-1.5269,-1.5616,-1.5522,-1.5578,-1.579,-1.5421,-1.499,-1.5047,-1.5206,-1.5295,-1.52,-1.4899,-1.444,-1.3922,-1.356,-1.3263,-1.2969,-1.3027,-1.3018,-1.292,-1.2891,-1.2891,-1.2891,-1.2891,-1.2891,-1.2891,-1.2891,-1.2891,-1.2774,-1.2774,-1.2774,-1.2569,-1.2461,-1.2187,-1.1922,-1.1475,-1.1225,-1.1334,-1.1385,-1.1472,-1.1783,-1.2244,-1.2659,-1.2988,-1.305,-1.3086,-1.3129,-1.3383,-1.3028,-2.554,-2.5635,-2.5585,-2.5511,-2.5467,-2.542,-2.5525,-2.542,-2.5555,-2.545,-2.5166,-2.557,-2.551,-2.5465,-2.5345,-2.545,-2.5181,-2.4717,-2.4552,-2.4671,-2.5178,-2.518,-2.4664,-2.41,-2.3735,-2.3725,-2.3629,-2.3611,-2.3656,-2.3098,-2.2799,-2.274,-2.2606,-2.1862,-2.0855,-2.0644,-1.9886,-1.8703,-1.8342,-1.7983,-1.7559,-1.7907,-1.8134,-1.8091,-1.8078,-1.7601,-1.6622,-1.6584,-1.6609,-1.6572,-1.6584,-1.681,-1.7287,-1.7388,-1.6837,-1.5658,-1.5047,-1.423,-1.324,-1.3144,-1.3486,-1.3914,-1.4359,-1.4967,-1.5466,-1.6247,-1.6863,-1.693,-1.671,-1.6553,-1.6476,-1.6022,-1.5515,-1.5449,-1.5955,-1.613,-1.6146,-1.6512,-1.6295,-1.4864,-1.4165,-1.3743,-1.3232,-1.3145,-1.3213,-1.3037,-1.2969,-1.2978,-1.2988,-1.2998,-1.293,-1.2969,-1.291,-1.2891,-1.2891,-1.2891,-1.2891,-1.2881,-1.2832,-1.2666,-1.2501,-1.2147,-1.2098,-1.2107,-1.2154,-1.2222,-1.2915,-1.3403,-1.3747,-1.4026,-1.3969,-1.3916,-1.404,-1.4249,-1.4845,-2.6103,-2.6123,-2.574,-2.56,-2.56,-2.56,-2.56,-2.5674,-2.6063,-2.6033,-2.5749,-2.6078,-2.6033,-2.5674,-2.56,-2.5615,-2.563,-2.5824,-2.5974,-2.6004,-2.6198,-2.6176,-2.5897,-2.5301,-2.4769,-2.4384,-2.4328,-2.4253,-2.4179,-2.3615,-2.3334,-2.3231,-2.2889,-2.2498,-2.1993,-2.0926,-2.004,-2.0019,-1.9265,-1.8721,-1.8591,-1.8734,-1.8634,-1.8239,-1.8204,-1.784,-1.7174,-1.7112,-1.7112,-1.7099,-1.7124,-1.7375,-1.7827,-1.7953,-1.7355,-1.6315,-1.5998,-1.5349,-1.4381,-1.4467,-1.4666,-1.5059,-1.5742,-1.6247,-1.6553,-1.7111,-1.7634,-1.7989,-1.7664,-1.7413,-1.7797,-1.7357,-1.6698,-1.6208,-1.6368,-1.6768,-1.7016,-1.6785,-1.5902,-1.4825,-1.4177,-1.3729,-1.3422,-1.3371,-1.3352,-1.3371,-1.3351,-1.3281,-1.3311,-1.3281,-1.3311,-1.3301,-1.3135,-1.291,-1.2891,-1.2891,-1.2891,-1.2891,-1.2891,-1.2891,-1.2774,-1.2725,-1.2725,-1.2782,-1.2836,-1.317,-1.3898,-1.4315,-1.4514,-1.4639,-1.4514,-1.4611,-1.48,-1.5216,-1.5661,-2.7149,-2.7237,-2.737,-2.7297,-2.7165,-2.7573,-2.75,-2.7139,-2.7488,-2.7306,-2.6849,-2.6864,-2.6737,-2.6393,-2.6333,-2.6348,-2.6393,-2.6797,-2.7094,-2.724,-2.7045,-2.701,-2.6856,-2.6273,-2.563,-2.5106,-2.4986,-2.4986,-2.4971,-2.4567,-2.4223,-2.394,-2.3569,-2.3107,-2.2709,-2.1611,-2.1057,-2.0854,-2.0356,-1.9846,-1.9634,-1.9846,-1.9687,-1.8976,-1.9037,-1.9003,-1.8657,-1.8477,-1.8053,-1.7609,-1.7739,-1.8091,-1.8216,-1.8131,-1.7647,-1.6654,-1.6158,-1.5682,-1.4879,-1.5099,-1.5629,-1.5932,-1.6811,-1.7519,-1.7728,-1.8154,-1.865,-1.8939,-1.8447,-1.8178,-1.8501,-1.8015,-1.7512,-1.7346,-1.7357,-1.7633,-1.8139,-1.7647,-1.6928,-1.6165,-1.5603,-1.506,-1.462,-1.4297,-1.4023,-1.4133,-1.3748,-1.3613,-1.3633,-1.3594,-1.3564,-1.3496,-1.333,-1.3115,-1.292,-1.2891,-1.2891,-1.2891,-1.2891,-1.2891,-1.2881,-1.2842,-1.2842,-1.3105,-1.3188,-1.3594,-1.4258,-1.4531,-1.4751,-1.484,-1.4961,-1.5267,-1.5495,-1.5785,-1.6279,-2.858,-2.8839,-3.0027,-3.0084,-2.9735,-3.0777,-3.0529,-2.9648,-2.965,-2.9244,-2.8583,-2.802,-2.7705,-2.764,-2.741,-2.735,-2.753,-2.749,-2.7803,-2.8097,-2.7902,-2.7575,-2.7265,-2.6707,-2.6183,-2.5734,-2.5585,-2.56,-2.5644,-2.5465,-2.53,-2.4686,-2.4566,-2.4073,-2.3136,-2.2797,-2.2178,-2.1468,-2.1532,-2.115,-2.0335,-2.1117,-2.1151,-2.0041,-2.0416,-2.0633,-2.0395,-2.0059,-1.9172,-1.7949,-1.8586,-1.8803,-1.8417,-1.8279,-1.7793,-1.6726,-1.6059,-1.569,-1.5223,-1.5762,-1.6218,-1.6717,-1.7639,-1.842,-1.8882,-1.928,-1.9527,-1.9643,-1.9085,-1.8768,-1.8715,-1.8328,-1.8167,-1.8608,-1.862,-1.8939,-1.9579,-1.9,-1.8255,-1.7887,-1.7739,-1.7283,-1.6277,-1.592,-1.5584,-1.5133,-1.4398,-1.4188,-1.4023,-1.3975,-1.3672,-1.3555,-1.3516,-1.3213,-1.2978,-1.2891,-1.2891,-1.2891,-1.29,-1.291,-1.2959,-1.2978,-1.3047,-1.3311,-1.3691,-1.4102,-1.4434,-1.4736,-1.499,-1.5148,-1.5468,-1.5858,-1.6169,-1.6345,-1.668,-2.9574,-3.0089,-3.0448,-3.0763,-3.1063,-3.1502,-3.1406,-3.1086,-3.107,-3.0701,-3.0024,-2.9357,-2.8758,-2.8329,-2.7835,-2.756,-2.7625,-2.7655,-2.7894,-2.8431,-2.8383,-2.7689,-2.703,-2.6707,-2.6576,-2.6351,-2.5991,-2.5854,-2.6273,-2.6008,-2.5616,-2.5375,-2.5423,-2.497,-2.4177,-2.3725,-2.3283,-2.2893,-2.252,-2.2349,-2.207,-2.2186,-2.2053,-2.1376,-2.1376,-2.1267,-2.0926,-2.0753,-2.03,-1.9475,-1.9564,-1.9626,-1.9321,-1.8957,-1.8396,-1.7756,-1.7511,-1.7251,-1.6932,-1.7471,-1.7983,-1.8116,-1.8734,-1.9419,-1.9546,-1.971,-1.9798,-1.9747,-1.9579,-1.9475,-1.9475,-1.9307,-1.9307,-1.9423,-1.9423,-1.9527,-1.9633,-1.9307,-1.8732,-1.8193,-1.7772,-1.7373,-1.7048,-1.6591,-1.6247,-1.585,-1.5414,-1.5042,-1.4819,-1.4463,-1.4209,-1.3906,-1.373,-1.333,-1.3047,-1.2939,-1.2891,-1.2891,-1.291,-1.2949,-1.3047,-1.3164,-1.3291,-1.3486,-1.4062,-1.4521,-1.4746,-1.5,-1.5225,-1.5439,-1.5723,-1.6045,-1.6318,-1.6568,-1.6889,-3.0819,-3.1454,-3.1754,-3.2067,-3.253,-3.3059,-3.2943,-3.2447,-3.2414,-3.203,-3.1293,-3.0407,-2.9631,-2.8997,-2.8598,-2.8105,-2.7715,-2.8485,-2.8891,-2.8857,-2.9134,-2.8607,-2.7636,-2.7188,-2.7139,-2.7385,-2.7035,-2.7096,-2.7357,-2.7225,-2.6934,-2.6581,-2.6657,-2.6423,-2.5849,-2.545,-2.4909,-2.4453,-2.3998,-2.3555,-2.2754,-2.2965,-2.2529,-2.1993,-2.1946,-2.1949,-2.1727,-2.191,-2.1572,-2.0642,-2.034,-2.0214,-1.9847,-1.9295,-1.8769,-1.8254,-1.8204,-1.8028,-1.7965,-1.8555,-1.8883,-1.897,-1.9459,-1.9736,-1.9786,-1.9798,-1.9798,-1.9798,-1.9798,-1.9798,-1.9798,-1.9798,-1.9798,-1.9747,-1.9798,-1.9798,-1.9798,-1.956,-1.922,-1.883,-1.857,-1.8323,-1.8135,-1.7669,-1.7329,-1.6955,-1.631,-1.5896,-1.5568,-1.5153,-1.4717,-1.4365,-1.416,-1.3887,-1.3516,-1.334,-1.334,-1.3301,-1.3281,-1.3262,-1.332,-1.3477,-1.3691,-1.3965,-1.4473,-1.4863,-1.5049,-1.5234,-1.5449,-1.5674,-1.5978,-1.6302,-1.6572,-1.6875,-1.7251,-3.2278,-3.2867,-3.3542,-3.3815,-3.3989,-3.5035,-3.4693,-3.3859,-3.3776,-3.3416,-3.2599,-3.1451,-3.0663,-2.979,-2.9649,-2.904,-2.8106,-2.9593,-3.0037,-3.0122,-3.0254,-3.0028,-2.9218,-2.8409,-2.8286,-2.8528,-2.8684,-2.8573,-2.8543,-2.8949,-2.8681,-2.7951,-2.8079,-2.803,-2.7392,-2.7332,-2.6783,-2.573,-2.545,-2.4699,-2.3612,-2.357,-2.3228,-2.2577,-2.2558,-2.277,-2.2847,-2.3054,-2.282,-2.1237,-2.1097,-2.0796,-2.0279,-1.9574,-1.905,-1.8646,-1.8545,-1.8472,-1.838,-1.8832,-1.9158,-1.9233,-1.956,-1.9798,-1.9798,-1.9798,-1.9798,-1.9798,-1.9798,-1.9798,-1.9798,-1.9798,-1.9798,-1.9798,-1.9798,-1.9798,-1.9798,-1.9798,-1.9798,-1.9798,-1.9786,-1.9798,-1.9643,-1.9254,-1.8732,-1.7954,-1.7263,-1.6743,-1.6266,-1.5721,-1.5213,-1.4697,-1.458,-1.4531,-1.415,-1.3737,-1.3838,-1.3857,-1.3848,-1.3828,-1.3809,-1.3955,-1.418,-1.4482,-1.4814,-1.5078,-1.5273,-1.5469,-1.5615,-1.5811,-1.5996,-1.6504,-1.7012,-1.7275,-1.7619,-3.4076,-3.4202,-3.4955,-3.5217,-3.5211,-3.5453,-3.5431,-3.511,-3.511,-3.4697,-3.4046,-3.3286,-3.2239,-3.1086,-3.0591,-3.0117,-2.9817,-3.0466,-3.0889,-3.1892,-3.1945,-3.1945,-3.1359,-3.0447,-2.9673,-2.9671,-3.0449,-3.0069,-2.9281,-2.972,-2.964,-2.8639,-2.9032,-2.8874,-2.8399,-2.8323,-2.7572,-2.6517,-2.6305,-2.5876,-2.494,-2.4462,-2.4238,-2.3787,-2.3541,-2.3377,-2.3421,-2.3508,-2.339,-2.301,-2.2489,-2.1937,-2.1293,-2.0731,-2.0161,-1.9677,-1.953,-1.9352,-1.9018,-1.9284,-1.9623,-1.961,-1.9685,-1.9798,-1.9798,-1.9798,-1.9798,-1.9798,-1.9798,-1.9798,-1.9798,-1.9798,-1.9798,-1.9798,-1.9798,-1.9798,-1.9798,-1.9798,-1.9798,-1.9798,-1.9798,-1.9798,-1.9798,-1.9695,-1.9254,-1.8809,-1.8228,-1.7575,-1.696,-1.629,-1.5638,-1.5044,-1.4883,-1.4814,-1.459,-1.4194,-1.4199,-1.4258,-1.4233,-1.4297,-1.4287,-1.4414,-1.4629,-1.4834,-1.5059,-1.5273,-1.54,-1.543,-1.5518,-1.5781,-1.6113,-1.6641,-1.7139,-1.751,-1.7774,-3.5366,-3.5602,-3.5315,-3.5355,-3.5566,-3.5639,-3.5639,-3.5639,-3.5639,-3.5424,-3.4985,-3.4336,-3.3447,-3.2447,-3.1774,-3.1294,-3.1162,-3.1362,-3.2163,-3.309,-3.3128,-3.2911,-3.2967,-3.2536,-3.1917,-3.1157,-3.1583,-3.1239,-3.0903,-3.1177,-3.1455,-3.0475,-3.0619,-3.0681,-3.0178,-2.9839,-2.889,-2.7731,-2.7371,-2.6865,-2.5741,-2.5285,-2.4821,-2.4567,-2.3984,-2.3595,-2.3595,-2.3595,-2.3595,-2.3508,-2.329,-2.283,-2.2211,-2.162,-2.1002,-2.0527,-2.0382,-2.0054,-1.9686,-1.961,-1.9786,-1.985,-1.9798,-1.9798,-1.9798,-1.9798,-1.9798,-1.9798,-1.9798,-1.9798,-1.9798,-1.9798,-1.9798,-1.9798,-1.9798,-1.9798,-1.9798,-1.9798,-1.9798,-1.9798,-1.9798,-1.9798,-1.9798,-1.9798,-1.9747,-1.9242,-1.8703,-1.812,-1.7357,-1.669,-1.5981,-1.5472,-1.5194,-1.5049,-1.4912,-1.4717,-1.4541,-1.458,-1.4574,-1.4639,-1.4639,-1.4834,-1.5068,-1.5186,-1.5264,-1.5312,-1.542,-1.542,-1.5566,-1.5977,-1.6387,-1.6816,-1.7246,-1.7695,-1.791,-3.6317,-3.6721,-3.5438,-3.5215,-3.5577,-3.5639,-3.5639,-3.5639,-3.5639,-3.5577,-3.5515,-3.5005,-3.4333,-3.368,-3.311,-3.2498,-3.238,-3.28,-3.3729,-3.4391,-3.4115,-3.3929,-3.392,-3.4095,-3.3963,-3.3056,-3.311,-3.2854,-3.2602,-3.3115,-3.2823,-3.2514,-3.2454,-3.2092,-3.2046,-3.1776,-3.0468,-2.8753,-2.8626,-2.7854,-2.6331,-2.5869,-2.542,-2.4627,-2.4193,-2.3744,-2.3655,-2.3595,-2.3595,-2.3595,-2.3595,-2.3334,-2.286,-2.2331,-2.171,-2.1161,-2.1046,-2.0726,-2.0317,-2.0105,-2.0042,-2.0042,-2.0003,-2.0003,-2.0003,-1.9926,-1.9899,-1.9962,-1.9999,-1.9949,-1.9823,-1.9798,-1.9798,-1.9798,-1.9798,-1.9798,-1.9798,-1.9798,-1.9798,-1.9798,-1.9798,-1.9798,-1.9798,-1.9798,-1.9798,-1.9695,-1.915,-1.8608,-1.7841,-1.7291,-1.669,-1.6296,-1.6167,-1.5816,-1.5582,-1.5078,-1.4968,-1.4949,-1.4951,-1.4971,-1.498,-1.5107,-1.5264,-1.5332,-1.5391,-1.542,-1.542,-1.542,-1.5684,-1.6172,-1.6553,-1.6875,-1.7353,-1.7881,-1.8018,-3.7253,-3.6772,-3.6527,-3.6122,-3.5628,-3.5639,-3.5639,-3.5639,-3.5639,-3.5639,-3.5577,-3.5453,-3.5004,-3.4438,-3.4236,-3.4046,-3.3907,-3.4393,-3.5015,-3.5334,-3.5131,-3.5064,-3.5081,-3.5148,-3.5144,-3.5194,-3.4841,-3.4074,-3.3278,-3.3611,-3.3755,-3.2929,-3.3017,-3.2983,-3.2713,-3.2553,-3.1539,-2.9633,-2.9553,-2.8842,-2.7425,-2.6527,-2.5869,-2.4911,-2.4537,-2.4133,-2.3714,-2.3625,-2.3595,-2.3595,-2.3595,-2.3508,-2.3363,-2.3231,-2.286,-2.2253,-2.1724,-2.1328,-2.1135,-2.0818,-2.0966,-2.1099,-2.0868,-2.061,-2.0459,-2.0118,-2.0013,-2.0263,-2.0404,-2.0288,-1.9849,-1.9798,-1.9798,-1.9798,-1.9798,-1.9798,-1.9798,-1.9798,-1.9798,-1.9798,-1.9798,-1.9798,-1.9798,-1.9798,-1.9798,-1.9798,-1.9579,-1.9044,-1.8382,-1.8124,-1.7884,-1.7556,-1.7335,-1.6834,-1.643,-1.5783,-1.5369,-1.533,-1.5359,-1.5293,-1.5312,-1.5342,-1.542,-1.5527,-1.5488,-1.542,-1.542,-1.5439,-1.5791,-1.6279,-1.6602,-1.6914,-1.7422,-1.792,-1.8047,-3.7466,-3.6755,-3.6349,-3.5977,-3.5656,-3.5639,-3.5639,-3.5639,-3.5639,-3.5639,-3.5639,-3.5605,-3.5436,-3.5047,-3.4607,-3.4489,-3.4692,-3.5284,-3.5605,-3.5639,-3.5639,-3.5639,-3.5639,-3.5639,-3.5639,-3.556,-3.5509,-3.5183,-3.4253,-3.4745,-3.4617,-3.4292,-3.4115,-3.3761,-3.3355,-3.2964,-3.1907,-3.0376,-2.9958,-2.9275,-2.7725,-2.6995,-2.6183,-2.5734,-2.4971,-2.4418,-2.4178,-2.3714,-2.361,-2.3595,-2.3595,-2.3595,-2.3595,-2.3551,-2.3334,-2.274,-2.21,-2.1697,-2.1615,-2.1148,-2.1064,-2.152,-2.1161,-2.0845,-2.066,-2.0283,-2.0026,-2.0125,-2.0213,-2.0125,-1.9823,-1.9798,-1.9798,-1.9798,-1.9798,-1.9798,-1.9798,-1.9798,-1.9798,-1.9798,-1.9798,-1.9798,-1.9798,-1.9798,-1.9798,-1.9798,-1.9798,-1.9411,-1.8821,-1.8715,-1.862,-1.8178,-1.7852,-1.7523,-1.7034,-1.6472,-1.6026,-1.5911,-1.573,-1.5663,-1.5635,-1.5645,-1.5733,-1.5791,-1.5684,-1.5508,-1.5527,-1.5605,-1.5996,-1.6406,-1.6816,-1.7217,-1.7578,-1.7881,-1.8037,-3.733,-3.6705,-3.5943,-3.5639,-3.5639,-3.5639,-3.5639,-3.5639,-3.5639,-3.5639,-3.5639,-3.5622,-3.5622,-3.547,-3.5081,-3.4759,-3.4776,-3.5554,-3.5808,-3.569,-3.5859,-3.5859,-3.5673,-3.5791,-3.5842,-3.5656,-3.5926,-3.5757,-3.538,-3.5459,-3.5588,-3.529,-3.4895,-3.4486,-3.4057,-3.3662,-3.2142,-3.0972,-3.0371,-2.9381,-2.8054,-2.741,-2.6919,-2.6669,-2.5633,-2.5078,-2.4537,-2.4148,-2.3774,-2.3655,-2.3595,-2.3595,-2.3595,-2.3595,-2.3377,-2.2875,-2.2253,-2.2053,-2.1993,-2.1629,-2.1629,-2.2225,-2.139,-2.1077,-2.0861,-2.0513,-1.9999,-1.9861,-1.9999,-1.9974,-1.9861,-1.9798,-1.9798,-1.9798,-1.9798,-1.9798,-1.9798,-1.9798,-1.9798,-1.9798,-1.9798,-1.9798,-1.9798,-1.9798,-1.9798,-1.9798,-1.9798,-1.9683,-1.9254,-1.915,-1.8939,-1.8501,-1.8178,-1.8015,-1.7633,-1.7191,-1.6856,-1.6698,-1.6306,-1.6042,-1.5959,-1.596,-1.6018,-1.6066,-1.584,-1.5703,-1.5732,-1.5898,-1.6338,-1.6768,-1.7139,-1.7471,-1.7773,-1.7891,-1.8027,-3.6857,-3.6721,-3.5943,-3.5639,-3.5639,-3.5639,-3.5639,-3.5622,-3.5588,-3.5639,-3.5622,-3.5605,-3.5571,-3.5571,-3.5537,-3.5453,-3.5656,-3.6011,-3.6096,-3.5757,-3.6113,-3.6096,-3.5808,-3.6383,-3.6028,-3.5774,-3.6214,-3.618,-3.5791,-3.5639,-3.5639,-3.5554,-3.5408,-3.4942,-3.4014,-3.4334,-3.3868,-3.19,-3.1765,-3.0794,-2.8888,-2.8732,-2.8062,-2.7206,-2.6732,-2.6291,-2.5108,-2.4657,-2.4298,-2.3729,-2.3655,-2.3625,-2.3595,-2.3595,-2.3595,-2.3363,-2.3039,-2.2815,-2.3039,-2.2589,-2.2498,-2.2741,-2.2179,-2.1697,-2.1242,-2.0836,-2.0341,-1.9849,-2.0227,-2.0225,-1.9886,-1.9811,-1.9798,-1.9798,-1.9798,-1.9798,-1.9798,-1.9798,-1.9798,-1.9798,-1.9798,-1.9798,-1.9798,-1.9798,-1.9798,-1.9798,-1.9798,-1.9695,-1.9631,-1.9475,-1.9423,-1.9044,-1.8768,-1.8608,-1.8394,-1.7895,-1.7734,-1.7601,-1.7151,-1.6659,-1.6726,-1.6698,-1.6296,-1.6264,-1.6086,-1.6084,-1.625,-1.6484,-1.6787,-1.7119,-1.75,-1.7725,-1.792,-1.7979,-1.8066,-3.6129,-3.6079,-3.574,-3.5639,-3.5639,-3.5639,-3.5639,-3.5537,-3.5165,-3.5233,-3.547,-3.5131,-3.5199,-3.5554,-3.5639,-3.5622,-3.5707,-3.6028,-3.596,-3.5723,-3.596,-3.5977,-3.5757,-3.5926,-3.5842,-3.5842,-3.5893,-3.591,-3.5673,-3.5639,-3.5639,-3.5639,-3.5577,-3.5136,-3.4159,-3.4712,-3.3529,-3.1965,-3.0967,-3.0183,-2.9369,-2.9194,-2.9021,-2.8186,-2.7767,-2.7041,-2.6321,-2.5439,-2.4972,-2.4447,-2.4297,-2.3969,-2.3714,-2.3595,-2.3595,-2.3595,-2.3377,-2.3319,-2.3465,-2.3024,-2.3157,-2.3143,-2.2469,-2.1568,-2.1233,-2.0978,-2.073,-2.041,-2.0206,-2.0076,-1.9938,-1.9811,-1.9798,-1.9798,-1.985,-1.9798,-1.9798,-1.9798,-1.9798,-1.9798,-1.9798,-1.9798,-1.9823,-1.9899,-1.9911,-1.9924,-1.9886,-1.9797,-1.9772,-1.9695,-1.9695,-1.9695,-1.9475,-1.9319,-1.9097,-1.8727,-1.8686,-1.8536,-1.8205,-1.7817,-1.7777,-1.7585,-1.7133,-1.674,-1.6572,-1.667,-1.6797,-1.6855,-1.6953,-1.7373,-1.7852,-1.793,-1.7988,-1.8057,-1.8193,-3.5639,-3.5639,-3.5639,-3.5639,-3.5639,-3.5639,-3.5487,-3.525,-3.4759,-3.4827,-3.5131,-3.4979,-3.5148,-3.5504,-3.5639,-3.5639,-3.5639,-3.5808,-3.574,-3.5723,-3.5791,-3.5842,-3.5808,-3.5791,-3.5893,-3.5639,-3.6011,-3.5876,-3.569,-3.5639,-3.5639,-3.5639,-3.5639,-3.5174,-3.483,-3.4714,-3.4024,-3.2302,-3.1067,-3.0266,-2.9766,-2.9805,-2.9673,-2.917,-2.8553,-2.7857,-2.7349,-2.6455,-2.5661,-2.4987,-2.4687,-2.4253,-2.3744,-2.3595,-2.3595,-2.3595,-2.3508,-2.3508,-2.3508,-2.329,-2.3246,-2.3127,-2.2869,-2.2055,-2.1277,-2.1055,-2.1082,-2.1068,-2.0746,-2.0372,-2.0105,-2.0105,-2.0003,-2.0003,-2.0003,-1.9901,-1.9914,-2.0105,-1.999,-1.9798,-1.9798,-1.9798,-1.9861,-1.9987,-2.0037,-2.0037,-1.9999,-1.9962,-1.9924,-1.9924,-1.9886,-1.9899,-1.9822,-1.9718,-1.9602,-1.9413,-1.9468,-1.955,-1.9226,-1.9113,-1.9116,-1.8562,-1.7905,-1.7557,-1.7308,-1.7021,-1.7012,-1.7031,-1.71,-1.7568,-1.7939,-1.7969,-1.8027,-1.8037,-1.8329,-3.5639,-3.5639,-3.5605,-3.5605,-3.5639,-3.5639,-3.5233,-3.4776,-3.4539,-3.4472,-3.4641,-3.5182,-3.5487,-3.5622,-3.5639,-3.5639,-3.5656,-3.6366,-3.6113,-3.6011,-3.6231,-3.6079,-3.596,-3.6028,-3.6214,-3.5825,-3.6028,-3.5994,-3.5774,-3.5639,-3.5639,-3.5639,-3.5639,-3.5207,-3.4891,-3.4758,-3.4399,-3.3028,-3.2077,-3.1149,-3.0684,-3.0518,-3.0477,-2.9673,-2.9249,-2.877,-2.7611,-2.6896,-2.6219,-2.5364,-2.4927,-2.4328,-2.3774,-2.3625,-2.3595,-2.3595,-2.3595,-2.3595,-2.3508,-2.3508,-2.3508,-2.3526,-2.3343,-2.281,-2.1807,-2.2255,-2.2193,-2.1678,-2.1328,-2.1135,-2.0868,-2.0696,-2.0484,-2.0434,-2.051,-2.0601,-2.0627,-2.0615,-2.0488,-1.999,-1.9911,-2.0112,-2.03,-2.0526,-2.0413,-2.0413,-2.0564,-2.0539,-2.0288,-2.0225,-2.0087,-2.0037,-1.9987,-1.9922,-1.9947,-2.0026,-2.039,-2.0545,-2.0402,-2.0486,-2.0602,-1.9845,-1.9113,-1.8499,-1.8209,-1.7676,-1.7256,-1.7344,-1.7576,-1.7812,-1.8018,-1.8047,-1.8232,-1.8348,-1.8589,-3.4945,-3.4928,-3.4928,-3.5182,-3.5639,-3.5639,-3.5453,-3.5047,-3.4235,-3.3829,-3.3914,-3.503,-3.5639,-3.5639,-3.5639,-3.5639,-3.5673,-3.5893,-3.5825,-3.5791,-3.5859,-3.5859,-3.5808,-3.5859,-3.5893,-3.574,-3.596,-3.5994,-3.5673,-3.5639,-3.5639,-3.5639,-3.5639,-3.5207,-3.4922,-3.4492,-3.3935,-3.3499,-3.2662,-3.178,-3.1167,-3.0998,-3.0975,-3.0617,-2.9585,-2.9249,-2.8572,-2.7695,-2.7094,-2.6471,-2.5696,-2.4747,-2.3904,-2.3711,-2.3681,-2.3638,-2.3638,-2.3638,-2.3595,-2.3551,-2.3421,-2.3185,-2.3291,-2.3216,-2.2399,-2.2594,-2.2552,-2.2244,-2.1979,-2.171,-2.1472,-2.1328,-2.1232,-2.1135,-2.118,-2.1377,-2.1425,-2.1469,-2.1323,-2.094,-2.0818,-2.0803,-2.0991,-2.1179,-2.0978,-2.0857,-2.1046,-2.1079,-2.0803,-2.0639,-2.0564,-2.0539,-2.0526,-2.0589,-2.0639,-2.0941,-2.128,-2.1419,-2.1497,-2.1577,-2.1596,-2.1471,-2.07,-1.9993,-1.9124,-1.8616,-1.8233,-1.7992,-1.7909,-1.7969,-1.8066,-1.8135,-1.8309,-1.8601,-1.8889,-3.4167,-3.4167,-3.4167,-3.4607,-3.5267,-3.5537,-3.547,-3.5081,-3.3964,-3.3389,-3.3508,-3.4928,-3.5639,-3.5639,-3.5639,-3.5639,-3.5639,-3.5673,-3.5656,-3.5656,-3.5656,-3.5639,-3.5639,-3.5656,-3.5707,-3.5639,-3.5639,-3.5639,-3.5639,-3.5639,-3.5639,-3.5639,-3.5577,-3.5253,-3.4881,-3.3964,-3.3445,-3.3212,-3.2425,-3.1799,-3.1207,-3.119,-3.1015,-3.0838,-3.0038,-2.9569,-2.9191,-2.8529,-2.7953,-2.7364,-2.6561,-2.5461,-2.4637,-2.4074,-2.3991,-2.3921,-2.3837,-2.3794,-2.3638,-2.3551,-2.3421,-2.3231,-2.3608,-2.3518,-2.3117,-2.304,-2.3313,-2.2917,-2.2515,-2.2193,-2.2128,-2.2007,-2.1758,-2.1582,-2.2213,-2.247,-2.2525,-2.2528,-2.2275,-2.2034,-2.1836,-2.1613,-2.1473,-2.1625,-2.1781,-2.1562,-2.1606,-2.1581,-2.1255,-2.1167,-2.1217,-2.1217,-2.123,-2.133,-2.1455,-2.1644,-2.1807,-2.197,-2.2072,-2.229,-2.2311,-2.2224,-2.1877,-2.1009,-2.0222,-1.9541,-1.8936,-1.8352,-1.8123,-1.7998,-1.8076,-1.8164,-1.8516,-1.8747,-1.9054,-3.3423,-3.344,-3.3423,-3.3846,-3.4573,-3.5318,-3.5233,-3.4726,-3.3947,-3.3558,-3.3711,-3.5013,-3.5639,-3.5639,-3.5639,-3.5639,-3.5639,-3.5639,-3.5639,-3.5639,-3.5639,-3.5639,-3.5639,-3.5639,-3.5639,-3.5639,-3.5639,-3.5639,-3.5639,-3.5639,-3.5639,-3.5639,-3.5577,-3.556,-3.5425,-3.4158,-3.3465,-3.3237,-3.2087,-3.163,-3.136,-3.1275,-3.0958,-3.0658,-3.0309,-2.9908,-2.9585,-2.9051,-2.85,-2.7933,-2.7211,-2.6224,-2.5354,-2.5013,-2.4792,-2.443,-2.4348,-2.4116,-2.3681,-2.3595,-2.3508,-2.3509,-2.3851,-2.3896,-2.3791,-2.3926,-2.4102,-2.3629,-2.357,-2.3289,-2.3036,-2.2764,-2.2559,-2.2668,-2.3363,-2.3774,-2.382,-2.3688,-2.3502,-2.3357,-2.2871,-2.2428,-2.2142,-2.2034,-2.2369,-2.2375,-2.2342,-2.2108,-2.1794,-2.1794,-2.1907,-2.1945,-2.197,-2.197,-2.2058,-2.2184,-2.2334,-2.2472,-2.2577,-2.272,-2.2676,-2.2482,-2.2125,-2.1753,-2.1049,-2.0204,-1.9365,-1.8586,-1.8337,-1.8018,-1.8086,-1.8232,-1.8594,-1.8942,-1.9306,-3.2662,-3.2662,-3.2662,-3.3102,-3.3829,-3.4556,-3.4962,-3.5182,-3.4962,-3.459,-3.4387,-3.5233,-3.5622,-3.5639,-3.5588,-3.5571,-3.5588,-3.5639,-3.5639,-3.5639,-3.5639,-3.5639,-3.5639,-3.5639,-3.5639,-3.5639,-3.5639,-3.5639,-3.5639,-3.5639,-3.5639,-3.5639,-3.5639,-3.5639,-3.5554,-3.4962,-3.4709,-3.4083,-3.3186,-3.2459,-3.1918,-3.1478,-3.1072,-3.0838,-3.0477,-3.0208,-2.9903,-2.935,-2.8753,-2.8354,-2.7632,-2.6598,-2.6031,-2.5805,-2.5198,-2.4831,-2.4672,-2.4158,-2.3752,-2.3595,-2.3595,-2.3699,-2.3789,-2.3909,-2.3684,-2.4238,-2.4313,-2.4388,-2.4507,-2.4446,-2.468,-2.4619,-2.4523,-2.4584,-2.4988,-2.5269,-2.5375,-2.5091,-2.4895,-2.4859,-2.4535,-2.4272,-2.3968,-2.3258,-2.3269,-2.3109,-2.2934,-2.2808,-2.2535,-2.2611,-2.2723,-2.2723,-2.2723,-2.2661,-2.2661,-2.2648,-2.2686,-2.2786,-2.2887,-2.2965,-2.2871,-2.2689,-2.2689,-2.2433,-2.1678,-2.0846,-1.9759,-1.8787,-1.8269,-1.8027,-1.8242,-1.8506,-1.8906,-1.9365,-1.9844,-3.1901,-3.1901,-3.1901,-3.2493,-3.344,-3.4184,-3.4793,-3.5182,-3.5216,-3.4928,-3.4726,-3.5267,-3.5436,-3.5301,-3.5233,-3.5233,-3.5233,-3.5233,-3.5537,-3.5571,-3.5639,-3.5639,-3.5639,-3.5639,-3.5639,-3.5639,-3.5639,-3.5639,-3.5639,-3.5639,-3.5639,-3.5639,-3.5622,-3.5639,-3.552,-3.525,-3.4878,-3.4167,-3.3406,-3.2594,-3.2121,-3.1664,-3.1072,-3.0878,-3.0658,-3.0535,-3.0095,-2.9543,-2.8854,-2.8549,-2.781,-2.6875,-2.6796,-2.6365,-2.574,-2.5461,-2.4605,-2.4094,-2.3681,-2.3595,-2.3595,-2.361,-2.3595,-2.3595,-2.3625,-2.3969,-2.4343,-2.4567,-2.5151,-2.5405,-2.56,-2.5644,-2.5719,-2.5657,-2.5911,-2.618,-2.6247,-2.6,-2.601,-2.5992,-2.5854,-2.5737,-2.5439,-2.4896,-2.4319,-2.3923,-2.3564,-2.3352,-2.3125,-2.3125,-2.3125,-2.3113,-2.3027,-2.2962,-2.2924,-2.2987,-2.3037,-2.3113,-2.3138,-2.3138,-2.3065,-2.2944,-2.3065,-2.2944,-2.1803,-2.073,-1.9759,-1.8988,-1.859,-1.8498,-1.8623,-1.8926,-1.9248,-1.9648,-2.0098,-3.119,-3.119,-3.119,-3.2053,-3.3339,-3.3981,-3.4387,-3.4523,-3.4523,-3.4523,-3.4539,-3.5233,-3.5182,-3.4624,-3.4506,-3.4472,-3.4556,-3.4539,-3.4962,-3.5402,-3.5554,-3.5588,-3.5639,-3.5639,-3.5639,-3.5639,-3.5639,-3.5639,-3.5622,-3.5402,-3.5419,-3.5487,-3.5385,-3.5385,-3.5216,-3.4962,-3.4624,-3.4201,-3.3423,-3.2696,-3.2205,-3.1596,-3.1083,-3.0838,-3.0838,-3.0697,-3.0332,-2.9832,-2.913,-2.8555,-2.7816,-2.7855,-2.7672,-2.7165,-2.668,-2.5837,-2.4513,-2.397,-2.3595,-2.3595,-2.3595,-2.3595,-2.3595,-2.3595,-2.3789,-2.4073,-2.4582,-2.4986,-2.5435,-2.5585,-2.5719,-2.5839,-2.5944,-2.6138,-2.6408,-2.6602,-2.6767,-2.6792,-2.6901,-2.6842,-2.662,-2.639,-2.5986,-2.5494,-2.5119,-2.461,-2.415,-2.359,-2.3365,-2.3125,-2.3125,-2.3125,-2.3113,-2.3125,-2.3125,-2.3125,-2.3125,-2.3125,-2.315,-2.315,-2.3138,-2.3201,-2.3251,-2.2813,-2.1651,-2.0666,-1.9944,-1.9372,-1.9028,-1.9012,-1.8889,-1.918,-1.9463,-1.9795,-2.0109,-3.119,-3.119,-3.119,-3.1749,-3.256,-3.2848,-3.3491,-3.4404,-3.4489,-3.4472,-3.4506,-3.4709,-3.4658,-3.4472,-3.3964,-3.3778,-3.3914,-3.4218,-3.4556,-3.4945,-3.5419,-3.5571,-3.5622,-3.5605,-3.5622,-3.5605,-3.5605,-3.5588,-3.5436,-3.5182,-3.481,-3.4793,-3.481,-3.4827,-3.4742,-3.4573,-3.4455,-3.4117,-3.3288,-3.2763,-3.2188,-3.1562,-3.1133,-3.1015,-3.1055,-3.0813,-3.0275,-2.9656,-2.8958,-2.8298,-2.7435,-2.7148,-2.7012,-2.6793,-2.6445,-2.5522,-2.463,-2.4032,-2.3681,-2.3595,-2.3638,-2.3653,-2.3683,-2.3939,-2.4238,-2.4672,-2.5197,-2.5633,-2.6036,-2.6288,-2.6512,-2.6617,-2.6647,-2.6797,-2.6991,-2.7051,-2.7186,-2.7225,-2.7306,-2.7255,-2.7086,-2.6982,-2.6587,-2.6308,-2.5932,-2.5329,-2.4667,-2.393,-2.3471,-2.3245,-2.3125,-2.3125,-2.3125,-2.3125,-2.3125,-2.3125,-2.3125,-2.3138,-2.315,-2.3238,-2.3401,-2.3464,-2.3452,-2.28,-2.1659,-2.0944,-2.0333,-1.9768,-1.9132,-1.8964,-1.8926,-1.9307,-1.9678,-2.0,-2.0177,-3.1432,-3.1449,-3.1449,-3.1776,-3.2246,-3.2313,-3.2848,-3.3592,-3.3931,-3.4066,-3.41,-3.437,-3.4167,-3.3525,-3.3136,-3.2966,-3.3017,-3.3677,-3.4184,-3.4726,-3.5199,-3.525,-3.5334,-3.5419,-3.5385,-3.5385,-3.5402,-3.5419,-3.5115,-3.4506,-3.4066,-3.4066,-3.4066,-3.4066,-3.4049,-3.3981,-3.3795,-3.3508,-3.3085,-3.2713,-3.2171,-3.1562,-3.1292,-3.119,-3.119,-3.0768,-3.0125,-2.9381,-2.874,-2.8046,-2.7131,-2.6911,-2.6961,-2.6975,-2.6516,-2.5697,-2.5059,-2.4657,-2.4333,-2.4074,-2.3948,-2.3955,-2.4008,-2.455,-2.4837,-2.5228,-2.5894,-2.6532,-2.6868,-2.7186,-2.738,-2.7545,-2.753,-2.753,-2.753,-2.753,-2.7545,-2.7545,-2.756,-2.756,-2.756,-2.7509,-2.7342,-2.7071,-2.6481,-2.5494,-2.4496,-2.3708,-2.3365,-2.3185,-2.3125,-2.3125,-2.3125,-2.3125,-2.3125,-2.3125,-2.3125,-2.3125,-2.3138,-2.3276,-2.3565,-2.3355,-2.3046,-2.2492,-2.1706,-2.0862,-1.9879,-1.9649,-1.9178,-1.9053,-1.9023,-1.9394,-1.9785,-2.0176,-2.0391,-3.1737,-3.1771,-3.1752,-3.1867,-3.2178,-3.2138,-3.2188,-3.233,-3.3017,-3.3322,-3.344,-3.3981,-3.3491,-3.2737,-3.2324,-3.2205,-3.2408,-3.2966,-3.3541,-3.432,-3.4776,-3.4888,-3.4856,-3.5047,-3.4982,-3.4905,-3.503,-3.5301,-3.4489,-3.3812,-3.3322,-3.3322,-3.3322,-3.3322,-3.3305,-3.3305,-3.3102,-3.273,-3.2425,-3.2087,-3.1968,-3.1562,-3.119,-3.119,-3.1106,-3.0852,-3.0142,-2.9397,-2.8619,-2.7858,-2.7283,-2.7097,-2.7161,-2.7081,-2.6478,-2.6045,-2.5406,-2.5105,-2.4855,-2.4632,-2.4511,-2.4524,-2.4658,-2.5469,-2.5951,-2.5713,-2.6287,-2.713,-2.7519,-2.742,-2.7535,-2.756,-2.756,-2.756,-2.756,-2.756,-2.756,-2.756,-2.756,-2.756,-2.756,-2.756,-2.7509,-2.7188,-2.6587,-2.5494,-2.4724,-2.3872,-2.3245,-2.3125,-2.3125,-2.3125,-2.3125,-2.3125,-2.3125,-2.3125,-2.3125,-2.3125,-2.3175,-2.3326,-2.3615,-2.3219,-2.2592,-2.2147,-2.1647,-2.0248,-1.9299,-1.9187,-1.9194,-1.9053,-1.9131,-1.9473,-1.9873,-2.0293,-2.0469,-3.1252,-3.1752,-3.147,-3.1409,-3.1484,-3.1461,-3.1478,-3.1529,-3.2239,-3.2584,-3.2635,-3.2754,-3.2703,-3.2303,-3.1777,-3.1625,-3.1698,-3.2341,-3.2611,-3.3136,-3.3761,-3.4236,-3.4206,-3.4465,-3.4449,-3.4626,-3.4866,-3.4979,-3.4167,-3.3254,-3.256,-3.256,-3.256,-3.2544,-3.256,-3.256,-3.2374,-3.2104,-3.1799,-3.1596,-3.1495,-3.141,-3.119,-3.119,-3.1123,-3.0801,-3.0142,-2.9431,-2.8636,-2.7841,-2.7097,-2.6877,-2.6894,-2.6545,-2.6231,-2.5921,-2.5615,-2.5443,-2.541,-2.531,-2.5226,-2.5346,-2.5638,-2.6599,-2.6962,-2.6443,-2.6572,-2.745,-2.7847,-2.7674,-2.7565,-2.7545,-2.756,-2.756,-2.756,-2.756,-2.756,-2.756,-2.756,-2.756,-2.756,-2.756,-2.7524,-2.7086,-2.6481,-2.5932,-2.5439,-2.4654,-2.3577,-2.3185,-2.3125,-2.3125,-2.3125,-2.3125,-2.3138,-2.3251,-2.3326,-2.3326,-2.3364,-2.3514,-2.3703,-2.3195,-2.264,-2.2135,-2.1439,-2.0333,-1.9497,-1.9243,-1.9209,-1.9104,-1.915,-1.9453,-1.9932,-2.0371,-2.0488,-3.1149,-3.1516,-3.1329,-3.119,-3.119,-3.119,-3.119,-3.1258,-3.163,-3.1941,-3.2149,-3.2393,-3.2427,-3.2154,-3.1641,-3.1329,-3.1387,-3.1968,-3.2307,-3.2544,-3.2855,-3.3209,-3.3564,-3.376,-3.3539,-3.368,-3.3794,-3.3711,-3.344,-3.2544,-3.1816,-3.1873,-3.1856,-3.1873,-3.1873,-3.1799,-3.1833,-3.1749,-3.136,-3.1241,-3.119,-3.119,-3.119,-3.119,-3.1089,-3.0768,-3.0277,-2.9634,-2.9127,-2.8366,-2.7655,-2.7317,-2.7164,-2.6756,-2.6434,-2.6297,-2.6137,-2.6003,-2.6143,-2.6178,-2.6178,-2.6471,-2.6487,-2.7324,-2.8192,-2.7778,-2.7734,-2.8388,-2.7841,-2.758,-2.7595,-2.756,-2.756,-2.756,-2.756,-2.756,-2.756,-2.756,-2.756,-2.756,-2.756,-2.756,-2.7408,-2.6982,-2.6443,-2.6108,-2.5673,-2.4951,-2.3989,-2.3185,-2.3125,-2.3125,-2.3125,-2.3138,-2.315,-2.3364,-2.3627,-2.3615,-2.3514,-2.3753,-2.3829,-2.3269,-2.2688,-2.2121,-2.1565,-2.0858,-2.015,-1.9628,-1.9362,-1.9203,-1.9293,-1.9414,-1.9902,-2.0399,-2.0526,-3.0938,-3.1003,-3.0905,-3.0886,-3.0937,-3.1021,-3.1021,-3.1077,-3.1116,-3.1456,-3.1984,-3.256,-3.2403,-3.2088,-3.1789,-3.1545,-3.1504,-3.1777,-3.2026,-3.2205,-3.2662,-3.2661,-3.2713,-3.288,-3.2897,-3.271,-3.2577,-3.2611,-3.2551,-3.1749,-3.1365,-3.1286,-3.123,-3.1247,-3.1252,-3.1247,-3.1292,-3.1343,-3.1207,-3.119,-3.119,-3.119,-3.119,-3.119,-3.114,-3.0835,-3.0446,-2.9922,-2.9583,-2.8839,-2.801,-2.7672,-2.7418,-2.7012,-2.691,-2.6758,-2.6875,-2.7177,-2.758,-2.7511,-2.7715,-2.7894,-2.7705,-2.8078,-2.8976,-2.9058,-2.8968,-2.8772,-2.8211,-2.783,-2.783,-2.7894,-2.7894,-2.766,-2.766,-2.761,-2.756,-2.756,-2.756,-2.756,-2.756,-2.756,-2.7357,-2.693,-2.6616,-2.6229,-2.5632,-2.4908,-2.4176,-2.3471,-2.3125,-2.3125,-2.3125,-2.3138,-2.315,-2.3351,-2.364,-2.359,-2.3527,-2.3866,-2.3942,-2.3282,-2.269,-2.2023,-2.1428,-2.1071,-2.0409,-1.9824,-1.956,-1.9473,-1.9133,-1.916,-1.9625,-2.0036,-2.0379,-2.9455,-2.945,-2.942,-2.9414,-2.9553,-3.0057,-3.0311,-3.037,-3.0636,-3.1324,-3.2051,-3.2161,-3.2192,-3.2332,-3.1915,-3.1696,-3.1637,-3.1718,-3.1472,-3.1478,-3.1981,-3.1914,-3.1983,-3.2349,-3.2771,-3.2527,-3.207,-3.1799,-3.1998,-3.1517,-3.1389,-3.164,-3.1291,-3.1351,-3.1585,-3.1432,-3.119,-3.119,-3.119,-3.119,-3.119,-3.119,-3.119,-3.119,-3.1173,-3.1106,-3.0751,-2.977,-2.9296,-2.8636,-2.796,-2.7723,-2.7554,-2.7418,-2.7283,-2.7402,-2.7486,-2.8044,-2.8359,-2.8558,-2.882,-2.8988,-2.8938,-2.9293,-2.9655,-2.9301,-2.9411,-2.974,-2.9268,-2.8717,-2.8623,-2.881,-2.881,-2.8222,-2.7993,-2.771,-2.756,-2.756,-2.756,-2.756,-2.756,-2.756,-2.756,-2.7203,-2.6982,-2.6496,-2.5797,-2.5021,-2.4292,-2.3721,-2.3125,-2.3125,-2.3125,-2.3125,-2.3138,-2.3251,-2.3452,-2.3427,-2.3489,-2.3728,-2.3715,-2.329,-2.2689,-2.2249,-2.1913,-2.1635,-2.0903,-2.0673,-2.0114,-1.997,-1.9072,-1.8857,-1.934,-1.9762,-2.0193]},{"header":{"parameterUnit":"m.s-1","parameterCategory":1,"la1":31.0,"la2":29.5877,"lo1":-88.7671,"lo2":-86.6584,"dy":0.0162,"dx":0.0185,"nx":115,"ny":88,"refTime":"2023-02-25T06:00:00:Z","depth":0,"parameterNumber":3,"parameterNumberName":"V-component_of_WINDS"},"data":[0.0,0.0,0.0,0.0,0.0,0.0,0.0,0.0,0.0,0.0,0.0,0.0,0.0,0.0,0.0,0.0,0.0,0.0,0.0,0.0,0.0,0.0,0.0,0.0,0.0,0.0,0.0,0.0,0.0,0.0,0.0,0.0,0.0,0.0,0.0,0.0,0.0,0.0,0.0,0.0,0.0,0.0,0.0,0.0,0.0,0.0,0.0,0.0,0.0,0.0,0.0,0.0,0.0,0.0,0.0,0.0,0.0,0.0,0.0,0.0,0.0,0.0,0.0,0.0,0.0,0.0,0.0,0.0,0.0,0.0,0.0,0.0,0.0,0.0,0.0,0.0,0.0,0.0,0.0,0.0,0.0,0.0,0.0,0.0,0.0,0.0,0.0,0.0,0.0,0.0,0.0,0.0,0.0,0.0,0.0,0.0,0.0,0.0,0.0,0.0,0.0,0.0,0.0,0.0,0.0,0.0,0.0,0.0,0.0,0.0,0.0,0.0,0.0,0.0,0.0,0.0,0.0,0.0,0.0,0.0,0.0,0.0,0.0,0.0,0.0,0.0,0.0,0.0,0.0,0.0,0.0,0.0,0.0,0.0,0.0,0.0,0.0,0.0,0.0,0.0,0.0,0.0,0.0,0.0,0.0,0.0,0.0,0.0,0.0,0.0,0.0,0.0,0.0,0.0,0.0,0.0,0.0,0.0,0.0,0.0,0.0,0.0,0.0,0.0,0.0,0.0,0.0,0.0,0.0,0.0,0.0,0.0,0.0,0.0,0.0,0.0,0.0,0.0,0.0,0.0,0.0,0.0,0.0,0.0,0.0,0.0,0.0,0.0,0.0,0.0,0.0,0.0,0.0,0.0,0.0,0.0,0.0,0.0,0.0,0.0,0.0,0.0,0.0,0.0,0.0,0.0,0.0,0.0,0.0,0.0,0.0,0.0,0.0,0.0,0.0,0.0,0.0,0.0,0.0,0.0,0.0,0.0,0.0,0.0,0.0,0.0,0.0,0.0,0.0,0.0,0.0,0.0,0.0,0.0,0.0,0.0,0.0,0.0,0.0,0.0,0.0,0.0,0.0,0.0,0.0,0.0,0.0,0.0,0.0,0.0,0.0,0.0,0.0,0.0,0.0,0.0,0.0,0.0,0.0,0.0,0.0,0.0,0.0,0.0,0.0,0.0,0.0,0.0,0.0,0.0,0.0,0.0,0.0,0.0,0.0,0.0,0.0,0.0,0.0,0.0,0.0,0.0,0.0,0.0,0.0,0.0,0.0,0.0,0.0,0.0,0.0,0.0,0.0,0.0,0.0,0.0,0.0,0.0,0.0,0.0,0.0,0.0,0.0,0.0,0.0,0.0,0.0,0.0,0.0,0.0,0.0,0.0,0.0,0.0,0.0,0.0,0.0,0.0,0.0,0.0,0.0,0.0,0.0,0.0,0.0,0.0,0.0,0.0,0.0,0.0,0.0,0.0,0.0,0.0,0.0,0.0,0.0,0.0,0.0,0.0,0.0,0.0,0.0,0.0,0.0,0.0,0.0,0.0,0.0,0.0,0.0,0.0,0.0,0.0,0.0,0.0,0.0,0.0,0.0,0.0,0.0,0.0,0.0,0.0,0.0,0.0,0.0,0.0,0.0,0.0,0.0,0.0,0.0,0.0,0.0,0.0,0.0,0.0,0.0,0.0,0.0,0.0,0.0,0.0,0.0,0.0,0.0,0.0,0.0,0.0,0.0,0.0,0.0,0.0,0.0,0.0,0.0,0.0,0.0,0.0,0.0,0.0,0.0,0.0,0.0,0.0,0.0,0.0,0.0,0.0,0.0,0.0,0.0,0.0,0.0,0.0,0.0,0.0,0.0,0.0,0.0,0.0,0.0,0.0,0.0,0.0,0.0,0.0,0.0,0.0,0.0,0.0,0.0,0.0,0.0,0.0,0.0,0.0,0.0,0.0,0.0,0.0,0.0,0.0,0.0,0.0,0.0,0.0,0.0,0.0,0.0,0.0,0.0,0.0,0.0,0.0,0.0,0.0,0.0,0.0,0.0,0.0,0.0,0.0,0.0,0.0,0.0,0.0,0.0,0.0,0.0,0.0,0.0,0.0,0.0,0.0,0.0,0.0,0.0,0.0,0.0,0.0,0.0,0.0,0.0,0.0,0.0,0.0,0.0,0.0,0.0,0.0,0.0,0.0,0.0,0.0,0.0,0.0,0.0,0.0,0.0,0.0,0.0,0.0,0.0,0.0,0.0,0.0,0.0,0.0,0.0,0.0,0.0,0.0,0.0,0.0,0.0,0.0,0.0,0.0,0.0,0.0,0.0,0.0,0.0,0.0,0.0,0.0,0.0,0.0,0.0,0.0,0.0,0.0,0.0,0.0,0.0,0.0,0.0,0.0,0.0,0.0,0.0,0.0,0.0,0.0,0.0,0.0,0.0,0.0,0.0,0.0,0.0,0.0,0.0,0.0,0.0,0.0,0.0,0.0,0.0,0.0,0.0,0.0,0.0,0.0,0.0,0.0,0.0,0.0,0.0,0.0,0.0,0.0,0.0,0.0,0.0,0.0,0.0,0.0,0.0,0.0,0.0,0.0,0.0,0.0,0.0,0.0,0.0,0.0,0.0,0.0,0.0,0.0,0.0,0.0,0.0,0.0,0.0,0.0,0.0,0.0,0.0,0.0,0.0,0.0,0.0,0.0,0.0,0.0,0.0,0.0,0.0,0.0,0.0,0.0,0.0,0.0,0.0,0.0,0.0,0.0,0.0,0.0,0.0,0.0,0.0,0.0,0.0,0.0,0.0,0.0,0.0,0.0,0.0,0.0,0.0,0.0,0.0,0.0,0.0,0.0,0.0,0.0,0.0,0.0,0.0,0.0,0.0,0.0,0.0,0.0,0.0,0.0,0.0,0.0,0.0,0.0,0.0,0.0,0.0,0.0,0.0,0.0,0.0,0.0,0.0,0.0,0.0,0.0,0.0,0.0,0.0,0.0,0.0,0.0,0.0,0.0,0.0,0.0,0.0,0.0,0.0,0.0,0.0,0.0,0.0,0.0,0.0,0.0,0.0,0.0,0.0,0.0,0.0,0.0,0.0,0.0,0.0,0.0,0.0,0.0,0.0,0.0,0.0,0.0,0.0,0.0,0.0,0.0,0.0,0.0,0.0,0.0,0.0,0.0,0.0,0.0,0.0,0.0,0.0,0.0,0.0,0.0,0.0,0.0,0.0,0.0,0.0,0.0,0.0,0.0,0.0,0.0,0.0,0.0,0.0,0.0,0.0,0.0,0.0,0.0,0.0,0.0,0.0,0.0,0.0,0.0,0.0,0.0,0.0,0.0,0.0,0.0,0.0,0.0,0.0,0.0,0.0,0.0,0.0,0.0,0.0,0.0,0.0,0.0,0.0,0.0,0.0,0.0,0.0,0.0,0.0,0.0,0.0,0.0,0.0,0.0,0.0,0.0,0.0,0.0,0.0,0.0,0.0,0.0,0.0,0.0,0.0,0.0,0.0,0.0,0.0,0.0,0.0,0.0,0.0,0.0,0.0,0.0,0.0,0.0,0.0,0.0,0.0,0.0,0.0,0.0,0.0,0.0,0.0,0.0,0.0,0.0,0.0,0.0,0.0,0.0,0.0,0.0,0.0,0.0,0.0,0.0,0.0,0.0,0.0,0.0,0.0,0.0,0.0,0.0,0.0,0.0,0.0,0.0,0.0,0.0,0.0,0.0,0.0,0.0,0.0,0.0,0.0,0.0,0.0,0.0,0.0,0.0,0.0,0.0,0.0,0.0,0.0,0.0,0.0,0.0,0.0,0.0,0.0,0.0,0.0,0.0,0.0,0.0,0.0,0.0,0.0,0.0,0.0,0.0,0.0,0.0,0.0,0.0,0.0,0.0,0.0,0.0,0.0,0.0,0.0,0.0,0.0,0.0,0.0,0.0,0.0,0.0,0.0,0.0,0.0,0.0,0.0,0.0,0.0,0.0,0.0,0.0,0.0,0.0,0.0,0.0,0.0,0.0,0.0,0.0,0.0,0.0,0.0,0.0,0.0,0.0,0.0,0.0,0.0,0.0,0.0,0.0,0.0,0.0,0.0,0.0,0.0,0.0,0.0,0.0,0.0,0.0,0.0,0.0,0.0,0.0,0.0,0.0,0.0,0.0,0.0,0.0,0.0,0.0,0.0,0.0,0.0,0.0,0.0,0.0,0.0,0.0,0.0,0.0,0.0,0.0,0.0,0.0,0.0,0.0,0.0,0.0,0.0,0.0,0.0,0.0,0.0,0.0,-0.9685,0.0,0.0,0.0,0.0,0.0,0.0,0.0,0.0,0.0,0.0,0.0,0.0,0.0,0.0,0.0,0.0,0.0,0.0,0.0,0.0,0.0,0.0,0.0,0.0,0.0,0.0,0.0,0.0,0.0,0.0,0.0,0.0,0.0,0.0,0.0,0.0,0.0,0.0,0.0,0.0,0.0,0.0,0.0,0.0,0.0,0.0,0.0,0.0,0.0,0.0,0.0,0.0,0.0,0.0,0.0,0.0,0.0,0.0,0.0,0.0,0.0,0.0,0.0,0.0,0.0,0.0,0.0,0.0,0.0,0.0,0.0,0.0,0.0,0.0,0.0,0.0,0.0,0.0,0.0,0.0,0.0,0.0,0.0,0.0,0.0,0.0,0.0,0.0,0.0,0.0,0.0,0.0,0.0,0.0,0.0,0.0,0.0,0.0,0.0,0.0,0.0,0.0,0.0,0.0,0.0,0.0,0.0,0.0,0.0,0.0,-1.0369,-1.0671,-0.8727,-0.8364,-0.9761,0.0,0.0,0.0,0.0,0.0,0.0,0.0,0.0,0.0,0.0,0.0,0.0,0.0,0.0,0.0,0.0,0.0,0.0,0.0,0.0,0.0,0.0,0.0,0.0,0.0,0.0,0.0,0.0,0.0,0.0,0.0,0.0,0.0,0.0,0.0,0.0,0.0,0.0,0.0,0.0,0.0,0.0,0.0,0.0,0.0,0.0,0.0,0.0,0.0,0.0,0.0,0.0,0.0,0.0,0.0,0.0,0.0,0.0,0.0,0.0,0.0,0.0,0.0,0.0,0.0,0.0,0.0,0.0,0.0,0.0,0.0,0.0,0.0,0.0,0.0,0.0,0.0,0.0,0.0,0.0,0.0,0.0,0.0,0.0,0.0,0.0,0.0,0.0,0.0,0.0,0.0,0.0,0.0,0.0,0.0,0.0,0.0,0.0,0.0,0.0,0.0,0.0,0.0,0.0,0.0,0.0,0.0,0.0,0.0,0.0,0.0,0.0,-0.8391,-0.8228,-0.9866,0.0,0.0,0.0,0.0,0.0,0.0,0.0,0.0,0.0,0.0,0.0,0.0,0.0,0.0,0.0,0.0,0.0,0.0,0.0,0.0,0.0,0.0,0.0,0.0,0.0,0.0,0.0,0.0,0.0,0.0,0.0,0.0,0.0,0.0,0.0,0.0,0.0,0.0,0.0,0.0,0.0,0.0,0.0,0.0,0.0,0.0,0.0,0.0,0.0,0.0,0.0,0.0,0.0,0.0,0.0,0.0,0.0,0.0,0.0,0.0,0.0,0.0,0.0,0.0,0.0,0.0,0.0,0.0,0.0,0.0,0.0,0.0,0.0,0.0,0.0,0.0,0.0,0.0,0.0,0.0,0.0,0.0,0.0,0.0,0.0,0.0,0.0,0.0,0.0,0.0,0.0,0.0,0.0,0.0,0.0,0.0,0.0,0.0,0.0,0.0,0.0,0.0,0.0,0.0,0.0,0.0,0.0,0.0,0.0,0.0,-1.0697,-1.0712,-0.9616,0.0,-1.0193,0.0,0.0,0.0,0.0,0.0,0.0,0.0,0.0,0.0,0.0,0.0,0.0,0.0,0.0,0.0,0.0,0.0,0.0,0.0,0.0,0.0,0.0,0.0,0.0,0.0,0.0,0.0,0.0,0.0,0.0,0.0,0.0,0.0,0.0,0.0,0.0,0.0,0.0,0.0,0.0,0.0,0.0,0.0,0.0,0.0,0.0,0.0,0.0,0.0,0.0,0.0,0.0,0.0,0.0,0.0,0.0,0.0,0.0,0.0,0.0,0.0,0.0,0.0,0.0,0.0,0.0,0.0,0.0,0.0,0.0,0.0,0.0,0.0,0.0,0.0,0.0,0.0,0.0,0.0,0.0,0.0,0.0,0.0,0.0,0.0,0.0,0.0,0.0,0.0,0.0,0.0,0.0,0.0,0.0,0.0,0.0,0.0,0.0,0.0,0.0,0.0,0.0,0.0,0.0,0.0,0.0,0.0,0.0,0.0,0.0,-1.1208,-1.0813,-1.0343,-1.0263,0.0,0.0,0.0,0.0,0.0,0.0,0.0,0.0,0.0,0.0,0.0,0.0,0.0,0.0,0.0,0.0,0.0,0.0,0.0,0.0,0.0,0.0,0.0,0.0,0.0,0.0,0.0,0.0,0.0,0.0,0.0,0.0,0.0,0.0,0.0,0.0,0.0,0.0,0.0,0.0,0.0,0.0,0.0,0.0,0.0,0.0,0.0,0.0,0.0,0.0,0.0,0.0,0.0,0.0,0.0,0.0,0.0,0.0,0.0,0.0,0.0,0.0,0.0,0.0,0.0,0.0,0.0,0.0,0.0,0.0,0.0,0.0,0.0,0.0,0.0,0.0,0.0,0.0,0.0,0.0,0.0,0.0,0.0,0.0,0.0,0.0,0.0,0.0,0.0,0.0,0.0,0.0,0.0,0.0,0.0,0.0,0.0,0.0,0.0,0.0,0.0,0.0,0.0,0.0,0.0,0.0,0.0,0.0,0.0,0.0,-1.2178,-1.1418,-1.0697,-1.0565,-1.0659,-1.0902,0.0,0.0,0.0,0.0,0.0,0.0,0.0,0.0,0.0,0.0,0.0,0.0,0.0,0.0,0.0,0.0,0.0,0.0,0.0,0.0,0.0,0.0,0.0,0.0,0.0,0.0,0.0,0.0,0.0,0.0,0.0,0.0,0.0,0.0,0.0,0.0,0.0,0.0,0.0,0.0,0.0,0.0,0.0,0.0,0.0,0.0,0.0,0.0,0.0,0.0,0.0,0.0,0.0,0.0,0.0,0.0,0.0,0.0,0.0,0.0,0.0,0.0,0.0,0.0,0.0,0.0,0.0,0.0,0.0,0.0,0.0,0.0,0.0,0.0,0.0,0.0,0.0,0.0,0.0,0.0,0.0,0.0,0.0,0.0,0.0,0.0,0.0,0.0,0.0,0.0,0.0,0.0,0.0,0.0,0.0,0.0,0.0,0.0,0.0,0.0,0.0,0.0,0.0,0.0,0.0,0.0,0.0,0.0,-1.2871,-1.2178,-1.1328,-1.0355,-1.0023,-1.0269,0.0,0.0,0.0,0.0,0.0,0.0,0.0,0.0,0.0,0.0,0.0,0.0,0.0,0.0,0.0,0.0,0.0,0.0,0.0,0.0,0.0,0.0,0.0,0.0,0.0,0.0,0.0,0.0,0.0,0.0,0.0,0.0,0.0,0.0,0.0,0.0,0.0,0.0,0.0,0.0,0.0,0.0,0.0,0.0,0.0,0.0,0.0,0.0,0.0,0.0,0.0,0.0,0.0,0.0,0.0,0.0,0.0,0.0,0.0,0.0,0.0,0.0,0.0,0.0,0.0,0.0,0.0,0.0,0.0,0.0,0.0,0.0,0.0,0.0,0.0,0.0,0.0,0.0,0.0,0.0,0.0,0.0,0.0,0.0,0.0,0.0,0.0,0.0,0.0,0.0,0.0,0.0,0.0,0.0,0.0,0.0,0.0,0.0,0.0,0.0,0.0,0.0,0.0,0.0,0.0,0.0,0.0,0.0,0.0,-1.2424,-1.1366,-1.0748,-1.0633,-1.0074,-1.0169,0.0,0.0,0.0,0.0,0.0,0.0,0.0,0.0,0.0,0.0,0.0,0.0,0.0,0.0,0.0,0.0,0.0,0.0,0.0,0.0,0.0,0.0,0.0,0.0,0.0,0.0,0.0,0.0,0.0,0.0,0.0,0.0,0.0,0.0,0.0,0.0,0.0,0.0,0.0,0.0,0.0,0.0,0.0,0.0,0.0,0.0,0.0,0.0,0.0,0.0,0.0,0.0,0.0,0.0,0.0,0.0,0.0,0.0,0.0,0.0,0.0,0.0,0.0,0.0,0.0,0.0,0.0,0.0,0.0,0.0,0.0,0.0,0.0,0.0,0.0,0.0,0.0,0.0,0.0,0.0,0.0,0.0,0.0,0.0,0.0,0.0,0.0,0.0,0.0,0.0,0.0,0.0,0.0,0.0,0.0,0.0,0.0,0.0,0.0,0.0,0.0,0.0,0.0,0.0,0.0,0.0,0.0,0.0,0.0,-1.1986,0.0,-1.0017,-1.036,-1.015,-1.0245,0.0,0.0,0.0,0.0,0.0,0.0,0.0,0.0,0.0,0.0,0.0,0.0,0.0,0.0,0.0,0.0,0.0,0.0,0.0,0.0,0.0,0.0,0.0,0.0,0.0,0.0,0.0,0.0,0.0,0.0,0.0,0.0,0.0,0.0,0.0,0.0,0.0,0.0,0.0,0.0,0.0,0.0,0.0,0.0,0.0,0.0,0.0,0.0,0.0,0.0,0.0,0.0,0.0,0.0,0.0,0.0,0.0,0.0,0.0,0.0,0.0,0.0,0.0,0.0,0.0,0.0,0.0,0.0,0.0,0.0,0.0,0.0,0.0,0.0,0.0,0.0,0.0,0.0,0.0,0.0,0.0,0.0,0.0,0.0,0.0,0.0,0.0,0.0,0.0,0.0,0.0,0.0,0.0,0.0,0.0,0.0,0.0,0.0,0.0,0.0,0.0,0.0,0.0,0.0,0.0,0.0,0.0,0.0,-1.2469,-1.1611,-1.0013,-0.9314,-0.9528,-1.0056,-1.0482,0.0,0.0,0.0,0.0,0.0,0.0,0.0,0.0,0.0,0.0,0.0,0.0,0.0,0.0,0.0,0.0,0.0,0.0,0.0,0.0,0.0,0.0,0.0,0.0,0.0,0.0,0.0,0.0,0.0,0.0,0.0,0.0,0.0,0.0,0.0,0.0,0.0,0.0,0.0,0.0,0.0,0.0,0.0,0.0,0.0,0.0,0.0,0.0,0.0,0.0,0.0,0.0,0.0,0.0,0.0,0.0,0.0,0.0,0.0,0.0,0.0,0.0,0.0,0.0,0.0,0.0,0.0,0.0,0.0,0.0,0.0,0.0,0.0,0.0,0.0,0.0,0.0,0.0,0.0,0.0,0.0,0.0,0.0,0.0,0.0,0.0,0.0,0.0,0.0,0.0,0.0,0.0,0.0,0.0,0.0,0.0,0.0,0.0,0.0,0.0,0.0,0.0,0.0,0.0,0.0,0.0,0.0,0.0,0.0,-1.3011,-1.0243,-0.9495,-1.0963,-0.9956,-1.0254,0.0,0.0,0.0,0.0,0.0,0.0,0.0,0.0,0.0,0.0,0.0,0.0,0.0,0.0,0.0,0.0,0.0,0.0,0.0,0.0,0.0,0.0,0.0,0.0,0.0,0.0,0.0,0.0,0.0,0.0,0.0,0.0,0.0,0.0,0.0,0.0,0.0,0.0,0.0,0.0,0.0,0.0,0.0,0.0,0.0,0.0,0.0,0.0,0.0,0.0,0.0,0.0,0.0,0.0,0.0,0.0,0.0,0.0,0.0,0.0,0.0,0.0,0.0,0.0,0.0,0.0,0.0,0.0,0.0,0.0,0.0,0.0,0.0,0.0,0.0,0.0,0.0,0.0,0.0,0.0,0.0,0.0,0.0,0.0,0.0,0.0,0.0,0.0,0.0,0.0,0.0,0.0,0.0,0.0,0.0,0.0,0.0,0.0,0.0,0.0,0.0,0.0,0.0,0.0,0.0,0.0,0.0,0.0,0.0,-1.3129,-0.9954,-0.88,-1.0082,-0.9615,-1.0206,-1.1976,0.0,0.0,0.0,0.0,0.0,0.0,0.0,0.0,0.0,0.0,0.0,0.0,0.0,0.0,0.0,0.0,0.0,0.0,0.0,0.0,0.0,0.0,0.0,0.0,0.0,0.0,0.0,0.0,0.0,0.0,0.0,0.0,0.0,0.0,0.0,0.0,0.0,0.0,0.0,0.0,0.0,0.0,0.0,0.0,0.0,0.0,0.0,0.0,0.0,0.0,0.0,0.0,0.0,0.0,0.0,0.0,0.0,0.0,0.0,0.0,0.0,0.0,0.0,0.0,0.0,0.0,0.0,0.0,0.0,0.0,0.0,0.0,0.0,0.0,0.0,0.0,0.0,0.0,0.0,0.0,0.0,0.0,0.0,0.0,0.0,0.0,0.0,0.0,0.0,0.0,0.0,0.0,0.0,0.0,0.0,0.0,0.0,0.0,0.0,0.0,0.0,0.0,0.0,0.0,0.0,0.0,0.0,0.0,-1.2335,-0.9234,-0.7637,-0.7627,-0.9211,-1.0363,0.0,0.0,0.0,0.0,0.0,0.0,0.0,0.0,0.0,0.0,0.0,0.0,0.0,0.0,0.0,0.0,0.0,0.0,0.0,0.0,0.0,0.0,0.0,0.0,0.0,0.0,0.0,0.0,0.0,0.0,0.0,0.0,0.0,0.0,0.0,0.0,0.0,0.0,0.0,0.0,0.0,0.0,0.0,0.0,0.0,0.0,0.0,0.0,0.0,0.0,0.0,0.0,0.0,0.0,0.0,0.0,0.0,0.0,0.0,0.0,0.0,0.0,0.0,0.0,0.0,0.0,0.0,0.0,0.0,0.0,0.0,0.0,0.0,0.0,0.0,0.0,0.0,0.0,0.0,0.0,0.0,0.0,0.0,0.0,0.0,0.0,0.0,0.0,0.0,0.0,0.0,0.0,0.0,0.0,0.0,0.0,0.0,0.0,0.0,0.0,0.0,0.0,0.0,0.0,0.0,0.0,0.0,0.0,0.0,-1.1333,-0.9875,-0.9397,-0.9915,-1.0135,-1.1045,0.0,0.0,0.0,0.0,0.0,0.0,0.0,0.0,0.0,0.0,0.0,0.0,0.0,0.0,0.0,0.0,0.0,0.0,0.0,0.0,0.0,0.0,0.0,0.0,0.0,0.0,0.0,0.0,0.0,0.0,0.0,0.0,0.0,0.0,0.0,0.0,0.0,0.0,0.0,0.0,0.0,0.0,0.0,0.0,0.0,0.0,0.0,0.0,0.0,0.0,0.0,0.0,0.0,0.0,0.0,0.0,0.0,0.0,0.0,0.0,0.0,0.0,0.0,0.0,0.0,0.0,0.0,0.0,0.0,0.0,0.0,0.0,0.0,0.0,0.0,0.0,0.0,0.0,0.0,0.0,0.0,0.0,0.0,0.0,0.0,0.0,0.0,0.0,0.0,0.0,0.0,0.0,0.0,0.0,0.0,0.0,0.0,0.0,0.0,0.0,0.0,0.0,0.0,0.0,0.0,0.0,0.0,0.0,-1.2794,-1.0899,-1.0675,-1.0623,-1.0702,-1.0872,-1.1453,0.0,0.0,0.0,0.0,0.0,0.0,0.0,0.0,0.0,0.0,0.0,0.0,0.0,0.0,0.0,0.0,0.0,0.0,0.0,0.0,0.0,0.0,0.0,0.0,0.0,0.0,0.0,0.0,0.0,0.0,0.0,0.0,0.0,0.0,0.0,0.0,0.0,0.0,0.0,0.0,0.0,0.0,0.0,0.0,0.0,0.0,0.0,0.0,0.0,0.0,0.0,0.0,0.0,0.0,0.0,0.0,0.0,0.0,0.0,0.0,0.0,0.0,0.0,0.0,0.0,0.0,0.0,0.0,0.0,0.0,0.0,0.0,0.0,0.0,0.0,0.0,0.0,0.0,0.0,0.0,0.0,0.0,0.0,0.0,0.0,0.0,0.0,0.0,0.0,0.0,0.0,0.0,0.0,0.0,0.0,0.0,0.0,0.0,0.0,0.0,0.0,0.0,0.0,0.0,0.0,0.0,0.0,0.0,-1.2861,-1.0755,-1.1297,-1.1223,-1.046,-1.1214,-1.1643,0.0,0.0,0.0,0.0,0.0,0.0,0.0,0.0,0.0,0.0,0.0,0.0,0.0,0.0,0.0,0.0,0.0,0.0,0.0,0.0,0.0,0.0,0.0,0.0,0.0,0.0,0.0,0.0,0.0,0.0,0.0,0.0,0.0,0.0,0.0,0.0,0.0,0.0,0.0,0.0,0.0,0.0,0.0,0.0,0.0,0.0,0.0,0.0,0.0,0.0,0.0,0.0,0.0,0.0,0.0,0.0,0.0,0.0,0.0,0.0,0.0,0.0,0.0,0.0,0.0,0.0,0.0,0.0,0.0,0.0,0.0,0.0,0.0,0.0,0.0,0.0,0.0,0.0,0.0,0.0,0.0,0.0,0.0,0.0,0.0,0.0,0.0,0.0,0.0,0.0,0.0,0.0,0.0,0.0,0.0,0.0,0.0,0.0,0.0,0.0,0.0,0.0,0.0,0.0,0.0,0.0,0.0,0.0,-1.1609,-1.0059,-1.0403,-1.0508,-1.0255,-1.0469,-1.1211,0.0,0.0,0.0,0.0,0.0,0.0,0.0,0.0,0.0,0.0,0.0,0.0,0.0,0.0,0.0,0.0,0.0,0.0,0.0,0.0,0.0,0.0,0.0,0.0,0.0,0.0,0.0,0.0,0.0,0.0,0.0,0.0,0.0,0.0,0.0,0.0,0.0,0.0,0.0,0.0,0.0,0.0,0.0,0.0,0.0,0.0,0.0,0.0,-1.7042,0.0,0.0,0.0,0.0,0.0,0.0,0.0,0.0,0.0,0.0,0.0,0.0,0.0,0.0,0.0,0.0,0.0,0.0,0.0,0.0,0.0,0.0,0.0,0.0,0.0,0.0,0.0,0.0,0.0,0.0,0.0,0.0,0.0,0.0,0.0,0.0,0.0,0.0,0.0,0.0,0.0,0.0,0.0,0.0,0.0,0.0,0.0,0.0,0.0,0.0,0.0,0.0,0.0,0.0,0.0,0.0,0.0,0.0,0.0,-1.1345,-1.0276,-1.0452,-1.065,-1.0852,-1.0252,-1.082,0.0,0.0,0.0,0.0,0.0,0.0,0.0,0.0,0.0,0.0,0.0,0.0,0.0,0.0,0.0,0.0,0.0,0.0,0.0,0.0,0.0,0.0,0.0,0.0,0.0,0.0,0.0,0.0,0.0,0.0,0.0,0.0,0.0,0.0,0.0,0.0,0.0,0.0,0.0,0.0,0.0,0.0,0.0,0.0,0.0,0.0,0.0,0.0,0.0,0.0,0.0,0.0,0.0,0.0,0.0,0.0,0.0,0.0,0.0,0.0,0.0,0.0,0.0,0.0,0.0,0.0,0.0,0.0,0.0,0.0,0.0,0.0,0.0,0.0,0.0,0.0,0.0,0.0,0.0,0.0,0.0,0.0,0.0,0.0,0.0,0.0,0.0,0.0,0.0,0.0,0.0,0.0,0.0,0.0,0.0,0.0,0.0,0.0,0.0,0.0,0.0,0.0,0.0,0.0,0.0,0.0,0.0,-1.2008,-1.1438,-1.0548,-1.0551,-1.0876,-1.1417,-1.0171,-1.0525,-1.2823,0.0,0.0,0.0,0.0,0.0,0.0,0.0,0.0,0.0,0.0,0.0,0.0,0.0,0.0,0.0,0.0,0.0,0.0,0.0,0.0,0.0,0.0,0.0,0.0,0.0,0.0,0.0,0.0,0.0,0.0,0.0,0.0,0.0,0.0,0.0,0.0,0.0,0.0,-1.8614,-1.7832,0.0,0.0,0.0,0.0,0.0,0.0,0.0,0.0,-1.7262,0.0,0.0,0.0,0.0,0.0,0.0,0.0,0.0,0.0,0.0,0.0,0.0,0.0,0.0,0.0,0.0,0.0,0.0,0.0,0.0,0.0,0.0,0.0,0.0,0.0,0.0,0.0,0.0,0.0,0.0,0.0,0.0,0.0,0.0,0.0,0.0,0.0,0.0,0.0,0.0,0.0,0.0,0.0,0.0,0.0,0.0,0.0,0.0,0.0,0.0,0.0,0.0,0.0,0.0,0.0,0.0,-1.2277,-1.2036,-1.1168,-0.9655,-0.9621,-0.984,-1.0238,-0.9725,-1.0598,-1.3042,0.0,0.0,0.0,0.0,0.0,0.0,0.0,0.0,0.0,0.0,0.0,0.0,0.0,0.0,0.0,0.0,0.0,0.0,0.0,0.0,0.0,0.0,0.0,0.0,0.0,0.0,0.0,0.0,0.0,0.0,0.0,0.0,0.0,0.0,0.0,0.0,0.0,0.0,0.0,-1.5923,-1.5965,0.0,0.0,0.0,0.0,0.0,0.0,0.0,0.0,-1.7173,0.0,0.0,0.0,0.0,0.0,0.0,0.0,0.0,0.0,0.0,0.0,0.0,0.0,0.0,0.0,0.0,0.0,0.0,0.0,0.0,0.0,0.0,0.0,0.0,0.0,0.0,0.0,0.0,0.0,0.0,0.0,0.0,0.0,0.0,0.0,0.0,0.0,0.0,0.0,0.0,0.0,0.0,0.0,0.0,0.0,0.0,0.0,0.0,0.0,0.0,0.0,0.0,0.0,0.0,0.0,-1.3272,-1.1714,-1.0539,-0.9941,-0.9755,-0.989,-1.0335,-0.9915,-1.1052,0.0,0.0,0.0,0.0,0.0,0.0,0.0,0.0,0.0,0.0,0.0,0.0,0.0,0.0,0.0,0.0,0.0,0.0,0.0,0.0,0.0,0.0,0.0,0.0,0.0,0.0,0.0,0.0,0.0,0.0,0.0,0.0,0.0,0.0,0.0,0.0,0.0,0.0,0.0,0.0,-1.607,-1.5842,-1.4183,0.0,0.0,0.0,0.0,0.0,0.0,-1.7445,-1.7838,0.0,0.0,0.0,0.0,0.0,0.0,0.0,0.0,0.0,0.0,0.0,0.0,0.0,0.0,0.0,0.0,0.0,0.0,0.0,0.0,0.0,0.0,0.0,0.0,0.0,0.0,0.0,0.0,0.0,0.0,0.0,0.0,0.0,0.0,0.0,0.0,0.0,0.0,0.0,0.0,0.0,0.0,0.0,0.0,0.0,0.0,0.0,0.0,0.0,0.0,0.0,0.0,0.0,0.0,0.0,-1.4133,-1.1738,-1.0436,-1.0297,-1.0033,-1.008,-1.0506,-1.021,-1.1479,0.0,0.0,0.0,0.0,0.0,0.0,0.0,0.0,0.0,0.0,0.0,0.0,0.0,0.0,0.0,0.0,0.0,0.0,0.0,0.0,0.0,0.0,0.0,0.0,0.0,0.0,0.0,0.0,0.0,0.0,0.0,0.0,0.0,0.0,0.0,0.0,0.0,0.0,0.0,0.0,0.0,-1.5842,-1.4638,-1.563,0.0,0.0,0.0,0.0,-1.8165,-1.8014,0.0,0.0,0.0,0.0,0.0,0.0,0.0,0.0,0.0,0.0,0.0,0.0,0.0,0.0,0.0,0.0,0.0,0.0,0.0,0.0,0.0,0.0,0.0,0.0,0.0,0.0,0.0,0.0,0.0,0.0,0.0,0.0,0.0,0.0,0.0,0.0,0.0,0.0,0.0,0.0,0.0,0.0,0.0,0.0,0.0,0.0,0.0,0.0,0.0,0.0,0.0,0.0,0.0,0.0,0.0,0.0,-1.3912,-1.2942,-1.1677,-1.0053,-0.9926,-0.9931,-0.9993,-1.0224,-1.1547,0.0,0.0,0.0,0.0,0.0,0.0,0.0,0.0,0.0,0.0,0.0,0.0,0.0,0.0,0.0,0.0,0.0,0.0,0.0,0.0,0.0,0.0,0.0,0.0,0.0,0.0,0.0,0.0,0.0,0.0,0.0,0.0,0.0,0.0,0.0,0.0,0.0,0.0,0.0,0.0,0.0,-1.546,-1.5965,-1.6589,-1.7131,0.0,0.0,0.0,-1.8528,-1.8142,0.0,0.0,0.0,0.0,0.0,0.0,0.0,0.0,0.0,0.0,0.0,0.0,0.0,0.0,0.0,0.0,0.0,0.0,0.0,0.0,0.0,0.0,0.0,0.0,0.0,0.0,0.0,0.0,0.0,0.0,0.0,0.0,0.0,0.0,0.0,0.0,0.0,0.0,0.0,0.0,0.0,0.0,0.0,0.0,0.0,0.0,0.0,0.0,0.0,0.0,0.0,0.0,0.0,0.0,0.0,-1.5785,-1.4902,-1.295,-1.1546,-1.0723,-1.0542,-1.0472,-1.0472,-1.0619,-1.1963,0.0,0.0,0.0,0.0,0.0,0.0,0.0,0.0,0.0,0.0,0.0,0.0,0.0,0.0,0.0,0.0,0.0,0.0,0.0,0.0,0.0,0.0,0.0,0.0,0.0,0.0,0.0,0.0,0.0,0.0,0.0,0.0,0.0,0.0,0.0,0.0,0.0,0.0,0.0,0.0,0.0,0.0,-1.7009,-1.7374,0.0,0.0,0.0,-1.8834,-1.9526,0.0,0.0,0.0,0.0,0.0,0.0,0.0,0.0,0.0,0.0,0.0,0.0,0.0,0.0,0.0,0.0,0.0,0.0,0.0,0.0,0.0,0.0,0.0,0.0,0.0,0.0,0.0,0.0,0.0,0.0,0.0,0.0,0.0,0.0,0.0,0.0,0.0,0.0,0.0,0.0,0.0,0.0,0.0,0.0,0.0,0.0,0.0,0.0,0.0,0.0,0.0,0.0,0.0,0.0,0.0,0.0,0.0,-1.5754,-1.2829,-1.1296,-1.1273,-1.1024,-1.0897,-1.0897,-1.0968,0.0,0.0,0.0,0.0,0.0,0.0,0.0,0.0,0.0,0.0,0.0,0.0,0.0,0.0,0.0,0.0,0.0,0.0,0.0,0.0,0.0,0.0,0.0,0.0,0.0,0.0,0.0,-1.9993,0.0,0.0,0.0,0.0,0.0,0.0,0.0,0.0,0.0,0.0,0.0,0.0,0.0,0.0,-1.8663,-1.7897,-1.7925,-1.7872,0.0,0.0,-1.9396,-2.0015,-1.9641,-1.9996,0.0,0.0,0.0,0.0,0.0,0.0,0.0,0.0,0.0,0.0,0.0,0.0,0.0,0.0,0.0,0.0,0.0,0.0,0.0,0.0,0.0,0.0,0.0,0.0,0.0,0.0,0.0,0.0,0.0,0.0,0.0,0.0,0.0,0.0,0.0,0.0,0.0,0.0,0.0,0.0,0.0,0.0,0.0,0.0,0.0,0.0,0.0,0.0,0.0,0.0,0.0,0.0,0.0,0.0,0.0,-1.5709,-1.2829,-1.1296,-1.1296,-1.1048,-1.0897,-1.0897,-1.1127,-1.2539,0.0,0.0,0.0,0.0,0.0,0.0,0.0,0.0,0.0,0.0,0.0,0.0,0.0,0.0,0.0,0.0,0.0,0.0,0.0,0.0,0.0,0.0,0.0,0.0,0.0,0.0,0.0,0.0,0.0,0.0,0.0,0.0,0.0,0.0,0.0,0.0,0.0,0.0,0.0,0.0,0.0,-1.8698,-1.8626,-1.8153,-1.7888,0.0,0.0,-1.9796,-1.944,-1.9907,-2.039,-2.0663,0.0,0.0,0.0,0.0,0.0,0.0,0.0,0.0,0.0,0.0,0.0,0.0,0.0,0.0,0.0,0.0,0.0,0.0,0.0,0.0,0.0,0.0,0.0,0.0,0.0,0.0,0.0,0.0,0.0,0.0,0.0,0.0,0.0,0.0,0.0,0.0,0.0,0.0,0.0,0.0,0.0,0.0,0.0,0.0,0.0,0.0,0.0,0.0,0.0,0.0,0.0,0.0,0.0,-1.5814,-1.5769,-1.3015,-1.1615,-1.1579,-1.1505,-1.1474,-1.146,-1.1549,-1.2479,0.0,0.0,0.0,0.0,0.0,0.0,0.0,0.0,0.0,0.0,0.0,0.0,0.0,0.0,0.0,0.0,0.0,0.0,0.0,0.0,0.0,0.0,0.0,0.0,0.0,0.0,0.0,0.0,-1.9353,-1.9566,-2.0557,0.0,0.0,0.0,0.0,0.0,0.0,0.0,0.0,0.0,0.0,-1.9637,-1.9202,-1.9321,0.0,0.0,-2.0657,-2.1755,-2.1123,-2.1264,-2.1683,-2.2362,-2.2589,0.0,0.0,0.0,0.0,0.0,0.0,0.0,0.0,0.0,0.0,0.0,0.0,0.0,0.0,0.0,0.0,0.0,0.0,0.0,0.0,0.0,0.0,0.0,0.0,0.0,0.0,0.0,0.0,0.0,0.0,0.0,0.0,0.0,0.0,0.0,0.0,0.0,0.0,0.0,0.0,0.0,0.0,0.0,0.0,0.0,0.0,0.0,0.0,0.0,0.0,0.0,0.0,-1.5964,-1.5799,-1.337,-1.1999,-1.182,-1.1826,-1.1826,-1.1805,-1.1984,-1.2732,0.0,0.0,0.0,0.0,0.0,0.0,0.0,0.0,0.0,0.0,0.0,0.0,0.0,0.0,0.0,0.0,0.0,0.0,0.0,0.0,0.0,0.0,0.0,0.0,0.0,0.0,0.0,0.0,-2.0291,-2.0699,-2.2154,0.0,0.0,0.0,0.0,0.0,0.0,0.0,0.0,0.0,0.0,-2.0227,-1.9723,-2.0026,-2.0232,-2.0077,-2.1673,-2.2658,-2.2036,-2.21,-2.2514,-2.3327,0.0,0.0,0.0,0.0,0.0,0.0,0.0,0.0,0.0,0.0,0.0,0.0,0.0,0.0,0.0,0.0,0.0,0.0,0.0,0.0,0.0,0.0,0.0,0.0,0.0,0.0,0.0,0.0,0.0,0.0,0.0,0.0,0.0,0.0,0.0,0.0,0.0,0.0,0.0,0.0,0.0,0.0,0.0,0.0,0.0,0.0,0.0,0.0,0.0,0.0,0.0,0.0,0.0,0.0,-1.5799,-1.3805,-1.2448,-1.1865,-1.1805,-1.1805,-1.1835,-1.2441,-1.34,-1.4764,0.0,0.0,0.0,0.0,0.0,0.0,0.0,0.0,0.0,0.0,0.0,0.0,0.0,0.0,0.0,0.0,0.0,0.0,0.0,0.0,0.0,0.0,0.0,0.0,0.0,0.0,-2.3029,-2.269,-2.2817,0.0,0.0,0.0,0.0,0.0,0.0,0.0,0.0,0.0,0.0,-2.088,-2.021,-2.0173,-1.9967,-2.0273,-2.1346,-2.1879,-2.2046,-2.1725,-2.214,-2.26,0.0,0.0,0.0,0.0,0.0,0.0,0.0,0.0,0.0,0.0,0.0,0.0,0.0,0.0,0.0,0.0,0.0,0.0,0.0,0.0,0.0,0.0,0.0,0.0,0.0,0.0,0.0,0.0,-1.9442,0.0,0.0,0.0,0.0,0.0,0.0,0.0,0.0,0.0,0.0,0.0,-1.7682,-1.7249,0.0,0.0,0.0,0.0,0.0,0.0,0.0,0.0,0.0,0.0,0.0,0.0,-1.6592,-1.6323,-1.4019,-1.2897,-1.3092,-1.2269,-1.1999,-1.2448,-1.2696,-1.3739,-1.5722,0.0,0.0,0.0,0.0,0.0,0.0,0.0,0.0,0.0,0.0,0.0,0.0,0.0,0.0,0.0,0.0,0.0,0.0,0.0,0.0,0.0,0.0,0.0,0.0,0.0,-2.2729,0.0,0.0,0.0,0.0,0.0,0.0,0.0,0.0,0.0,0.0,0.0,-2.2585,-2.237,-2.1159,-2.0363,-2.0389,-2.0937,-2.1472,0.0,0.0,0.0,0.0,0.0,0.0,0.0,0.0,0.0,0.0,0.0,0.0,0.0,0.0,-2.4512,-2.4247,-2.4461,-2.47,-2.47,0.0,0.0,0.0,0.0,0.0,0.0,0.0,0.0,0.0,0.0,0.0,0.0,0.0,0.0,0.0,0.0,-1.9169,0.0,0.0,0.0,0.0,0.0,0.0,0.0,0.0,-1.7652,-1.7234,-1.7026,-1.6608,-1.6607,0.0,-1.7458,-1.7802,0.0,0.0,0.0,0.0,0.0,0.0,0.0,0.0,-1.6846,-1.6323,-1.4483,-1.36,-1.375,-1.3068,-1.2705,-1.2801,-1.3041,-1.404,-1.5898,-1.6538,-1.7443,0.0,0.0,0.0,0.0,0.0,0.0,0.0,0.0,0.0,0.0,0.0,0.0,0.0,0.0,0.0,0.0,0.0,0.0,0.0,0.0,0.0,0.0,0.0,-2.2914,0.0,0.0,0.0,0.0,0.0,0.0,0.0,0.0,0.0,-2.419,-2.3321,-2.2696,-2.2733,-2.1673,-2.1011,-2.132,0.0,0.0,0.0,0.0,0.0,0.0,0.0,-2.4228,-2.4284,-2.4303,-2.4303,-2.4303,-2.4357,-2.445,-2.4596,0.0,0.0,-2.4246,-2.4461,-2.4685,-2.47,-2.5601,-2.6505,-2.6882,-2.7589,-2.7948,0.0,0.0,0.0,0.0,0.0,0.0,0.0,0.0,-1.8747,-1.8844,0.0,-1.831,0.0,0.0,0.0,0.0,0.0,0.0,0.0,0.0,-1.7085,-1.6413,-1.5888,-1.5844,-1.5814,-1.5888,-1.7041,-1.7294,-1.6756,-1.7339,0.0,0.0,0.0,0.0,0.0,0.0,-1.7071,-1.5873,-1.5139,-1.4509,-1.394,-1.4135,-1.3821,-1.2959,-1.349,-1.4313,-1.535,-1.6961,-1.8028,-1.8441,-2.0174,0.0,0.0,0.0,0.0,0.0,0.0,0.0,0.0,0.0,0.0,0.0,0.0,0.0,0.0,0.0,0.0,0.0,0.0,0.0,0.0,-2.3482,0.0,0.0,0.0,0.0,0.0,0.0,0.0,0.0,0.0,0.0,-2.419,-2.3492,-2.3033,-2.307,0.0,0.0,0.0,0.0,-2.3177,-2.3627,-2.3958,-2.4094,-2.3774,-2.3996,-2.4284,-2.4444,0.0,0.0,-2.4495,-2.4339,-2.4466,-2.5236,-2.4742,-2.4208,-2.4281,-2.443,-2.451,-2.4545,-2.5408,-2.6042,-2.6122,-2.689,-2.7248,-1.5441,0.0,0.0,0.0,0.0,-1.818,-1.8802,-1.8841,-1.9248,-1.9439,-1.9464,-1.9265,0.0,0.0,0.0,0.0,0.0,0.0,-1.9046,-1.8369,-1.7712,-1.707,-1.6458,-1.5979,-1.5814,-1.5829,-1.6188,-1.6219,-1.6069,-1.6234,-1.7131,-1.8672,0.0,0.0,0.0,0.0,-1.6801,-1.6413,-1.5586,-1.5288,-1.5595,-1.4736,-1.4283,-1.4225,-1.4347,-1.5026,-1.6336,-1.679,-1.7576,-1.8718,-1.9757,0.0,0.0,0.0,0.0,0.0,0.0,0.0,0.0,0.0,0.0,0.0,0.0,0.0,0.0,0.0,0.0,0.0,0.0,0.0,-2.323,-2.33,-2.3346,0.0,0.0,0.0,0.0,0.0,0.0,0.0,0.0,0.0,-2.419,-2.3511,-2.3419,0.0,0.0,-2.2801,-2.4182,-2.3873,-2.3562,-2.3696,0.0,0.0,0.0,-2.4113,-2.4209,-2.4266,-2.4284,-2.4284,-2.4284,-2.4247,-2.4465,-2.5256,-2.474,-2.4428,-2.5146,-2.4981,-2.4749,-2.487,-2.6155,-2.7285,-2.74,-2.8415,-2.9197,-1.5082,-1.5487,-1.666,-1.7009,-1.688,-1.8179,-1.8781,-1.8826,-1.9179,-1.945,-1.966,-1.9405,-1.9435,-1.9705,-1.9705,0.0,0.0,0.0,-1.8942,-1.8283,-1.7608,-1.695,-1.6353,-1.5964,-1.5814,-1.5814,-1.6039,-1.6009,-1.5814,-1.6024,-1.6834,-1.8076,0.0,0.0,-1.8106,-1.7194,-1.6577,-1.6338,-1.5924,-1.5829,-1.6093,-1.5036,-1.4659,-1.4977,-1.495,-1.54,-1.6376,-1.6743,-1.7406,-1.84,-1.9174,-1.9831,0.0,0.0,0.0,0.0,0.0,0.0,0.0,0.0,0.0,0.0,0.0,-2.2947,0.0,0.0,0.0,0.0,-2.3437,-2.3165,-2.2875,-2.3063,0.0,0.0,0.0,0.0,0.0,0.0,0.0,-2.417,-2.419,-2.419,-2.419,-2.3768,-2.3841,-2.4795,-2.3906,-2.3533,-2.4496,0.0,-2.3896,-2.3896,-2.4074,-2.419,-2.419,-2.419,-2.419,-2.419,-2.419,-2.419,-2.419,-2.419,-2.4483,-2.5071,-2.476,-2.4612,-2.5897,-2.5425,-2.4828,-2.4936,-2.65,-2.7832,-2.789,-2.9159,-3.0081,-1.4965,-1.5169,-1.6715,-1.7276,-1.7226,-1.83,-1.879,-1.8792,-1.8743,-1.9071,-1.9666,-1.9046,-1.9121,-1.969,-1.9705,0.0,0.0,-1.9061,-1.8444,-1.7817,-1.716,-1.6532,-1.5963,-1.5963,-1.5918,-1.5903,-1.6518,-1.6488,-1.6023,-1.6502,-1.7,-1.7341,-1.691,-1.6925,-1.725,-1.6834,-1.6338,-1.5814,-1.6136,-1.6136,-1.5841,-1.5242,-1.5046,-1.5345,-1.5381,-1.5559,-1.5863,-1.6815,-1.7462,-1.7766,-1.8555,-1.9119,-1.9439,0.0,0.0,0.0,0.0,0.0,0.0,0.0,0.0,0.0,0.0,0.0,0.0,0.0,0.0,0.0,-2.3069,0.0,-2.2405,-2.2875,0.0,0.0,0.0,-2.3834,-2.4113,-2.3896,-2.3834,-2.417,0.0,0.0,0.0,0.0,-2.419,-2.419,-2.419,-2.4226,-2.4281,-2.4263,-2.419,-2.417,-2.419,-2.419,-2.419,-2.419,-2.419,-2.419,-2.419,-2.419,-2.419,-2.419,-2.452,-2.5274,-2.4742,-2.4667,-2.6245,-2.5594,-2.4898,-2.5029,-2.6553,-2.789,-2.7967,-2.9053,-3.0051,-1.5743,-1.6229,-1.7383,-1.7669,-1.7259,-1.7422,-1.8272,-1.9415,-1.9024,-1.9185,-1.9675,-1.9525,-1.954,-1.9705,-1.9705,-1.9705,-1.969,-1.9525,-1.9361,-1.9181,-1.8538,-1.7894,-1.7281,-1.7266,-1.6965,-1.6547,-1.7145,-1.7369,-1.7266,-1.7384,-1.7651,-1.793,-1.7106,-1.691,-1.7264,-1.644,-1.5934,-1.5814,-1.6136,-1.6274,-1.6163,-1.6037,-1.5836,-1.5684,-1.6186,-1.637,-1.6197,-1.7149,-1.7597,-1.7462,-1.8896,-1.9782,-1.9874,-2.1244,0.0,0.0,0.0,0.0,0.0,0.0,0.0,0.0,0.0,-2.3117,-2.2947,0.0,-2.323,0.0,-2.2797,-2.2772,-2.2965,-2.3135,0.0,0.0,-2.3631,-2.3714,-2.3816,-2.3735,-2.3816,-2.417,-2.419,-2.419,-2.419,-2.419,-2.419,-2.419,-2.419,-2.441,-2.4979,-2.4557,-2.419,-2.419,-2.419,-2.419,-2.419,-2.419,-2.419,-2.419,-2.419,-2.419,-2.419,-2.419,-2.4465,-2.5164,-2.4722,-2.474,-2.5768,-2.569,-2.5606,-2.5888,-2.6974,-2.789,-2.7928,-2.9183,-3.0299,-1.6245,-1.6552,-1.716,-1.7357,-1.7338,-1.771,-1.8464,-1.9332,-1.9058,-1.908,-1.9369,-1.9603,-1.9705,-1.9705,-1.9705,-1.9705,-1.9705,-1.9705,-1.9525,-1.9226,-1.8882,-1.8358,-1.7697,-1.7682,-1.7503,-1.7174,-1.7518,-1.7682,-1.7682,-1.7682,-1.7846,-1.8161,-1.7515,-1.7348,-1.7651,-1.6683,-1.6338,-1.6637,-1.6546,-1.6443,-1.6301,-1.6136,-1.612,-1.6218,-1.6929,-1.7119,-1.6778,-1.8053,-1.8478,-1.7893,-1.9194,-2.0179,-2.0531,-2.137,-2.1972,0.0,0.0,0.0,0.0,0.0,0.0,0.0,0.0,0.0,0.0,0.0,-2.2883,0.0,0.0,0.0,-2.2947,-2.31,-2.3346,-2.3671,-2.3837,-2.3858,-2.3714,-2.3837,-2.3876,-2.3774,-2.4016,-2.4151,-2.3996,-2.4113,-2.419,-2.419,-2.419,-2.4355,-2.4722,-2.4447,-2.419,-2.419,-2.419,-2.419,-2.419,-2.419,-2.419,-2.419,-2.419,-2.419,-2.419,-2.419,-2.4355,-2.4742,-2.4502,-2.4373,-2.498,-2.5467,-2.5799,-2.6238,-2.7225,-2.803,-2.8139,-2.9164,-3.0099,-1.6534,-1.6522,-1.6565,-1.6879,-1.734,-1.8302,-1.8741,-1.8817,-1.8727,-1.8765,-1.893,-1.9442,-1.9705,-1.9705,-1.9705,-1.9705,-1.9705,-1.9705,-1.9375,-1.8837,-1.8822,-1.8478,-1.7832,-1.7939,-1.7906,-1.7817,-1.7891,-1.7936,-1.7936,-1.7936,-1.8102,-1.8344,-1.8027,-1.8027,-1.8329,-1.7422,-1.7189,-1.7682,-1.713,-1.6728,-1.6496,-1.6168,-1.6293,-1.6832,-1.7603,-1.7844,-1.7521,-1.9098,-1.9555,-1.8632,-1.9512,-2.0389,-2.1073,-2.1208,-2.1518,0.0,-2.2254,0.0,0.0,0.0,0.0,0.0,0.0,0.0,0.0,-2.29,-2.2598,-2.2321,-2.2349,-2.248,-2.2746,-2.3069,-2.3392,-2.3714,-2.3996,-2.4034,-2.3735,-2.3917,-2.3876,-2.3323,-2.3795,-2.4036,-2.3837,-2.4034,-2.419,-2.419,-2.419,-2.4208,-2.4208,-2.4208,-2.419,-2.419,-2.419,-2.419,-2.419,-2.419,-2.419,-2.419,-2.419,-2.419,-2.419,-2.419,-2.4208,-2.4226,-2.4355,-2.441,-2.4355,-2.5263,-2.608,-2.6451,-2.7566,-2.8421,-2.8452,-2.907,-2.9639,-1.6534,-1.6552,-1.6951,-1.7229,-1.7312,-1.7517,-1.7867,-1.821,-1.7787,-1.8092,-1.893,-1.9442,-1.9705,-1.9705,-1.9705,-1.9705,-1.9705,-1.9705,-1.963,-1.9495,-1.9495,-1.9136,-1.8568,-1.9061,-1.9046,-1.8583,-1.9061,-1.9316,-1.9331,-1.9331,-1.9336,-1.9391,-1.8811,-1.8811,0.0,0.0,0.0,0.0,-1.7578,-1.7475,-1.7419,-1.7387,-1.7384,-1.7535,-1.8279,0.0,-1.8266,-1.9378,-1.9799,-1.9339,-1.9981,0.0,0.0,0.0,0.0,0.0,0.0,0.0,0.0,0.0,0.0,0.0,-2.2388,-2.249,-2.2764,-2.2554,-2.2377,-2.231,-2.25,-2.2764,-2.3069,-2.3414,-2.3735,-2.4074,-2.3917,-2.3756,-2.3692,-2.3504,-2.3414,-2.3588,-2.3732,-2.3876,-2.4074,-2.417,-2.419,-2.419,-2.419,-2.419,-2.419,-2.419,-2.419,-2.419,-2.419,-2.419,-2.419,-2.419,-2.419,-2.419,-2.419,-2.419,-2.419,-2.419,-2.419,-2.4208,-2.4742,-2.5146,-2.5164,-2.6381,-2.7322,-2.7472,-2.8212,-2.8804,-2.8498,-2.9093,-2.9696,-1.6534,0.0,-1.6795,-1.6909,0.0,-1.6921,-1.7076,-1.7353,-1.7585,-1.8302,-1.9295,-1.9603,-1.9705,-1.9705,-1.9705,-1.9705,-1.969,-1.9406,-1.9442,-1.9675,-1.9457,-1.9265,-1.9196,-1.9525,-1.951,-1.9196,-1.954,-1.9705,-1.9705,-1.9705,-1.9705,-1.9675,-1.9346,-1.9361,-1.9696,-1.9346,-1.8867,-1.8175,-1.8175,-1.8044,-1.7697,-1.7682,-1.7847,-1.8194,0.0,0.0,0.0,0.0,0.0,0.0,0.0,0.0,0.0,0.0,0.0,-2.1928,-2.218,-2.2327,-2.2327,-2.2327,-2.2327,-2.2327,-2.2327,-2.236,-2.2517,-2.2388,-2.2327,-2.231,-2.2426,-2.2695,-2.3141,-2.3369,-2.3653,-2.4112,-2.3896,-2.3649,-2.3459,-2.3305,-2.3189,-2.3236,-2.35,-2.3774,-2.3937,-2.3955,-2.4034,-2.4151,-2.4036,-2.4034,-2.417,-2.419,-2.419,-2.419,-2.419,-2.419,-2.419,-2.419,-2.419,-2.419,-2.419,-2.419,-2.419,-2.419,-2.419,-2.4245,-2.485,-2.5293,-2.5034,-2.6392,-2.7677,-2.7438,-2.8172,-2.892,-2.8756,-2.9038,-2.9375,-1.6534,-1.6534,-1.6534,-1.6534,-1.6534,-1.6534,-1.6552,-1.6723,0.0,0.0,0.0,-1.9515,-1.9603,-1.9675,-1.9603,-1.9566,-1.953,-1.9006,-1.9043,-1.9515,-1.9132,-1.9207,-1.969,-1.9705,-1.9705,-1.9705,-1.9705,-1.9705,-1.9705,-1.9705,-1.9705,-1.9705,-1.9705,-1.9705,-1.9705,-1.9705,-1.942,-1.8912,-1.8882,-1.8612,-1.8071,-1.8074,-1.8328,-1.8867,-1.9326,-1.9557,-1.9572,-2.0796,-2.1098,-2.0266,-2.0942,-2.1401,-2.15,-2.1495,-2.1688,-2.2135,-2.2254,-2.2327,-2.2327,-2.2327,-2.2327,-2.2327,-2.2327,-2.2327,-2.2327,-2.2327,-2.2327,-2.2327,-2.2349,-2.2598,-2.3087,-2.3165,-2.3414,-2.3958,-2.3714,-2.3392,-2.3159,-2.3045,-2.294,-2.2797,-2.3165,-2.3544,-2.3588,-2.361,-2.371,-2.3917,-2.3834,-2.3816,-2.4113,-2.419,-2.419,-2.419,-2.419,-2.419,-2.419,-2.419,-2.419,-2.419,-2.419,-2.419,-2.419,-2.419,-2.419,-2.419,-2.4869,-2.5126,-2.4905,-2.641,-2.7548,-2.7126,-2.8062,-2.8975,-2.8975,-2.8998,-2.9021,-1.6534,-1.6534,-1.6534,-1.6534,-1.6534,-1.6534,-1.6752,-1.7188,-1.7353,-1.7747,-1.8341,-1.8817,-1.9244,-1.969,-1.9207,-1.9006,-1.8968,-1.8458,-1.8496,0.0,-1.8945,-1.9169,-1.969,-1.9705,-1.9705,-1.9705,-1.9705,-1.9705,-1.969,-1.969,-1.9705,-1.969,-1.9705,-1.9705,-1.9705,-1.9705,-1.9645,-1.9555,-1.9555,-1.9495,-1.9405,-1.9405,-1.945,-1.9561,-1.9951,-2.019,-2.0175,-2.0766,-2.1021,-2.0854,-2.0622,-2.0646,-2.1034,-2.1087,-2.1275,-2.1688,-2.2061,-2.2327,-2.2327,-2.2327,-2.2327,-2.2327,-2.2327,-2.2327,-2.2327,-2.2327,-2.2327,-2.231,-2.25,-2.2686,-2.2797,-2.3021,-2.323,-2.3323,-2.3045,-2.2822,-2.2797,-2.2581,-2.2544,-2.2669,-2.2772,-2.2996,-2.3236,-2.3259,-2.33,-2.3392,-2.3544,-2.3777,-2.4054,-2.419,-2.419,-2.419,-2.419,-2.419,-2.419,-2.419,-2.419,-2.419,-2.419,-2.419,-2.419,-2.419,-2.419,-2.419,-2.487,-2.5456,-2.5933,-2.7034,-2.7805,-2.8191,-2.8682,-2.8975,-2.8975,-2.8975,-2.8975,-1.6534,-1.6534,-1.6534,-1.6534,-1.6534,-1.6534,-1.6637,-1.6879,-1.6879,-1.7353,-1.8092,-1.8341,-1.8612,-1.8817,-1.8574,-1.8496,-1.8458,-1.821,-1.8419,-1.8893,-1.8893,-1.9184,-1.969,-1.9705,-1.9705,-1.9705,-1.9705,-1.9566,-1.9317,-1.9566,-1.9566,-1.9281,-1.9566,-1.9705,-1.9705,-1.9705,-1.9705,-1.9705,-1.9705,-1.9705,-1.9705,-1.9705,-1.9705,-1.9705,-1.9874,-2.0089,-2.028,-2.0516,-2.0619,-2.0623,-2.0405,-2.0516,-2.0975,-2.1007,-2.1291,-2.1945,-2.218,-2.2327,-2.2327,-2.2327,-2.2327,-2.2327,-2.2327,-2.2327,-2.2327,-2.2327,-2.2327,-2.231,-2.2426,-2.2537,-2.2669,-2.2848,-2.2979,-2.3189,-2.2898,-2.2695,-2.2686,-2.2463,-2.2398,-2.2634,-2.2695,-2.2822,-2.3165,-2.3045,-2.3021,-2.3165,-2.3346,-2.3482,-2.3649,-2.3671,-2.3795,-2.4132,-2.419,-2.419,-2.419,-2.419,-2.419,-2.419,-2.419,-2.419,-2.419,-2.419,-2.419,-2.4245,-2.485,-2.5274,-2.5456,-2.6704,-2.7585,-2.7658,-2.8498,-2.8865,-2.8975,-2.8975,-2.8975,-1.6898,-1.6898,-1.656,-1.6393,-1.6337,-1.6423,-1.6534,-1.6534,-1.6522,-1.6951,-1.7706,-1.7867,-1.7973,-1.8106,-1.7987,-1.7933,-1.7907,-1.7787,-1.8092,-1.8688,-1.8727,-1.9058,-1.9669,-1.9824,-1.9839,-1.9735,-1.9715,-1.9442,-1.8997,-1.9207,-1.9207,-1.9006,-1.9457,-1.9705,-1.9705,-1.9705,-1.9705,-1.9705,-1.9705,-1.9705,-1.9705,-1.9705,-1.9705,-1.9705,-1.9726,-1.9839,-2.0124,-2.0143,-2.0162,-2.0153,-2.0147,-2.0418,-2.0942,-2.099,-2.1385,-2.218,-2.2327,-2.2327,-2.2327,-2.2327,-2.2327,-2.2327,-2.2327,-2.2327,-2.2327,-2.2327,-2.2327,-2.2327,-2.231,-2.2388,-2.2563,-2.2599,-2.2782,-2.315,-2.285,-2.2685,-2.2796,-2.2545,-2.2377,-2.2573,-2.2625,-2.273,-2.2883,-2.2781,-2.2738,-2.2996,-2.3093,-2.3093,-2.3165,-2.3189,-2.3437,-2.3795,-2.3976,-2.3996,-2.4054,-2.4074,-2.4094,-2.417,-2.419,-2.419,-2.419,-2.419,-2.419,-2.4245,-2.463,-2.4962,-2.4722,-2.6062,-2.7181,-2.7218,-2.8154,-2.8957,-2.8975,-2.8975,-2.8975,-1.7981,-1.7872,-1.683,-1.6107,-1.5836,-1.6318,-1.6572,-1.6559,-1.6534,-1.6565,-1.6765,-1.716,-1.7652,-1.7987,-1.7585,-1.7381,-1.7353,-1.6866,-1.7242,-1.8159,-1.8171,-1.8727,-1.9773,-2.0333,-2.0288,-1.9833,-1.985,-1.959,-1.8946,-1.8567,-1.8525,-1.893,-1.9442,-1.972,-1.972,-1.972,-1.9705,-1.9705,-1.9705,-1.9705,-1.9705,-1.9705,-1.9705,-1.9705,-1.9705,-1.9726,-1.9797,-1.9747,-1.9747,-1.9732,-1.9782,-2.0111,-2.0854,-2.099,-2.1385,-2.2225,-2.2299,-2.2327,-2.2327,-2.2327,-2.2344,-2.2327,-2.2327,-2.2327,-2.2327,-2.2327,-2.2327,-2.2327,-2.2327,-2.2338,-2.2349,-2.2366,-2.2694,-2.3255,-2.2796,-2.2587,-2.3078,-2.2728,-2.231,-2.2321,-2.2377,-2.2349,-2.2443,-2.2388,-2.2463,-2.2712,-2.2746,-2.284,-2.3021,-2.3111,-2.3135,-2.3253,-2.3282,-2.3437,-2.3649,-2.3735,-2.3837,-2.4094,-2.419,-2.417,-2.4151,-2.417,-2.419,-2.4208,-2.4263,-2.4538,-2.5146,-2.6117,-2.6869,-2.7383,-2.8154,-2.8975,-2.8975,-2.8975,-2.8975,-1.7169,-1.746,-1.6532,-1.6275,-1.6574,-1.7214,-1.7325,-1.7061,-1.7388,-1.7149,-1.6647,-1.7454,-1.7565,-1.7173,-1.6909,-1.6837,-1.6837,-1.6921,-1.758,-1.8643,-1.9021,-1.9749,-2.0848,-2.1141,-2.1126,-2.0848,-2.0546,-2.0043,-1.9543,-1.9239,-1.946,-1.9918,-2.0188,-2.0288,-2.0303,-2.0288,-2.0109,-1.9705,-2.0094,-2.0094,-1.9735,-1.9705,-1.9705,-1.9705,-1.9705,-1.9705,-1.9705,-1.9705,-1.9705,-1.9705,-1.9705,-1.9944,-2.0531,-2.0857,-2.1166,-2.154,-2.2162,-2.2651,-2.2907,-2.2953,-2.2953,-2.2953,-2.2547,-2.2327,-2.2327,-2.2327,-2.2327,-2.2327,-2.2327,-2.2327,-2.2361,-2.2682,-2.3071,-2.3308,-2.3122,-2.3088,-2.3325,-2.275,-2.2327,-2.2327,-2.2327,-2.2327,-2.2327,-2.2327,-2.2349,-2.2436,-2.2446,-2.2571,-2.266,-2.266,-2.266,-2.266,-2.266,-2.29,-2.3277,-2.3414,-2.35,-2.3588,-2.3795,-2.3896,-2.3917,-2.4094,-2.4208,-2.419,-2.417,-2.4262,-2.4538,-2.5346,-2.6135,-2.709,-2.8227,-2.8975,-2.8975,-2.8975,-2.8975,-1.7171,-1.7661,-1.7093,-1.6953,-1.7218,-1.7894,-1.7978,-1.7677,-1.8041,-1.7739,-1.7112,-1.7852,-1.7765,-1.7049,-1.6986,-1.6986,-1.7018,-1.7385,-1.8097,-1.9027,-1.9461,-2.028,-2.1355,-2.1632,-2.1602,-2.1374,-2.0966,-2.0299,-1.9591,-1.9814,-2.0117,-2.0443,-2.0629,-2.0807,-2.0923,-2.0659,-2.0302,-2.0049,-2.0303,-2.0183,-1.9801,-1.9705,-1.9705,-1.9705,-1.9705,-1.9705,-1.9705,-1.9705,-1.9705,-1.9705,-1.9705,-1.9867,-2.0273,-2.0605,-2.0926,-2.1198,-2.1918,-2.2604,-2.3059,-2.3088,-2.3105,-2.3054,-2.2581,-2.2327,-2.2344,-2.2496,-2.2615,-2.2649,-2.2784,-2.2902,-2.2682,-2.3274,-2.3748,-2.3951,-2.3866,-2.3727,-2.368,-2.3054,-2.2547,-2.2361,-2.2327,-2.2327,-2.2327,-2.2327,-2.231,-2.231,-2.231,-2.2327,-2.2327,-2.2338,-2.2338,-2.2327,-2.231,-2.2517,-2.2947,-2.3069,-2.3069,-2.3253,-2.3455,-2.3566,-2.3588,-2.3855,-2.3955,-2.3816,-2.3976,-2.4067,-2.4106,-2.4657,-2.591,-2.6936,-2.8017,-2.8887,-2.8975,-2.8994,-2.9127,-1.9024,-1.9469,-1.9071,-1.8179,-1.7351,-1.7991,-1.8216,-1.8179,-1.8267,-1.8179,-1.8066,-1.8254,-1.8204,-1.8103,-1.8116,-1.8116,-1.8091,-1.8088,-1.8439,-1.908,-1.9125,-1.971,-2.0724,-2.1398,-2.1427,-2.1011,-2.0918,-2.0065,-1.8563,-1.9409,-1.9901,-1.9986,-2.0514,-2.1012,-2.1346,-2.0483,-2.0094,-2.0482,-2.0139,-1.9765,-1.9705,-1.9705,-1.9705,-1.9705,-1.9705,-1.9705,-1.9705,-1.9705,-1.9705,-1.9705,-1.9705,-1.9867,-2.0243,-2.0297,-2.0667,-2.143,-2.1617,-2.1893,-2.236,-2.2496,-2.2479,-2.2429,-2.2462,-2.2344,-2.2462,-2.2987,-2.3296,-2.3342,-2.3934,-2.4052,-2.3566,-2.4005,-2.4695,-2.522,-2.4814,-2.4506,-2.4455,-2.3714,-2.3054,-2.253,-2.2344,-2.2327,-2.2327,-2.2327,-2.2327,-2.2327,-2.2327,-2.2327,-2.2327,-2.2327,-2.2327,-2.2327,-2.231,-2.2415,-2.266,-2.2738,-2.2865,-2.2996,-2.3087,-2.323,-2.3346,-2.3437,-2.3455,-2.3477,-2.3628,-2.3678,-2.3631,-2.4504,-2.6097,-2.7184,-2.7929,-2.8572,-2.87,-2.8923,-2.9177,-1.7024,-1.7775,-1.8524,-1.8542,-1.8283,-1.8907,-1.9045,-1.8819,-1.9497,-1.9171,-1.8518,-1.9296,-1.9397,-1.8756,-1.9083,-1.8857,-1.8242,-1.8204,-1.8891,-2.0013,-2.0127,-2.0792,-2.1857,-2.2203,-2.2189,-2.1885,-2.1172,-2.0289,-1.9445,-2.0053,-2.0482,-2.059,-2.1046,-2.1455,-2.158,-2.1204,-2.0931,-2.0684,-2.0453,-2.0139,-1.9735,-1.9705,-1.9705,-1.9705,-1.9705,-1.9705,-1.9705,-1.9705,-1.9705,-1.9705,-1.9705,-1.9771,-1.9903,-1.9919,-2.0416,-2.1479,-2.1792,-2.2241,-2.287,-2.3004,-2.3004,-2.3004,-2.3004,-2.2958,-2.3122,-2.3646,-2.3978,-2.3861,-2.462,-2.4856,-2.4579,-2.4842,-2.5304,-2.549,-2.5372,-2.5186,-2.4966,-2.4154,-2.3274,-2.3004,-2.2632,-2.2327,-2.2344,-2.2327,-2.2327,-2.2327,-2.2327,-2.2327,-2.2327,-2.2327,-2.2327,-2.2327,-2.231,-2.2321,-2.2398,-2.2436,-2.2517,-2.259,-2.2721,-2.284,-2.2947,-2.3189,-2.3253,-2.3206,-2.33,-2.346,-2.3517,-2.439,-2.5985,-2.6987,-2.7754,-2.8192,-2.8308,-2.8835,-2.9319,-1.7291,-1.8216,-1.9171,-1.9618,-1.9672,-2.0113,-2.015,-1.9911,-2.0602,-2.03,-1.9623,-2.0464,-2.0514,-1.9949,-2.0188,-1.9999,-1.9284,-1.9108,-1.9635,-2.0719,-2.0939,-2.1574,-2.2353,-2.2346,-2.2264,-2.2055,-2.1059,-2.0194,-1.9952,-2.0459,-2.0809,-2.0855,-2.123,-2.1645,-2.1872,-2.1612,-2.1248,-2.1024,-2.1021,-2.0707,-2.0124,-2.0228,-2.0333,-2.0333,-2.037,-2.013,-1.9735,-1.9705,-1.9705,-1.9705,-1.9705,-1.9779,-1.9974,-2.0004,-2.0547,-2.1553,-2.1714,-2.2133,-2.2904,-2.3054,-2.2962,-2.2845,-2.3016,-2.312,-2.3031,-2.3832,-2.4083,-2.4162,-2.4962,-2.5547,-2.5393,-2.5665,-2.5964,-2.5931,-2.5815,-2.5581,-2.5296,-2.4314,-2.3564,-2.317,-2.3135,-2.2856,-2.2462,-2.2564,-2.2547,-2.2378,-2.2327,-2.2327,-2.2327,-2.2327,-2.2327,-2.2327,-2.2327,-2.2327,-2.2349,-2.2349,-2.2349,-2.2443,-2.248,-2.2563,-2.266,-2.289,-2.3014,-2.2982,-2.3087,-2.3263,-2.3762,-2.4558,-2.553,-2.663,-2.736,-2.7904,-2.8315,-2.8865,-2.9433,-2.0225,-2.1132,-2.1468,-2.1312,-2.1274,-2.133,-2.1418,-2.133,-2.1443,-2.1355,-2.1117,-2.1455,-2.1405,-2.1368,-2.1267,-2.1355,-2.1129,-2.074,-2.0693,-2.0885,-2.1314,-2.1792,-2.2403,-2.1891,-2.1654,-2.155,-2.045,-1.99,-1.9938,-2.0435,-2.0709,-2.0746,-2.0805,-2.139,-2.256,-2.1471,-2.114,-2.1421,-2.1475,-2.1242,-2.0833,-2.1153,-2.1421,-2.156,-2.1545,-2.0976,-1.9809,-1.9765,-1.9794,-1.975,-1.9765,-2.0034,-2.0602,-2.0722,-2.1072,-2.165,-2.139,-2.1499,-2.2144,-2.2315,-2.2224,-2.2052,-2.2324,-2.272,-2.2715,-2.3529,-2.4195,-2.4292,-2.5127,-2.5859,-2.5862,-2.6145,-2.6472,-2.6624,-2.6164,-2.5688,-2.4982,-2.4366,-2.371,-2.2998,-2.3343,-2.3684,-2.2919,-2.2767,-2.2885,-2.2581,-2.2462,-2.2479,-2.2496,-2.2513,-2.2395,-2.235,-2.2361,-2.2327,-2.2327,-2.2327,-2.2327,-2.231,-2.2338,-2.2388,-2.2436,-2.2607,-2.2634,-2.2651,-2.298,-2.3231,-2.4035,-2.4815,-2.5584,-2.6519,-2.7122,-2.7609,-2.8006,-2.8578,-2.9612,-2.0394,-2.0779,-2.1313,-2.1481,-2.1481,-2.1481,-2.1481,-2.1543,-2.187,-2.1845,-2.1606,-2.1882,-2.1845,-2.1543,-2.1481,-2.1493,-2.1506,-2.1669,-2.1794,-2.182,-2.1983,-2.216,-2.2216,-2.1801,-2.1342,-2.1011,-2.0595,-2.0441,-2.0378,-2.0258,-2.0105,-2.0194,-2.061,-2.0979,-2.1424,-2.1387,-2.1397,-2.1095,-2.1024,-2.0884,-2.0738,-2.0898,-2.1248,-2.164,-2.1695,-2.1261,-2.0468,-2.0393,-2.0393,-2.0378,-2.0408,-2.0707,-2.1246,-2.1395,-2.1432,-2.1455,-2.1327,-2.1223,-2.1421,-2.1857,-2.2053,-2.2118,-2.2905,-2.3529,-2.3531,-2.4212,-2.4608,-2.4422,-2.4994,-2.5335,-2.5067,-2.5373,-2.5835,-2.6191,-2.6068,-2.5697,-2.4991,-2.4083,-2.3245,-2.272,-2.2578,-2.2625,-2.2899,-2.3042,-2.2895,-2.3042,-2.3009,-2.3004,-2.3054,-2.3004,-2.3054,-2.3038,-2.275,-2.2361,-2.2327,-2.2327,-2.2327,-2.2327,-2.2327,-2.2327,-2.2349,-2.2377,-2.2377,-2.2592,-2.292,-2.3516,-2.4316,-2.5045,-2.5785,-2.6409,-2.7012,-2.7336,-2.7545,-2.8319,-2.9455,-2.1307,-2.1762,-2.2065,-2.2402,-2.2593,-2.2031,-2.1777,-2.1977,-2.226,-2.2112,-2.1839,-2.2343,-2.2435,-2.2146,-2.2096,-2.2108,-2.2146,-2.2485,-2.2434,-2.2256,-2.2493,-2.2564,-2.2535,-2.2046,-2.1506,-2.1066,-2.0966,-2.0966,-2.0953,-2.0614,-2.0326,-2.0267,-2.0579,-2.0806,-2.0809,-2.1144,-2.1149,-2.0854,-2.0988,-2.1097,-2.1055,-2.1097,-2.1485,-2.2218,-2.2191,-2.186,-2.1462,-2.1256,-2.0951,-2.0893,-2.1141,-2.156,-2.171,-2.1704,-2.1598,-2.1316,-2.1058,-2.0905,-2.1054,-2.1664,-2.1911,-2.203,-2.3033,-2.3676,-2.374,-2.4201,-2.4415,-2.4241,-2.4592,-2.4792,-2.4552,-2.491,-2.5243,-2.5357,-2.5373,-2.5182,-2.4626,-2.4067,-2.3407,-2.3087,-2.3024,-2.308,-2.306,-2.3445,-2.3223,-2.3522,-2.3456,-2.3579,-2.3613,-2.3545,-2.3494,-2.3376,-2.3088,-2.2716,-2.2378,-2.2327,-2.2327,-2.2327,-2.2327,-2.2327,-2.231,-2.2355,-2.2355,-2.2813,-2.3192,-2.3905,-2.4695,-2.5169,-2.5809,-2.6364,-2.699,-2.7401,-2.7811,-2.8476,-2.952,-2.2835,-2.3879,-2.346,-2.361,-2.4079,-2.2567,-2.2079,-2.2545,-2.2445,-2.2237,-2.2231,-2.269,-2.3042,-2.309,-2.3,-2.2949,-2.31,-2.2965,-2.2615,-2.225,-2.2494,-2.2832,-2.2777,-2.241,-2.197,-2.1594,-2.1468,-2.1481,-2.1518,-2.1368,-2.123,-2.0806,-2.0797,-2.0743,-2.0832,-2.0799,-2.0863,-2.0731,-2.1252,-2.1523,-2.1522,-2.1583,-2.2094,-2.3157,-2.2774,-2.2419,-2.216,-2.17,-2.1293,-2.1015,-2.1858,-2.2211,-2.1949,-2.1784,-2.168,-2.1409,-2.074,-2.0727,-2.1049,-2.1695,-2.1918,-2.1688,-2.2678,-2.3157,-2.3111,-2.3492,-2.3794,-2.3724,-2.4101,-2.4348,-2.4389,-2.4657,-2.4776,-2.4471,-2.4486,-2.4241,-2.3752,-2.3994,-2.3683,-2.3522,-2.4193,-2.4569,-2.3247,-2.3939,-2.3997,-2.3984,-2.3727,-2.3967,-2.4289,-2.4205,-2.368,-2.3477,-2.341,-2.2885,-2.2479,-2.2327,-2.2327,-2.2327,-2.2344,-2.2361,-2.2446,-2.2479,-2.2598,-2.3054,-2.3714,-2.4425,-2.5,-2.5524,-2.5964,-2.6504,-2.7063,-2.7605,-2.8147,-2.8744,-2.9632,-2.3842,-2.3508,-2.3364,-2.3077,-2.2672,-2.2058,-2.1991,-2.2071,-2.206,-2.2306,-2.2728,-2.2731,-2.3081,-2.3666,-2.3253,-2.3125,-2.3078,-2.3103,-2.2689,-2.2013,-2.2075,-2.2322,-2.248,-2.241,-2.2201,-2.2013,-2.1713,-2.1694,-2.2046,-2.1631,-2.14,-2.1292,-2.1144,-2.1046,-2.0832,-2.1082,-2.0873,-2.0254,-2.0726,-2.1024,-2.1035,-2.1054,-2.139,-2.2039,-2.2039,-2.1736,-2.1387,-2.1119,-2.1205,-2.144,-2.1728,-2.2379,-2.2822,-2.2592,-2.2119,-2.1635,-2.1432,-2.1114,-2.1096,-2.1866,-2.2306,-2.2173,-2.2929,-2.3453,-2.3398,-2.349,-2.3595,-2.3638,-2.3752,-2.3837,-2.3837,-2.3948,-2.3948,-2.3879,-2.3879,-2.3794,-2.3606,-2.3318,-2.3132,-2.3286,-2.3266,-2.3371,-2.3681,-2.3695,-2.3861,-2.429,-2.443,-2.4547,-2.4909,-2.505,-2.4611,-2.4086,-2.3782,-2.3088,-2.2598,-2.2412,-2.2327,-2.2327,-2.2361,-2.2429,-2.2598,-2.2801,-2.3021,-2.3359,-2.4357,-2.5152,-2.5541,-2.5981,-2.637,-2.6742,-2.7232,-2.7791,-2.8264,-2.8842,-2.985,-2.397,-2.3063,-2.3283,-2.3085,-2.2462,-2.1675,-2.1496,-2.168,-2.1659,-2.1809,-2.2218,-2.2706,-2.3047,-2.3376,-2.3679,-2.3478,-2.3153,-2.317,-2.2471,-2.1353,-2.0974,-2.1265,-2.1982,-2.2412,-2.2471,-2.2077,-2.1795,-2.1844,-2.1956,-2.1463,-2.1233,-2.1144,-2.0921,-2.0459,-1.9924,-2.0244,-2.0261,-1.9801,-2.0047,-2.0386,-2.0759,-2.0497,-2.0917,-2.1424,-2.1472,-2.1104,-2.0799,-2.0521,-2.0651,-2.1282,-2.1812,-2.2352,-2.2731,-2.2793,-2.2368,-2.1754,-2.1695,-2.1485,-2.141,-2.2113,-2.2604,-2.2607,-2.3191,-2.352,-2.358,-2.3595,-2.3595,-2.3595,-2.3595,-2.3595,-2.3595,-2.3595,-2.3595,-2.3638,-2.3595,-2.3595,-2.3595,-2.331,-2.3212,-2.3254,-2.3138,-2.3035,-2.3849,-2.3662,-2.3961,-2.4441,-2.4642,-2.5073,-2.553,-2.5597,-2.549,-2.4881,-2.4526,-2.4052,-2.341,-2.3105,-2.3105,-2.3038,-2.3004,-2.297,-2.3071,-2.3342,-2.3714,-2.4188,-2.5067,-2.5744,-2.6065,-2.6387,-2.6759,-2.7148,-2.7536,-2.8093,-2.8704,-2.9228,-3.0183,-2.3559,-2.2695,-2.3161,-2.335,-2.2818,-2.1364,-2.0949,-2.126,-2.1208,-2.1084,-2.1272,-2.2434,-2.2689,-2.2551,-2.3373,-2.3726,-2.2862,-2.281,-2.2024,-2.0896,-2.0215,-2.0446,-2.162,-2.2296,-2.2199,-2.1791,-2.1812,-2.1925,-2.1803,-2.1129,-2.0934,-2.0967,-2.04,-1.9627,-1.9448,-1.9227,-1.9192,-1.9566,-1.9706,-2.018,-2.0708,-2.0489,-2.0641,-2.1238,-2.0944,-2.0683,-2.0481,-2.0218,-2.0101,-2.0688,-2.1847,-2.2107,-2.1842,-2.232,-2.2206,-2.1832,-2.1713,-2.1724,-2.1904,-2.2443,-2.2832,-2.2921,-2.331,-2.3595,-2.3595,-2.3595,-2.3595,-2.3595,-2.3595,-2.3595,-2.3595,-2.3595,-2.3595,-2.3595,-2.3595,-2.3595,-2.3595,-2.3595,-2.3595,-2.3595,-2.358,-2.3595,-2.3724,-2.3991,-2.4302,-2.4375,-2.4654,-2.5058,-2.5532,-2.578,-2.5698,-2.5456,-2.5253,-2.5169,-2.4509,-2.3913,-2.3968,-2.4002,-2.3985,-2.3951,-2.3917,-2.4171,-2.456,-2.5084,-2.5659,-2.6116,-2.6454,-2.6793,-2.7046,-2.7385,-2.7706,-2.8586,-2.9465,-2.9922,-3.0671,-2.342,-2.2211,-2.27,-2.222,-2.1262,-2.0779,-2.0663,-2.0785,-2.0785,-2.1055,-2.1586,-2.172,-2.1848,-2.2071,-2.2226,-2.1781,-2.1763,-2.1731,-2.1229,-2.0711,-2.0449,-2.0449,-2.0953,-2.1419,-2.1362,-2.1164,-2.1619,-2.1847,-2.1667,-2.1297,-2.124,-2.1483,-2.0613,-2.0124,-1.961,-1.9375,-1.9667,-1.9982,-2.0003,-2.0399,-2.102,-2.08,-2.061,-2.0953,-2.0374,-2.0055,-2.0003,-1.9901,-1.9889,-2.018,-2.0788,-2.137,-2.1574,-2.1468,-2.1525,-2.1758,-2.1785,-2.197,-2.2465,-2.2981,-2.3385,-2.337,-2.346,-2.3595,-2.3595,-2.3595,-2.3595,-2.3595,-2.3595,-2.3595,-2.3595,-2.3595,-2.3595,-2.3595,-2.3595,-2.3595,-2.3595,-2.3595,-2.3595,-2.3595,-2.3595,-2.3595,-2.3595,-2.3681,-2.3991,-2.4292,-2.4634,-2.4984,-2.5382,-2.5818,-2.5899,-2.5797,-2.5778,-2.5659,-2.527,-2.4709,-2.4594,-2.4695,-2.4777,-2.4763,-2.4746,-2.4966,-2.5338,-2.5693,-2.6082,-2.6454,-2.6674,-2.6725,-2.6877,-2.7334,-2.7909,-2.8822,-2.9685,-3.0328,-3.0942,-2.2748,-2.171,-2.2174,-2.1665,-2.0741,-2.0576,-2.0576,-2.0576,-2.0576,-2.0867,-2.1334,-2.1455,-2.1617,-2.168,-2.1838,-2.1912,-2.1417,-2.1054,-2.0688,-2.0277,-2.0102,-1.9971,-2.0103,-2.0429,-2.053,-2.0622,-2.1004,-2.127,-2.114,-2.0733,-2.0525,-2.1141,-2.0266,-1.9452,-1.9225,-1.9101,-1.9304,-1.978,-1.9978,-2.0429,-2.1219,-2.1217,-2.092,-2.0614,-2.0125,-1.9798,-1.9798,-1.9798,-1.9798,-1.9901,-2.0156,-2.0646,-2.117,-2.1246,-2.1559,-2.2012,-2.2146,-2.2469,-2.305,-2.337,-2.358,-2.3551,-2.3595,-2.3595,-2.3595,-2.3595,-2.3595,-2.3595,-2.3595,-2.3595,-2.3595,-2.3595,-2.3595,-2.3595,-2.3595,-2.3595,-2.3595,-2.3595,-2.3595,-2.3595,-2.3595,-2.3595,-2.3595,-2.3595,-2.3638,-2.3975,-2.4374,-2.4713,-2.5255,-2.5701,-2.6079,-2.6135,-2.6184,-2.6065,-2.5828,-2.549,-2.5186,-2.5253,-2.537,-2.5355,-2.5355,-2.5693,-2.6099,-2.6302,-2.6437,-2.6522,-2.6708,-2.6708,-2.6962,-2.7672,-2.8383,-2.9127,-2.9871,-3.0649,-3.1179,-2.2038,-2.1201,-2.1716,-2.1369,-2.0644,-2.0576,-2.0576,-2.0576,-2.0576,-2.0644,-2.0712,-2.1451,-2.135,-2.1251,-2.1811,-2.2024,-2.1534,-2.0997,-2.0467,-2.0157,-1.9895,-1.9787,-1.9881,-2.0083,-2.0306,-2.0555,-2.069,-2.073,-2.0471,-1.9897,-2.0114,-2.0317,-1.9404,-1.8904,-1.8595,-1.8438,-1.8946,-1.9854,-2.0138,-2.0705,-2.1609,-2.1707,-2.133,-2.0665,-2.03,-1.9924,-1.9849,-1.9798,-1.9798,-1.9798,-1.9798,-2.0105,-2.0584,-2.1099,-2.171,-2.23,-2.2275,-2.252,-2.2863,-2.3231,-2.3363,-2.3363,-2.3421,-2.3421,-2.3421,-2.3538,-2.3714,-2.3789,-2.3834,-2.3774,-2.3625,-2.3595,-2.3595,-2.3595,-2.3595,-2.3595,-2.3595,-2.3595,-2.3595,-2.3595,-2.3595,-2.3595,-2.3595,-2.3595,-2.3595,-2.3681,-2.4074,-2.4471,-2.5012,-2.5395,-2.5701,-2.5952,-2.5872,-2.6065,-2.5933,-2.6116,-2.5796,-2.5762,-2.5896,-2.593,-2.5947,-2.6167,-2.6437,-2.6556,-2.6657,-2.6708,-2.6708,-2.6708,-2.7165,-2.801,-2.867,-2.9228,-3.0057,-3.097,-3.1365,-2.1725,-2.123,-2.1302,-2.1066,-2.0673,-2.0576,-2.0576,-2.0576,-2.0576,-2.0576,-2.0644,-2.0779,-2.0619,-2.0387,-2.0267,-2.0356,-2.0474,-2.0462,-2.0523,-2.04,-2.0283,-2.0244,-2.0254,-2.0293,-2.0495,-2.0525,-2.0625,-2.0575,-2.0493,-2.0096,-2.0082,-2.0278,-1.9643,-1.9043,-1.8887,-1.8889,-1.9517,-2.0366,-2.0789,-2.1537,-2.2307,-2.2259,-2.1707,-2.0903,-2.0589,-2.025,-1.9899,-1.9823,-1.9798,-1.9798,-1.9798,-1.9901,-2.0042,-2.0194,-2.0584,-2.121,-2.1724,-2.2086,-2.2271,-2.262,-2.2483,-2.2331,-2.2575,-2.2889,-2.3024,-2.3348,-2.3746,-2.4148,-2.4209,-2.4178,-2.3655,-2.3595,-2.3595,-2.3595,-2.3595,-2.3595,-2.3595,-2.3595,-2.3595,-2.3595,-2.3595,-2.3595,-2.3595,-2.3595,-2.3595,-2.3595,-2.3752,-2.4158,-2.4617,-2.4831,-2.4957,-2.5189,-2.5341,-2.5677,-2.5914,-2.6267,-2.6354,-2.6286,-2.6337,-2.6488,-2.6522,-2.6573,-2.6708,-2.6894,-2.6826,-2.6708,-2.6708,-2.6742,-2.7351,-2.8197,-2.8755,-2.9296,-3.0176,-3.1038,-3.1258,-2.1631,-2.1221,-2.0986,-2.0771,-2.0586,-2.0576,-2.0576,-2.0576,-2.0576,-2.0576,-2.0576,-2.0557,-2.0459,-2.0234,-1.998,-1.9912,-2.0029,-2.0371,-2.0557,-2.0576,-2.0576,-2.0576,-2.0576,-2.0576,-2.0576,-2.0634,-2.0605,-2.0621,-2.0581,-2.0365,-2.0391,-2.0402,-1.9895,-1.9492,-1.9452,-1.9807,-2.0327,-2.0975,-2.1567,-2.2261,-2.2957,-2.2552,-2.197,-2.1594,-2.0953,-2.058,-2.0288,-1.9899,-1.9811,-1.9798,-1.9798,-1.9798,-1.9798,-1.985,-2.0105,-2.0746,-2.1342,-2.1697,-2.1805,-2.2285,-2.2392,-2.1899,-2.23,-2.2649,-2.2844,-2.3231,-2.3761,-2.3984,-2.4088,-2.3984,-2.3625,-2.3595,-2.3595,-2.3595,-2.3595,-2.3595,-2.3595,-2.3595,-2.3595,-2.3595,-2.3595,-2.3595,-2.3595,-2.3595,-2.3595,-2.3595,-2.3595,-2.3864,-2.4307,-2.4389,-2.4486,-2.4792,-2.5028,-2.5259,-2.5615,-2.598,-2.628,-2.635,-2.6572,-2.6724,-2.6945,-2.6962,-2.7114,-2.7351,-2.7165,-2.686,-2.6894,-2.7029,-2.7706,-2.8416,-2.9127,-2.982,-3.0446,-3.097,-3.1241,-2.1553,-2.1191,-2.0752,-2.0576,-2.0576,-2.0576,-2.0576,-2.0576,-2.0576,-2.0576,-2.0576,-2.0566,-2.0566,-2.0478,-2.0254,-2.0068,-2.0078,-2.0527,-2.0674,-2.0605,-2.0703,-2.0703,-2.0596,-2.0664,-2.0693,-2.0586,-2.0742,-2.0644,-2.0633,-2.0575,-2.0547,-2.0477,-2.0146,-2.0112,-2.0262,-2.0427,-2.0973,-2.1486,-2.1864,-2.2443,-2.2616,-2.2295,-2.2092,-2.218,-2.1319,-2.0765,-2.0589,-2.0263,-1.9949,-1.9849,-1.9798,-1.9798,-1.9798,-1.9798,-2.0055,-2.0597,-2.121,-2.139,-2.1424,-2.1819,-2.1819,-2.1183,-2.2053,-2.2406,-2.2766,-2.3185,-2.3834,-2.367,-2.3834,-2.3804,-2.367,-2.3595,-2.3595,-2.3595,-2.3595,-2.3595,-2.3595,-2.3595,-2.3595,-2.3595,-2.3595,-2.3595,-2.3595,-2.3595,-2.3595,-2.3595,-2.3595,-2.3666,-2.3991,-2.4074,-2.4241,-2.4552,-2.4792,-2.491,-2.5182,-2.5486,-2.5709,-2.5835,-2.6222,-2.6567,-2.6958,-2.723,-2.7467,-2.7688,-2.7435,-2.7199,-2.7249,-2.7537,-2.8298,-2.9042,-2.9685,-3.026,-3.0784,-3.1145,-3.1382,-2.1279,-2.1201,-2.0752,-2.0576,-2.0576,-2.0576,-2.0576,-2.0566,-2.0547,-2.0576,-2.0566,-2.0557,-2.0537,-2.0537,-2.0518,-2.0469,-2.0586,-2.0791,-2.084,-2.0644,-2.085,-2.084,-2.0674,-2.1006,-2.0801,-2.0654,-2.0908,-2.0889,-2.0664,-2.0576,-2.0576,-2.0527,-2.0546,-2.0685,-2.1049,-2.0937,-2.1061,-2.1618,-2.1224,-2.1263,-2.1769,-2.126,-2.1436,-2.1738,-2.1455,-2.0913,-2.0789,-2.0598,-2.0388,-1.9911,-1.9849,-1.9823,-1.9798,-1.9798,-1.9798,-2.0042,-2.0383,-2.0633,-2.0383,-2.0881,-2.0979,-2.0657,-2.1232,-2.1697,-2.2385,-2.3447,-2.4134,-2.3655,-2.3999,-2.4103,-2.3699,-2.361,-2.3595,-2.3595,-2.3595,-2.3595,-2.3595,-2.3595,-2.3595,-2.3595,-2.3595,-2.3595,-2.3595,-2.3595,-2.3595,-2.3595,-2.3595,-2.3681,-2.3709,-2.3837,-2.3879,-2.4158,-2.4348,-2.4471,-2.4632,-2.4973,-2.5326,-2.5371,-2.5912,-2.6531,-2.7294,-2.7791,-2.7803,-2.7889,-2.7722,-2.7858,-2.8146,-2.8552,-2.9076,-2.9651,-3.0311,-3.07,-3.1038,-3.1297,-3.145,-2.0859,-2.083,-2.0635,-2.0576,-2.0576,-2.0576,-2.0576,-2.0518,-2.0303,-2.0342,-2.0478,-2.0283,-2.0322,-2.0527,-2.0576,-2.0566,-2.0615,-2.0801,-2.0762,-2.0625,-2.0762,-2.0771,-2.0644,-2.0742,-2.0693,-2.0693,-2.0723,-2.0732,-2.0596,-2.0576,-2.0576,-2.0576,-2.0644,-2.1008,-2.1553,-2.148,-2.167,-2.1662,-2.1184,-2.0841,-2.0948,-2.0824,-2.0796,-2.1337,-2.1114,-2.0937,-2.0937,-2.1063,-2.0861,-2.0423,-2.0298,-2.0112,-1.9899,-1.9798,-1.9798,-1.9798,-2.0055,-2.0093,-1.9952,-2.0459,-2.0308,-2.0295,-2.0953,-2.1852,-2.2473,-2.3504,-2.4059,-2.3171,-2.3659,-2.382,-2.3656,-2.361,-2.3595,-2.3595,-2.3551,-2.3595,-2.3595,-2.3595,-2.3595,-2.3595,-2.3595,-2.3595,-2.3625,-2.3714,-2.3729,-2.3744,-2.3699,-2.3698,-2.3668,-2.3681,-2.3681,-2.3681,-2.3837,-2.3964,-2.4116,-2.4405,-2.5023,-2.528,-2.5879,-2.6665,-2.7904,-2.8417,-2.8373,-2.8561,-2.8704,-2.8873,-2.9093,-2.9194,-2.9364,-3.0091,-3.092,-3.1055,-3.1157,-3.1275,-3.167,-2.0576,-2.0576,-2.0576,-2.0576,-2.0576,-2.0576,-2.0488,-2.0352,-2.0068,-2.0107,-2.0283,-2.0195,-2.0293,-2.0498,-2.0576,-2.0576,-2.0576,-2.0674,-2.0635,-2.0625,-2.0664,-2.0693,-2.0674,-2.0664,-2.0723,-2.0576,-2.0791,-2.0713,-2.0605,-2.0576,-2.0576,-2.0576,-2.0576,-2.1135,-2.1659,-2.1587,-2.1364,-2.0977,-2.0368,-2.0128,-2.0172,-2.0009,-2.0204,-2.052,-2.0745,-2.0897,-2.1081,-2.1519,-2.1437,-2.0782,-2.0623,-2.0351,-1.9924,-1.9798,-1.9798,-1.9798,-1.9901,-1.9901,-1.9901,-2.0156,-2.0207,-2.0372,-2.0864,-2.1863,-2.2324,-2.3487,-2.3725,-2.2495,-2.274,-2.3127,-2.3334,-2.3334,-2.3421,-2.3421,-2.3421,-2.3508,-2.3523,-2.3437,-2.3509,-2.3595,-2.3595,-2.3595,-2.367,-2.3819,-2.3879,-2.3879,-2.3834,-2.3789,-2.3744,-2.3744,-2.3699,-2.3714,-2.3728,-2.3814,-2.3885,-2.4189,-2.4694,-2.525,-2.5864,-2.6671,-2.7814,-2.8584,-2.8793,-2.9075,-2.9383,-2.9482,-2.9465,-2.9499,-2.9617,-3.0429,-3.1072,-3.1123,-3.1224,-3.1399,-3.1907,-2.0576,-2.0576,-2.0557,-2.0557,-2.0576,-2.0576,-2.0342,-2.0078,-1.9941,-1.9902,-2.0,-2.0312,-2.0488,-2.0566,-2.0576,-2.0576,-2.0586,-2.0996,-2.085,-2.0791,-2.0918,-2.083,-2.0762,-2.0801,-2.0908,-2.0684,-2.0801,-2.0781,-2.0654,-2.0576,-2.0576,-2.0576,-2.0576,-2.1155,-2.1486,-2.1404,-2.0567,-2.0042,-1.9274,-1.9182,-1.9081,-1.8977,-1.9044,-2.0204,-2.0576,-2.0711,-2.0996,-2.178,-2.1806,-2.0909,-2.0824,-2.0413,-1.9949,-1.9823,-1.9798,-1.9798,-1.9798,-1.9798,-1.9901,-1.9901,-1.9901,-2.0182,-2.0835,-2.1645,-2.1807,-2.2353,-2.2387,-2.1963,-2.2086,-2.2271,-2.2575,-2.2785,-2.295,-2.2995,-2.2979,-2.3081,-2.311,-2.3199,-2.3259,-2.3509,-2.3729,-2.3969,-2.4193,-2.4462,-2.4328,-2.4328,-2.4507,-2.4477,-2.4178,-2.4103,-2.3939,-2.3879,-2.3819,-2.3848,-2.3878,-2.4294,-2.4956,-2.5484,-2.5997,-2.6698,-2.759,-2.8211,-2.8876,-2.932,-2.957,-2.971,-2.9888,-3.004,-3.0289,-3.0852,-3.1207,-3.1258,-3.1579,-3.1941,-3.2523,-2.0176,-2.0166,-2.0166,-2.0312,-2.0576,-2.0576,-2.0469,-2.0234,-1.9766,-1.9531,-1.958,-2.0225,-2.0576,-2.0576,-2.0576,-2.0576,-2.0596,-2.0723,-2.0684,-2.0664,-2.0703,-2.0703,-2.0674,-2.0703,-2.0723,-2.0635,-2.0762,-2.0781,-2.0596,-2.0576,-2.0576,-2.0576,-2.0576,-2.1155,-2.14,-2.1241,-2.039,-1.9438,-1.8857,-1.8626,-1.8359,-1.8259,-1.8337,-1.8854,-2.0333,-2.0576,-2.095,-2.2128,-2.194,-2.1436,-2.1089,-2.049,-1.9793,-1.972,-1.9695,-1.9747,-1.9747,-1.9747,-1.9798,-1.985,-2.0003,-2.0513,-2.1156,-2.1555,-2.1256,-2.201,-2.1969,-2.167,-2.1411,-2.171,-2.1946,-2.2086,-2.2179,-2.2271,-2.2417,-2.2526,-2.2776,-2.2922,-2.327,-2.3668,-2.4267,-2.4792,-2.5016,-2.5241,-2.5001,-2.4746,-2.497,-2.5121,-2.4792,-2.4597,-2.4507,-2.4477,-2.4462,-2.4537,-2.4597,-2.4956,-2.536,-2.5753,-2.6195,-2.6885,-2.7642,-2.8109,-2.8754,-2.9226,-2.9732,-2.9938,-3.0195,-3.0544,-3.0864,-3.1123,-3.1292,-3.141,-3.1873,-3.2381,-3.3049,-1.9727,-1.9727,-1.9727,-1.998,-2.0361,-2.0518,-2.0478,-2.0254,-1.9609,-1.9277,-1.9346,-2.0166,-2.0576,-2.0576,-2.0576,-2.0576,-2.0576,-2.0596,-2.0586,-2.0586,-2.0586,-2.0576,-2.0576,-2.0586,-2.0615,-2.0576,-2.0576,-2.0576,-2.0576,-2.0576,-2.0576,-2.0576,-2.0644,-2.1078,-2.1166,-2.1018,-2.0295,-1.9466,-1.8721,-1.8359,-1.8018,-1.8008,-1.8269,-1.8529,-1.9694,-2.0322,-2.0726,-2.1498,-2.1449,-2.0902,-2.0473,-2.0072,-1.9509,-1.915,-1.9254,-1.9371,-1.9475,-1.9527,-1.9747,-1.985,-2.0003,-2.0373,-2.0978,-2.0991,-2.0998,-2.1486,-2.1363,-2.0725,-2.0904,-2.1245,-2.1369,-2.1438,-2.1663,-2.1866,-2.1924,-2.2081,-2.2525,-2.2825,-2.337,-2.3837,-2.4465,-2.4973,-2.5478,-2.5657,-2.5729,-2.5583,-2.5749,-2.5719,-2.533,-2.5226,-2.5285,-2.5285,-2.53,-2.542,-2.557,-2.5794,-2.5989,-2.6183,-2.6657,-2.7161,-2.7799,-2.8192,-2.8511,-2.8916,-2.9424,-3.0091,-3.0452,-3.0694,-3.092,-3.1173,-3.1309,-3.1461,-3.207,-3.2635,-3.3337,-1.9297,-1.9307,-1.9297,-1.9541,-1.9961,-2.0391,-2.0342,-2.0049,-1.96,-1.9375,-1.9463,-2.0215,-2.0576,-2.0576,-2.0576,-2.0576,-2.0576,-2.0576,-2.0576,-2.0576,-2.0576,-2.0576,-2.0576,-2.0576,-2.0576,-2.0576,-2.0576,-2.0576,-2.0576,-2.0576,-2.0576,-2.0576,-2.0644,-2.0634,-2.0556,-1.9821,-1.9419,-1.9189,-1.8525,-1.8262,-1.8105,-1.8057,-1.8327,-1.8787,-1.9309,-1.989,-2.0333,-2.0722,-2.0517,-1.9833,-1.9499,-1.8965,-1.8168,-1.8007,-1.8178,-1.8661,-1.8768,-1.9097,-1.9695,-1.9798,-1.9901,-1.999,-2.0552,-2.05,-2.0141,-2.0435,-2.0859,-2.036,-2.0309,-2.0514,-2.0651,-2.0951,-2.1314,-2.1511,-2.1597,-2.1785,-2.231,-2.2875,-2.3399,-2.3872,-2.4312,-2.48,-2.5471,-2.6027,-2.6307,-2.643,-2.6508,-2.6348,-2.5974,-2.5974,-2.6108,-2.6153,-2.6183,-2.6183,-2.6288,-2.6437,-2.6617,-2.6782,-2.7025,-2.744,-2.7754,-2.8012,-2.8319,-2.8606,-2.9104,-2.9673,-3.0251,-3.0781,-3.0975,-3.1207,-3.1326,-3.1579,-3.2205,-3.2974,-3.3778,-1.8857,-1.8857,-1.8857,-1.9111,-1.9531,-1.9951,-2.0185,-2.0312,-2.0185,-1.9971,-1.9853,-2.0342,-2.0566,-2.0576,-2.0547,-2.0537,-2.0547,-2.0576,-2.0576,-2.0576,-2.0576,-2.0576,-2.0576,-2.0576,-2.0576,-2.0576,-2.0576,-2.0576,-2.0576,-2.0576,-2.0576,-2.0576,-2.0576,-2.0576,-2.0527,-2.0185,-2.0039,-1.9678,-1.916,-1.874,-1.8428,-1.8174,-1.8212,-1.8529,-1.9044,-1.9431,-1.9792,-1.9984,-1.9577,-1.8946,-1.8726,-1.8195,-1.7641,-1.7487,-1.7644,-1.8124,-1.834,-1.9044,-1.9579,-1.9798,-1.9798,-1.9886,-1.9962,-2.0062,-1.9874,-2.0338,-2.0492,-2.0555,-2.0564,-2.0879,-2.1266,-2.1307,-2.1506,-2.1465,-2.1626,-2.1869,-2.2253,-2.2892,-2.3419,-2.3798,-2.4216,-2.4808,-2.5479,-2.5945,-2.6301,-2.6701,-2.6852,-2.7061,-2.6856,-2.6946,-2.7081,-2.7081,-2.7081,-2.7006,-2.7006,-2.6991,-2.7036,-2.7156,-2.7275,-2.749,-2.7745,-2.7894,-2.7894,-2.8076,-2.8638,-2.9225,-2.9995,-3.0658,-3.1015,-3.1224,-3.1596,-3.2053,-3.2747,-3.3541,-3.437,-1.8418,-1.8418,-1.8418,-1.876,-1.9307,-1.9736,-2.0088,-2.0312,-2.0332,-2.0166,-2.0049,-2.0361,-2.0459,-2.0381,-2.0342,-2.0342,-2.0342,-2.0342,-2.0518,-2.0537,-2.0576,-2.0576,-2.0576,-2.0576,-2.0576,-2.0576,-2.0576,-2.0576,-2.0576,-2.0576,-2.0576,-2.0576,-2.0566,-2.0576,-2.0508,-2.0352,-2.0137,-1.9727,-1.9287,-1.8818,-1.8545,-1.8281,-1.8212,-1.8462,-1.8787,-1.8988,-1.9173,-1.9094,-1.8827,-1.8364,-1.7888,-1.7536,-1.7153,-1.6958,-1.7199,-1.7745,-1.8625,-1.9251,-1.9695,-1.9798,-1.9798,-1.9811,-1.9798,-1.9798,-1.9823,-2.0112,-2.0426,-2.0706,-2.1104,-2.1317,-2.1481,-2.1518,-2.1581,-2.1625,-2.1838,-2.2065,-2.2318,-2.2902,-2.342,-2.3817,-2.411,-2.4745,-2.5329,-2.5781,-2.6193,-2.6686,-2.7108,-2.7342,-2.756,-2.756,-2.756,-2.7545,-2.7565,-2.7365,-2.732,-2.7395,-2.7455,-2.7545,-2.7575,-2.7575,-2.761,-2.771,-2.761,-2.771,-2.8543,-2.9332,-2.9995,-3.0535,-3.0938,-3.1561,-3.2256,-3.278,-3.3339,-3.4032,-3.481,-1.8008,-1.8008,-1.8008,-1.8506,-1.9248,-1.9619,-1.9853,-1.9932,-1.9932,-1.9932,-1.9941,-2.0342,-2.0312,-1.999,-1.9922,-1.9902,-1.9951,-1.9941,-2.0185,-2.0439,-2.0527,-2.0547,-2.0576,-2.0576,-2.0576,-2.0576,-2.0576,-2.0576,-2.0566,-2.0439,-2.0449,-2.0488,-2.043,-2.043,-2.0332,-2.0185,-1.999,-1.9746,-1.9297,-1.8877,-1.8594,-1.8242,-1.8309,-1.8529,-1.8529,-1.8536,-1.8497,-1.8192,-1.7503,-1.6904,-1.6466,-1.6245,-1.5977,-1.5684,-1.6753,-1.7924,-1.9066,-1.9497,-1.9798,-1.9798,-1.9798,-1.9798,-1.9798,-1.9798,-1.9962,-2.02,-2.0627,-2.0966,-2.1343,-2.1468,-2.1581,-2.1681,-2.1769,-2.1933,-2.2159,-2.2322,-2.246,-2.2883,-2.3385,-2.3748,-2.3968,-2.4394,-2.4768,-2.5273,-2.5673,-2.6162,-2.6587,-2.7137,-2.7357,-2.756,-2.756,-2.756,-2.7545,-2.756,-2.756,-2.756,-2.756,-2.756,-2.759,-2.759,-2.7575,-2.7649,-2.7709,-2.8046,-2.8732,-2.9377,-2.9848,-3.0408,-3.09,-3.1641,-3.2553,-3.322,-3.3711,-3.4286,-3.5006,-1.8008,-1.8008,-1.8008,-1.833,-1.8799,-1.8965,-1.9336,-1.9863,-1.9912,-1.9902,-1.9922,-2.0039,-2.001,-1.9902,-1.9609,-1.9502,-1.958,-1.9756,-1.9951,-2.0176,-2.0449,-2.0537,-2.0566,-2.0557,-2.0566,-2.0557,-2.0557,-2.0547,-2.0459,-2.0312,-2.0098,-2.0088,-2.0098,-2.0107,-2.0059,-1.9961,-1.9893,-1.9697,-1.9219,-1.8916,-1.8584,-1.8223,-1.8339,-1.8269,-1.8202,-1.815,-1.7833,-1.7382,-1.6719,-1.6338,-1.584,-1.5595,-1.5596,-1.5547,-1.6206,-1.7623,-1.856,-1.9202,-1.9695,-1.9798,-1.9747,-1.9759,-1.9784,-2.0087,-2.0338,-2.0702,-2.1049,-2.1319,-2.175,-2.2058,-2.2246,-2.2334,-2.2359,-2.2485,-2.2648,-2.2698,-2.2811,-2.2946,-2.3424,-2.3484,-2.3649,-2.3767,-2.415,-2.4425,-2.4824,-2.5439,-2.6108,-2.6811,-2.724,-2.7458,-2.756,-2.756,-2.756,-2.756,-2.756,-2.756,-2.756,-2.7575,-2.759,-2.7694,-2.7889,-2.7964,-2.7949,-2.8282,-2.8873,-2.9227,-2.9585,-3.0152,-3.0767,-3.1875,-3.278,-3.344,-3.4083,-3.4641,-3.5125,-1.7423,-1.7432,-1.7432,-1.7887,-1.8523,-1.8562,-1.8965,-1.9394,-1.959,-1.9668,-1.9687,-1.9844,-1.9727,-1.9355,-1.9131,-1.9033,-1.9062,-1.9443,-1.9736,-2.0049,-2.0322,-2.0352,-2.04,-2.0449,-2.043,-2.043,-2.0439,-2.0449,-2.0273,-1.9922,-1.9668,-1.9668,-1.9668,-1.9668,-1.9658,-1.9619,-1.9512,-1.9346,-1.9102,-1.8887,-1.8574,-1.8223,-1.8066,-1.8008,-1.8008,-1.7764,-1.7393,-1.6963,-1.651,-1.6111,-1.5664,-1.5537,-1.5723,-1.5969,-1.609,-1.7333,-1.7875,-1.8328,-1.8756,-1.915,-1.9307,-1.9485,-1.979,-2.0238,-2.0474,-2.0704,-2.1156,-2.1485,-2.2247,-2.2811,-2.2975,-2.3113,-2.31,-2.31,-2.31,-2.31,-2.3113,-2.3113,-2.3125,-2.3125,-2.3125,-2.3185,-2.3352,-2.3636,-2.4266,-2.5273,-2.6269,-2.7034,-2.7357,-2.7509,-2.756,-2.756,-2.756,-2.756,-2.756,-2.756,-2.756,-2.756,-2.7575,-2.7739,-2.8083,-2.8207,-2.8082,-2.8403,-2.8936,-2.9382,-2.9892,-3.0113,-3.0692,-3.1867,-3.2949,-3.3592,-3.4269,-3.4945,-3.5318,-1.6609,-1.6627,-1.6706,-1.7483,-1.8484,-1.8555,-1.8584,-1.8572,-1.9062,-1.9238,-1.9307,-1.9619,-1.9336,-1.8806,-1.8662,-1.8594,-1.8711,-1.9033,-1.9365,-1.9814,-2.0078,-2.0041,-1.9821,-2.0234,-1.9994,-2.0051,-2.0225,-2.0381,-1.9912,-1.9521,-1.9238,-1.9238,-1.9238,-1.9238,-1.9228,-1.9228,-1.9111,-1.8896,-1.8721,-1.8525,-1.8457,-1.8223,-1.8008,-1.8008,-1.7959,-1.7812,-1.7402,-1.6973,-1.6523,-1.6084,-1.5752,-1.5644,-1.5999,-1.6514,-1.6707,-1.6914,-1.7379,-1.7743,-1.8058,-1.8394,-1.8555,-1.8988,-1.9702,-1.9809,-1.9823,-2.0915,-2.1477,-2.1677,-2.2284,-2.2805,-2.3002,-2.3125,-2.3125,-2.3125,-2.3125,-2.3125,-2.3125,-2.3125,-2.3125,-2.3125,-2.3125,-2.3125,-2.3185,-2.3531,-2.415,-2.5273,-2.6054,-2.6864,-2.7458,-2.756,-2.756,-2.756,-2.756,-2.756,-2.756,-2.756,-2.756,-2.756,-2.7619,-2.7799,-2.8143,-2.8167,-2.8149,-2.8475,-2.8857,-2.9738,-3.0293,-3.041,-3.0866,-3.2185,-3.3136,-3.3728,-3.4421,-3.5148,-3.5453,-1.6356,-1.6706,-1.7354,-1.7861,-1.8086,-1.8164,-1.8174,-1.8203,-1.8613,-1.8718,-1.8747,-1.8815,-1.8786,-1.8463,-1.8162,-1.8075,-1.8301,-1.8672,-1.8828,-1.9131,-1.9492,-1.937,-1.8863,-1.9599,-1.9391,-1.9193,-1.9526,-2.0195,-1.9727,-1.9199,-1.8799,-1.8799,-1.8799,-1.8789,-1.8799,-1.8799,-1.8691,-1.8535,-1.8359,-1.8242,-1.8184,-1.8135,-1.8008,-1.8008,-1.7969,-1.7783,-1.7402,-1.6992,-1.6533,-1.6074,-1.5644,-1.5518,-1.5606,-1.6267,-1.655,-1.6673,-1.7034,-1.7324,-1.7545,-1.7723,-1.791,-1.8079,-1.8542,-1.8538,-1.9143,-2.0846,-2.1807,-2.1933,-2.225,-2.2712,-2.3027,-2.3113,-2.3125,-2.3125,-2.3125,-2.3125,-2.3125,-2.3125,-2.3125,-2.3125,-2.3125,-2.3125,-2.3198,-2.3649,-2.4266,-2.4824,-2.5329,-2.6094,-2.7122,-2.7509,-2.756,-2.756,-2.756,-2.756,-2.7575,-2.7709,-2.7799,-2.7799,-2.7844,-2.8023,-2.8248,-2.8263,-2.8335,-2.846,-2.8842,-2.9585,-3.0166,-3.0351,-3.1041,-3.211,-3.3169,-3.3694,-3.4523,-3.5284,-3.5487,-1.5615,-1.5972,-1.7366,-1.8008,-1.8008,-1.8008,-1.8008,-1.8047,-1.8262,-1.8072,-1.782,-1.7863,-1.7882,-1.7731,-1.7449,-1.7725,-1.7939,-1.8457,-1.8652,-1.8789,-1.8874,-1.8885,-1.8893,-1.9101,-1.8976,-1.8765,-1.912,-1.9463,-1.9307,-1.8789,-1.8369,-1.8309,-1.83,-1.8309,-1.8309,-1.8359,-1.8379,-1.833,-1.8105,-1.8037,-1.8008,-1.8008,-1.8008,-1.8008,-1.7949,-1.7764,-1.748,-1.7109,-1.6816,-1.6377,-1.5967,-1.5771,-1.5762,-1.5918,-1.5961,-1.6036,-1.6332,-1.6726,-1.6977,-1.7245,-1.7492,-1.7687,-1.8289,-1.8692,-1.866,-2.0182,-2.0899,-2.1198,-2.2445,-2.304,-2.3053,-2.3125,-2.3125,-2.3125,-2.3125,-2.3125,-2.3125,-2.3125,-2.3125,-2.3125,-2.3125,-2.3125,-2.3305,-2.3767,-2.4337,-2.4667,-2.5119,-2.5837,-2.6759,-2.7509,-2.756,-2.756,-2.756,-2.7575,-2.759,-2.7844,-2.8158,-2.8143,-2.8023,-2.8308,-2.8524,-2.848,-2.8522,-2.857,-2.8748,-2.9241,-2.9733,-3.0081,-3.0392,-3.1183,-3.2429,-3.3626,-3.4472,-3.5155,-3.5374,-1.4757,-1.5205,-1.7043,-1.7832,-1.7861,-1.791,-1.791,-1.7852,-1.7784,-1.7257,-1.6473,-1.659,-1.651,-1.6526,-1.6636,-1.7217,-1.7734,-1.8162,-1.8397,-1.8594,-1.8857,-1.8385,-1.8414,-1.8792,-1.8802,-1.8695,-1.8809,-1.8828,-1.8699,-1.833,-1.8018,-1.7881,-1.794,-1.7949,-1.7862,-1.7949,-1.8066,-1.8096,-1.8018,-1.8008,-1.8008,-1.8008,-1.8008,-1.8008,-1.7978,-1.7803,-1.7578,-1.7275,-1.708,-1.665,-1.6172,-1.5977,-1.583,-1.5753,-1.5694,-1.5761,-1.5831,-1.6088,-1.6327,-1.6859,-1.7234,-1.7685,-1.8512,-1.8761,-1.8638,-1.9051,-1.9816,-2.0808,-2.2041,-2.2738,-2.2738,-2.2689,-2.2689,-2.3005,-2.3005,-2.3065,-2.3125,-2.3125,-2.3125,-2.3125,-2.3125,-2.3125,-2.3365,-2.3826,-2.4176,-2.4567,-2.5189,-2.5906,-2.6616,-2.724,-2.756,-2.756,-2.756,-2.7575,-2.759,-2.7829,-2.8173,-2.8113,-2.8038,-2.8442,-2.8659,-2.8369,-2.8271,-2.8572,-2.8826,-2.9136,-2.9556,-2.9951,-3.0264,-3.0714,-3.1842,-3.3186,-3.382,-3.453,-3.5121,-1.4766,-1.6324,-1.6815,-1.6982,-1.6977,-1.7353,-1.75,-1.7358,-1.6721,-1.6047,-1.5373,-1.4487,-1.4417,-1.5508,-1.6349,-1.6853,-1.7088,-1.7672,-1.7988,-1.8174,-1.8002,-1.7599,-1.7637,-1.8302,-1.8825,-1.8779,-1.8516,-1.8359,-1.8288,-1.8105,-1.7579,-1.7001,-1.7794,-1.7647,-1.706,-1.7423,-1.8008,-1.8008,-1.8008,-1.8008,-1.8008,-1.8008,-1.8008,-1.8008,-1.7998,-1.7959,-1.7754,-1.7187,-1.6914,-1.6533,-1.6143,-1.6006,-1.5908,-1.583,-1.5752,-1.582,-1.5869,-1.6191,-1.6621,-1.6822,-1.7146,-1.7246,-1.782,-1.7951,-1.7995,-1.8309,-1.9009,-1.9684,-2.0685,-2.1444,-2.1569,-2.1416,-2.1416,-2.2249,-2.2567,-2.2944,-2.3125,-2.3125,-2.3125,-2.3125,-2.3125,-2.3125,-2.3125,-2.3543,-2.3767,-2.4279,-2.5021,-2.5797,-2.651,-2.7049,-2.756,-2.756,-2.756,-2.756,-2.7575,-2.7709,-2.7949,-2.7919,-2.7993,-2.8278,-2.8263,-2.788,-2.7894,-2.8222,-2.8558,-2.8842,-2.9305,-2.9801,-3.0533,-3.1046,-3.1742,-3.2662,-3.333,-3.4057,-3.48]}]]